     2              OBSERVATION DATA    GPS                 RINEX VERSION / TYPE
teqc 1997Sep10 19971010 23:14:13UTC                         PGM / RUN BY / DATE
                                                            COMMENT
Original Marker Name: 1110                                  COMMENT
Campaign Name: NGS Salton Trough 1991                       COMMENT
4-Character Station Name: 1110                              COMMENT
6-Character Antenna Code: TRMSST                            COMMENT
Vertical Measurement Point: BGP                             COMMENT
Vertical Offset to Rinex Ref. Point: 0.0597                 COMMENT
Radial Measurement Point: NGP                               COMMENT
Radial Offset to Rinex Ref. Point: 0.2334                   COMMENT
Antenna Height from Field Measurement: 1.6480 m             COMMENT
Original XYZ: -2333134.5904 -4807484.4227 3470365.0545      COMMENT
New XYZ position is based on association with SCEC monument COMMENT
E1D0I0K3+0011. Position of that monument is believed to be  COMMENT
valid to within 1 m horizontally; vertical accuracy         COMMENT
should be no worse than 3-times this value.                 COMMENT
                                                            COMMENT
Revised Rinex header created by UCSD GPS archive for        COMMENT
GSAC on 12-Apr-1999 (1999:102) 05:08:46 GMT                 COMMENT
For assistance contact dagnew@ucsd.edu or hjohnson@ucsd.edu COMMENT
                                                            COMMENT
HPGN CALIF 11-10                                            MARKER NAME
unknown NATIONAL GEODETIC SURVEY                            OBSERVER / AGENCY
483 TRIMBLE 4000 SST NP 4.30 / SP 4.20                      REC # / TYPE / VERS
19 TR 4000SST L1/L2 GEO                                     ANT # / TYPE
 -2333139.0000 -4807501.0000  3470371.0000                  APPROX POSITION XYZ
        1.5717        0.0000        0.0000                  ANTENNA: DELTA H/E/N
     1     1     0                                          WAVELENGTH FACT L1/2
     3    C1    L1    L2                                    # / TYPES OF OBSERV
     0                                                      INTERVAL
  1991     4     2    21    18   15.000000                  TIME OF FIRST OBS
  1991     4     3     2    49   60.000000                  TIME OF LAST OBS
     0                                                      # OF SATELLITES
                                                            END OF HEADER
 91  4  2 21 18 15.0000000  0  4G18G19G11G 2
  20571158.3984         -0.54558
  20986116.1094         -0.07156
  23597640.148          -0.99616
  23963486.1644         -0.71955
 91  4  2 21 18 30.0000000  0  4G18G19G11G 2
  20573809.969       13930.695 8        -0.31732
  20985058.7584      -5559.05246        -0.31472
  23591664.344      -31391.445 6
  23954520.594      -47114.746 5
 91  4  2 21 18 45.0000000  0  4G18G19G11G 2
  20576470.984       27916.908 8     10898.00722
  20983997.1724     -11139.62546     -4348.78062
  23585698.1884     -62745.20446        -0.21671
  23945551.2114     -94243.62645
 91  4  2 21 19  0.0000000  0  4G18G19G11G 2
  20579145.734       41974.412 8     21851.88322
  20982934.2274     -16725.69046     -8701.52762
  23579741.7274     -94045.80846    -24390.17861
  23936584.578     -141371.091 5        -0.23531
 91  4  2 21 19 15.0000000  0  4G18G19G11G 2
  20581835.563       56109.474 8     32866.19622
  20981870.8834     -22310.79446    -13053.52362
  23573797.7274    -125286.50946    -48733.45061
  23927617.977     -188490.500 5    -36716.39321
 91  4  2 21 19 30.0000000  0  4G18G19G11G 2
  20584542.641       70331.359 8     43948.16322
  20980813.1724     -27885.86146    -17397.69862
  23567864.0634    -156457.77046    -73022.62161
  23918655.664     -235592.519 5    -73419.01321
 91  4  2 21 19 45.0000000  0  4G18G19G11G 2
  20587267.344       84649.898 8     55105.44522
  20979752.1564     -33440.88946    -21726.26162
  23561947.805     -187549.422 6    -97249.78121
  23909696.3134    -282667.13445   -110100.25861
 91  4  2 21 20  0.0000000  0  4G18G19G11G 2
  20590010.406       99061.256 8     66335.05322
  20978700.6484     -38979.57246    -26042.08662
  23556046.7114    -218564.69746   -121417.41161
  23900743.7114    -329717.95045   -146762.98661
 91  4  2 21 20 15.0000000  0  4G18G19G11G 2
  20592771.250      113572.872 7     77642.78622
  20977649.7194     -44494.58546    -30339.46962
  23550160.4384    -249495.94946   -145519.56461
  23891795.492     -376737.582 5   -183401.39821
 91  4  2 21 20 30.0000000  0  4G18G19G11G 2
  20595552.461      128185.888 8     89029.53722
  20976605.8054     -49984.92346    -34617.62062
  23544290.523     -280341.641 6   -169555.06021
  23882853.0234    -423724.58845   -220014.41161
 91  4  2 21 20 45.0000000  0  4G18G19G11G 2
  20598353.297      142907.967 8    100501.25322
  20975565.7814     -55442.88146    -38870.54962
  23538438.188     -311093.768 6   -193517.64621
  23873919.641     -470671.117 5   -256595.87321
 91  4  2 21 21  0.0000000  0  4G18G19G11G 2
  20601175.211      157736.092 8    112055.61622
  20974534.4614     -60871.41646    -43100.54562
  23532603.203     -341754.949 6   -217409.33321
  23864993.4534    -517579.96945   -293147.97561
 91  4  2 21 21 15.0000000  0  4G18G19G11G 2
  20604019.609      172684.558 8    123703.75422
  20973509.1414     -66256.13146    -47296.40062
  23526789.570     -372310.581 6   -241218.80821
  23856077.1954    -564436.71945   -329659.48161
 91  4  2 21 21 30.0000000  0  4G18G19G11G 2
  20606884.727      187741.636 8    135436.51322
  20972491.0314     -71608.71846    -51467.21762
  23520993.172     -402771.807 6   -264954.72021
  23847167.8984    -611252.86845   -366139.34961
 91  4  2 21 21 45.0000000  0  4G18G19G11G 2
  20609771.734      202907.104 8    147253.73622
  20971476.945      -76929.673 6    -55613.39222
  23515214.4844    -433138.64646   -288617.06761
  23838264.9144    -658028.61445   -402587.74461
 91  4  2 21 22  0.0000000  0  4G18G19G11G 2
  20612678.102      218184.127 8    159157.88522
  20970473.1884     -82215.79646    -59732.42162
  23509454.117     -463407.638 6   -312203.19621
  23829373.5314    -704760.67245   -439002.10061
 91  4  2 21 22 15.0000000  0  4G18G19G11G 2
  20615605.742      233570.245 8    171147.04422
  20969471.602      -87469.664 6    -63826.31522
  23503711.461     -493580.824 6   -335714.66421
  23820489.578     -751451.217 5   -475384.09721
 91  4  2 21 22 30.0000000  0  4G18G19G11G 2
  20618555.188      249065.501 8    183221.24922
  20968480.039      -92690.815 6    -67894.71822
  23497988.000     -523657.673 6   -359151.07221
  23811611.070     -798100.011 5   -511733.58321
 91  4  2 21 22 45.0000000  0  4G18G19G11G 2
  20621523.063      264665.417 8    195377.00322
  20967489.281      -97883.695 6    -71941.09222
  23492283.0634    -553642.26546   -382515.58061
  23802739.8284    -844711.29845   -548053.84761
 91  4  2 21 23  0.0000000  0  4G18G19G11G 2
  20624512.664      280373.581 8    207617.10623
  20966509.633     -103044.867 6    -75962.75922
  23486595.4454    -583530.79746   -405805.25561
  23793879.141     -891281.368 5   -584341.99021
 91  4  2 21 23 15.0000000  0  4G18G19G11G 2
  20627521.953      296187.695 8    219939.76922
  20965531.047     -108176.533 6    -79961.43222
  23480925.3524    -613325.21246   -429021.59361
  23785023.695     -937812.392 5   -620599.70021
 91  4  2 21 23 30.0000000  0  4G18G19G11G 2
  20630551.039      312106.688 8    232344.15322
  20964561.367     -113279.857 6    -83938.02522
  23475272.6094    -643026.10046   -452165.04161
  23776176.6174    -984305.22545   -656827.66661
 91  4  2 21 23 45.0000000  0  4G18G19G11G 2
  20633600.469      328130.307 8    244830.06722
  20963593.914     -118355.001 6    -87892.65822
  23469638.5314    -672633.32646   -475235.52061
  23767336.695    -1030759.901 5   -693025.89921
 91  4  2 21 24  0.0000000  0  4G18G19G11G 2
  20636670.414      344262.099 8    257400.27122
  20962636.867     -123398.422 6    -91822.57422
  23464023.367     -702143.061 6   -498230.05421
  23758503.234    -1077172.640 5   -729191.45121
 91  4  2 21 24 15.0000000  0  4G18G19G11G 2
  20639761.086      360502.398 8    270055.02722
  20961681.086     -128409.735 6    -95727.46422
  23458426.5394    -731554.58146   -521148.03061
  23749679.313    -1123543.059 5   -765324.03121
 91  4  2 21 24 30.0000000  0  4G18G19G11G 2
  20642871.125      376847.763 8    282791.64723
  20960734.727     -133392.442 6    -99610.06922
  23452847.594     -760871.016 6   -543991.89721
  23740862.2424   -1169874.41245   -801426.17661
 91  4  2 21 24 45.0000000  0  4G18G19G11G 2
  20646003.391      393303.363 8    295614.16322
  20959791.336     -138341.241 6   -103466.25122
  23447287.383     -790086.626 6   -566757.23021
  23732054.641    -1216161.304 5   -837493.67621
 91  4  2 21 25  0.0000000  0  4G18G19G11G 2
  20649153.898      409864.614 8    308519.00722
  20958856.180     -143260.793 6   -107299.65022
  23441746.1884    -819205.75646   -589447.36961
  23723252.133    -1262408.220 5   -873530.02921
 91  4  2 21 25 15.0000000  0  4G18G19G11G 2
  20652325.906      426534.412 8    321508.43422
  20957925.711     -148148.076 6   -111107.89122
  23436225.4694    -848225.03446   -612059.70761
  23714461.7584   -1308612.05145   -909532.79861
 91  4  2 21 25 30.0000000  0  4G18G19G11G 2
  20655519.7424     443315.37348    334584.48062
  20957005.4844    -153000.24246   -114888.77562
  23430722.242     -877141.467 6   -634591.90621
  23705677.852    -1354769.841 5   -945499.69921
 91  4  2 21 25 45.0000000  0  4G18G19G11G 2
  20658734.1094     460208.17548    347747.67362
  20956084.539     -157816.883 6   -118641.97422
  23425238.1804    -905954.24546   -657043.34161
  23696903.5554   -1400881.04245   -981430.29361
 91  4  2 21 26  0.0000000  0  4G18G19G11G 2
  20661968.930      477208.352 8    360994.53623
  20955175.656     -162602.451 6   -122370.96522
  23419775.797     -934667.303 6   -679417.07421
  23688136.344    -1446949.817 5  -1017327.84021
 91  4  2 21 26 15.0000000  0  4G18G19G11G 2
  20665224.6644     494312.92948    374322.74962
  20954269.305     -167359.775 6   -126077.94722
  23414330.234     -963283.162 6   -701715.06221
  23679376.1334   -1492978.82745  -1053194.40061
 91  4  2 21 26 30.0000000  0  4G18G19G11G 2
  20668499.484      511524.934 8    387734.67422
  20953370.594     -172085.704 6   -129760.45822
  23408903.1024    -991798.55246   -723934.74961
  23670626.1414   -1538964.85445  -1089027.46461
 91  4  2 21 26 45.0000000  0  4G18G19G11G 2
  20671795.469      528844.451 8    401230.37623
  20952476.711     -176779.982 6   -133418.31222
  23403495.586    -1020212.776 6   -746075.62421
  23661883.266    -1584907.511 5  -1124826.73421
 91  4  2 21 27  0.0000000  0  4G18G19G11G 2
  20675112.164      546273.556 8    414811.46723
  20951590.7974    -181440.90746   -137050.17262
  23398109.6094   -1048523.70846   -768136.00461
  23653148.703    -1630804.776 5  -1160590.64921
 91  4  2 21 27 15.0000000  0  4G18G19G11G 2
  20678450.0704     563813.29348    428478.76663
  20950708.867     -186067.307 6   -140655.13722
  23392740.6564   -1076729.84046   -790114.71661
  23644424.867    -1676655.506 5  -1196318.29721
 91  4  2 21 27 30.0000000  0  4G18G19G11G 2
  20681809.008      581462.498 8    442231.36623
  20949836.727     -190660.137 6   -144233.94022
  23387393.164    -1104832.016 6   -812012.43721
  23635706.172    -1722460.417 5  -1232010.23921
 91  4  2 21 27 45.0000000  0  4G18G19G11G 2
  20685188.0164     599220.36148    456068.63863
  20948967.2974    -195220.34446   -147787.32162
  23382065.4304   -1132830.55146   -833829.38261
  23627000.156    -1768220.245 5  -1267667.04421
 91  4  2 21 28  0.0000000  0  4G18G19G11G 2
  20688588.266      617091.284 8    469994.00823
  20948109.695     -199743.330 6   -151311.70022
  23376758.516    -1160720.688 6   -855561.87521
  23618301.5004   -1813930.42945  -1303285.19061
 91  4  2 21 28 15.0000000  0  4G18G19G11G 2
  20692010.680      635074.910 8    484007.19723
  20947252.219     -204229.399 6   -154807.30822
  23371470.9384   -1188502.39946   -877209.88061
  23609610.516    -1859591.243 5  -1338864.85021
 91  4  2 21 28 30.0000000  0  4G18G19G11G 2
  20695452.445      653161.105 8    498100.30923
  20946403.8524    -208688.40946   -158281.83562
  23366202.9454   -1216185.24046   -898780.83361
  23600929.008    -1905212.449 5  -1374413.64621
 91  4  2 21 28 45.0000000  0  4G18G19G11G 2
  20698915.188      671356.793 8    512278.74423
  20945563.0234    -213113.64546   -161730.04562
  23360956.6484   -1243761.92746   -920269.06561
  23592257.9694   -1950787.04946  -1409926.14061
 91  4  2 21 29  0.0000000  0  4G18G19G11G 2
  20702397.859      689659.802 8    526540.80423
  20944728.5394    -217507.27746   -165153.62762
  23355727.2664   -1271234.55046   -941676.22061
  23583595.555    -1996317.137 6  -1445403.96021
 91  4  2 21 29 15.0000000  0  4G18G19G11G 2
  20705901.445      708069.146 8    540885.72223
  20943895.891     -221870.094 6   -168553.19622
  23350519.430    -1298603.733 6   -963002.76921
  23574937.3524   -2041803.42446  -1480847.64061
 91  4  2 21 29 30.0000000  0  4G18G19G11G 2
  20709425.070      726587.092 8    555315.26423
  20943076.0084    -226199.89046   -171927.03862
  23345331.1024   -1325866.77146   -984246.60161
  23566289.1094   -2087243.34046  -1516255.17061
 91  4  2 21 29 45.0000000  0  4G18G19G11G 2
  20712968.844      745210.222 8    569826.76723
  20942253.2894    -230500.06146   -175277.79362
  23340162.6804   -1353026.66846  -1005410.07261
  23557651.4224   -2132640.07646  -1551629.07461
 91  4  2 21 30  0.0000000  0  4G18G19G11G 2
  20716533.078      763941.097 8    584422.22923
  20941443.523     -234767.984 6   -178603.42422
  23335014.1334   -1380080.42246  -1026490.82561
  23549021.750    -2177990.893 6  -1586967.19821
 91  4  2 21 30 15.0000000  0  4G18G19G11G 2
  20720119.234      782780.989 8    599102.63923
  20940635.086     -239002.397 6   -181902.94122
  23329886.3134   -1407026.51046  -1047487.67861
  23540400.0314   -2223294.33346  -1622268.39461
 91  4  2 21 30 30.0000000  0  4G18G19G11G 2
  20723724.164      801729.739 8    613867.87223
  20939840.0004    -243203.46246   -185176.47262
  23324779.945    -1433864.671 6  -1068400.46221
  23531787.8134   -2268550.55146  -1657532.79061
 91  4  2 21 30 45.0000000  0  4G18G19G11G 2
  20727350.547      820784.611 8    628715.79923
  20939042.063     -247373.772 6   -188426.03922
  23319692.9614   -1460597.23246  -1089230.93561
  23523185.4304   -2313762.03846  -1692762.33961
 91  4  2 21 31  0.0000000  0  4G18G19G11G 2
  20730998.047      839950.925 8    643650.56523
  20938256.1484    -251507.75646   -191647.30162
  23314626.734    -1487218.489 6  -1109974.69821
  23514590.945    -2358923.167 6  -1727952.66021
 91  4  2 21 31 15.0000000  0  4G18G19G11G 2
  20734665.531      859223.156 8    658667.86223
  20937475.438     -255610.852 6   -194844.49122
  23309581.836    -1513733.500 6  -1130635.66921
  23506004.1564   -2404039.14246  -1763107.78361
 91  4  2 21 31 30.0000000  0  4G18G19G11G 2
  20738352.516      878602.989 8    673769.00523
  20936700.844     -259681.634 6   -198016.50522
  23304555.516    -1540140.476 6  -1151212.45721
  23497429.3284   -2449108.39846  -1798226.50261
 91  4  2 21 31 45.0000000  0  4G18G19G11G 2
  20742061.4534     898089.88648    688953.57663
  20935932.266     -263720.247 6   -201163.45022
  23299551.938    -1566439.353 6  -1171705.00321
  23488862.2034   -2494131.09846  -1833308.94861
 91  4  2 21 32  0.0000000  0  4G18G19G11G 2
  20745789.953      917683.791 8    704221.52523
  20935171.7194    -267726.82246   -204285.43162
  23294567.383    -1592629.855 6  -1192113.10421
  23480302.3674   -2539107.17246  -1868355.05861
 91  4  2 21 32 15.0000000  0  4G18G19G11G 2
  20749538.7274     937386.43048    719574.20163
  20934413.547     -271699.403 6   -207380.91822
  23289605.008    -1618709.871 6  -1212435.11221
  23471752.766    -2584034.717 6  -1903363.35821
 91  4  2 21 32 30.0000000  0  4G18G19G11G 2
  20753308.984      957196.660 8    735010.71923
  20933664.3134    -275639.24546   -210450.89862
  23284662.3914   -1644680.23846  -1232671.67261
  23463211.0234   -2628914.61646  -1938334.52661
 91  4  2 21 32 45.0000000  0  4G18G19G11G 2
  20757098.531      977111.143 8    750528.47023
  20932920.6024    -279549.66746   -213497.95162
  23279739.922    -1670543.926 6  -1252825.11621
  23454680.2894   -2673749.98346  -1973270.99461
 91  4  2 21 33  0.0000000  0  4G18G19G11G 2
  20760909.8524     997135.85848    766132.11563
  20932183.1884    -283424.41046   -216517.20062
  23274840.547    -1696294.617 6  -1272890.50621
  23446158.031    -2718534.689 6  -2008167.99321
 91  4  2 21 33 15.0000000  0  4G18G19G11G 2
  20764738.9844    1017263.29448    781815.80263
  20931450.4844    -287270.92246   -219514.45362
  23269960.281    -1721939.228 6  -1292873.23821
  23437644.0314   -2763276.04846  -2043031.21161
 91  4  2 21 33 30.0000000  0  4G18G19G11G 2
  20768589.094     1037496.413 8    797581.84223
  20930725.0634    -291086.28246   -222487.43362
  23265101.5634   -1747474.67246  -1312770.90761
  23429140.0394   -2807970.81846  -2077858.11761
 91  4  2 21 33 45.0000000  0  4G18G19G11G 2
  20772460.2894    1057837.72847    813432.18863
  20930004.3524    -294868.07446   -225434.25062
  23260263.5084   -1772898.12246  -1332581.31161
  23420643.1174   -2852616.44146  -2112646.73861
 91  4  2 21 34  0.0000000  0  4G18G19G11G 2
  20776351.695     1078286.373 7    829366.17123
  20929293.1644    -298616.90046   -228355.38962
  23255447.1174   -1798209.85546  -1352304.64061
  23412156.3594   -2897213.51045  -2147397.52761
 91  4  2 21 34 15.0000000  0  4G18G19G11G 2
  20780262.4304    1098837.47147    845379.98163
  20928583.1414    -302337.57646   -231254.58562
  23250650.1484   -1823414.38646  -1371944.44761
  23403677.0944   -2941766.60145  -2182114.03861
 91  4  2 21 34 30.0000000  0  4G18G19G11G 2
  20784193.8054    1119494.92548    861476.67363
  20927882.7974    -306026.09146   -234128.72362
  23245874.883    -1848507.563 6  -1391497.48921
  23395209.0864   -2986271.67145  -2216793.12961
 91  4  2 21 34 45.0000000  0  4G18G19G11G 2
  20788144.4224    1140258.32048    877655.91263
  20927185.633     -309682.745 6   -236978.03022
  23241121.0474   -1873489.36746  -1410963.74061
  23386748.930    -3030729.020 5  -2251435.04421
 91  4  2 21 35  0.0000000  0  4G18G19G11G 2
  20792116.2344    1161127.22848    893917.36563
  20926498.1024    -313307.89446   -239802.79862
  23236387.9774   -1898359.86646  -1430343.25861
  23378298.414    -3075138.713 5  -2286039.81421
 91  4  2 21 35 15.0000000  0  4G18G19G11G 2
  20796107.4454    1182103.92047    910262.81163
  20925811.836     -316899.271 6   -242601.24422
  23231678.047    -1923116.506 6  -1449634.04421
  23369856.5554   -3119498.44646  -2320605.65561
 91  4  2 21 35 30.0000000  0  4G18G19G11G 2
  20800120.7814    1203190.18948    926693.63963
  20925135.9694    -320454.86146   -245371.80862
  23226987.7664   -1947757.10546  -1468834.41961
  23361423.711    -3163806.250 6  -2355131.02921
 91  4  2 21 35 45.0000000  0  4G18G19G11G 2
  20804153.305     1224384.317 7    943208.51723
  20924465.773     -323976.239 6   -248115.71522
  23222321.4304   -1972282.88946  -1487945.33661
  23353003.0944   -3208063.47146  -2389616.99361
 91  4  2 21 36  0.0000000  0  4G18G19G11G 2
  20808206.148     1245683.449 7    959805.21923
  20923801.891     -327466.496 6   -250835.37122
  23217675.500    -1996696.441 6  -1506968.80421
  23344590.609    -3252272.975 6  -2424065.75521
 91  4  2 21 36 15.0000000  0  4G18G19G11G 2
  20812279.242     1267087.103 7    976483.36623
  20923142.094     -330925.572 6   -253530.73422
  23213050.734    -2020997.675 6  -1525904.74321
  23336185.734    -3296434.720 6  -2458477.31821
 91  4  2 21 36 30.0000000  0  4G18G19G11G 2
  20816372.469     1288597.157 7    993244.42423
  20922494.375     -334351.601 6   -256200.34722
  23208448.4384   -2045184.43246  -1544751.47561
  23327790.781    -3340546.695 6  -2492850.09921
 91  4  2 21 36 45.0000000  0  4G18G19G11G 2
  20820485.297     1310211.986 7   1010087.12223
  20921845.664     -337746.270 6   -258845.52322
  23203867.6644   -2069258.14346  -1563510.12261
  23319406.3914   -3384610.56546  -2527185.39361
 91  4  2 21 37  0.0000000  0  4G18G19G11G 2
  20824619.492     1331936.008 7   1027014.90823
  20921206.805     -341105.120 6   -261462.78422
  23199309.2664   -2093214.01346  -1582176.93361
  23311031.0314   -3428621.56646  -2561479.49361
 91  4  2 21 37 15.0000000  0  4G18G19G11G 2
  20828773.422     1353762.306 7   1044022.38823
  20920572.148     -344434.575 6   -264057.14522
  23194770.055    -2117058.306 6  -1600756.82621
  23302665.766    -3472586.092 6  -2595737.37121
 91  4  2 21 37 30.0000000  0  4G18G19G11G 2
  20832946.2664    1375692.92447   1061111.15263
  20919945.547     -347732.504 6   -266626.93622
  23190255.1484   -2140788.46146  -1619247.76261
  23294306.9924   -3516502.08646  -2629957.44561
 91  4  2 21 37 45.0000000  0  4G18G19G11G 2
  20837139.617     1397727.526 7   1078280.94823
  20919323.2034    -350999.45646   -269172.58162
  23185759.7584   -2164404.58846  -1637649.84961
  23285960.625    -3560369.813 6  -2664139.89521
 91  4  2 21 38  0.0000000  0  4G18G19G11G 2
  20841351.273     1419861.686 7   1095528.32723
  20918708.953     -354239.915 6   -271697.59322
  23181288.4454   -2187910.93446  -1655966.38761
  23277621.2504   -3604193.53946  -2698288.06461
 91  4  2 21 38 15.0000000  0  4G18G19G11G 2
  20845583.188     1442097.749 7   1112855.10423
  20918094.813     -357451.358 6   -274199.99022
  23176836.4774   -2211304.78146  -1674195.27761
  23269290.5554   -3647970.70846  -2732399.95961
 91  4  2 21 38 30.0000000  0  4G18G19G11G 2
  20849833.633     1464435.645 7   1130261.23223
  20917490.227     -360633.605 6   -276679.63722
  23172405.7274   -2234585.91846  -1692336.32861
  23260969.0394   -3691701.17446  -2766475.46161
 91  4  2 21 38 45.0000000  0  4G18G19G11G 2
  20854103.680     1486874.779 7   1147746.25023
  20916889.711     -363787.028 6   -279136.82222
  23167997.281    -2257754.563 6  -1710389.72621
  23252654.852    -3735385.245 6  -2800514.81321
 91  4  2 21 39  0.0000000  0  4G18G19G11G 2
  20858393.141     1509415.197 7   1165310.19123
  20916295.719     -366911.530 6   -281571.47622
  23163608.992    -2280809.983 6  -1728354.90321
  23244351.9064   -3779022.47546  -2834517.67061
 91  4  2 21 39 15.0000000  0  4G18G19G11G 2
  20862700.648     1532054.486 7   1182951.17023
  20915705.461     -370009.415 6   -283985.38522
  23159244.2664   -2303754.27946  -1746233.48861
  23236055.9304   -3822615.10846  -2868485.76861
 91  4  2 21 39 30.0000000  0  4G18G19G11G 2
  20867029.563     1554797.454 7   1200672.94323
  20915122.398     -373075.964 6   -286374.87722
  23154899.0314   -2326582.52246  -1764021.63261
  23227771.0004   -3866158.46346  -2902415.47261
 91  4  2 21 39 45.0000000  0  4G18G19G11G 2
  20871376.688     1577644.248 7   1218475.61423
  20914544.242     -376110.745 6   -288739.61722
  23150577.3284   -2349294.12946  -1781718.90161
  23219493.391    -3909651.978 6  -2936306.35321
 91  4  2 21 40  0.0000000  0  4G18G19G11G 2
  20875742.711     1600588.507 7   1236354.22923
  20913973.109     -379119.906 6   -291084.39722
  23146276.414    -2371894.945 6  -1799329.84321
  23211225.6954   -3953101.65646  -2970163.06961
 91  4  2 21 40 15.0000000  0  4G18G19G11G 2
  20880128.805     1623635.351 7   1254312.78823
  20913405.109     -382098.454 6   -293405.32022
  23141996.9304   -2394379.63946  -1816850.29461
  23202965.859    -3996502.389 6  -3003981.64121
 91  4  2 21 40 30.0000000  0  4G18G19G11G 2
  20884532.953     1646784.636 7   1272351.16223
  20912847.0084    -385046.39246   -295702.38962
  23137741.9844   -2416748.03446  -1834280.12061
  23194716.250    -4039854.247 6  -3037762.12921
 91  4  2 21 40 45.0000000  0  4G18G19G11G 2
  20888957.1724    1670030.89247   1290465.09963
  20912287.875     -387969.037 6   -297979.74722
  23133505.727    -2439005.192 6  -1851623.28021
  23186475.9224   -4083162.36846  -3071508.55161
 91  4  2 21 41  0.0000000  0  4G18G19G11G 2
  20893399.6724    1693375.40447   1308655.60163
  20911737.461     -390864.863 6   -300236.21222
  23129291.852    -2461149.246 6  -1868878.30521
  23178242.2034   -4126425.01946  -3105219.52561
 91  4  2 21 41 15.0000000  0  4G18G19G11G 2
  20897861.2584    1716820.20947   1326924.24963
  20911191.195     -393731.656 6   -302470.05022
  23125099.164    -2483177.734 6  -1886043.27921
  23170019.6094   -4169639.92446  -3138893.30461
 91  4  2 21 41 30.0000000  0  4G18G19G11G 2
  20902340.9844    1740365.35647   1345271.09063
  20910653.336     -396569.427 6   -304681.28422
  23120930.102    -2505090.501 6  -1903118.07421
  23161804.3364   -4212807.09446  -3172529.88361
 91  4  2 21 41 45.0000000  0  4G18G19G11G 2
  20906840.641     1764008.394 7   1363694.21323
  20910116.086     -399380.501 6   -306871.70422
  23116781.273    -2526889.588 6  -1920104.29121
  23153598.6414   -4255928.53746  -3206130.83761
 91  4  2 21 42  0.0000000  0  4G18G19G11G 2
  20911358.2734    1787747.45347   1382192.15063
  20909590.289     -402166.679 6   -309042.73622
  23112654.7814   -2548576.49146  -1937003.07961
  23145399.891    -4299005.905 6  -3239697.44321
 91  4  2 21 42 15.0000000  0  4G18G19G11G 2
  20915893.773     1811582.353 7   1400764.77223
  20909060.680     -404927.850 6   -311194.27522
  23108548.047    -2570150.964 6  -1953814.27421
  23137211.1484   -4342039.31146  -3273229.78861
 91  4  2 21 42 30.0000000  0  4G18G19G11G 2
  20920448.281     1835514.061 7   1419412.83423
  20908543.4384    -407662.87346   -313325.43462
  23104464.6414   -2591611.72146  -1970536.85061
  23129031.3594   -4385027.58146  -3306726.97461
 91  4  2 21 42 45.0000000  0  4G18G19G11G 2
  20925020.6334    1859541.92247   1438135.81763
  20908024.672     -410372.463 6   -315436.78022
  23100402.555    -2612959.254 6  -1987171.20821
  23120857.734    -4427971.374 6  -3340189.49521
 91  4  2 21 43  0.0000000  0  4G18G19G11G 2
  20929612.648     1883671.954 7   1456938.41623
  20907519.5704    -413050.38846   -317523.44662
  23096362.8204   -2634186.98446  -2003712.20861
  23112696.8284   -4470864.09546  -3373612.21761
 91  4  2 21 43 15.0000000  0  4G18G19G11G 2
  20934222.1884    1907899.93647   1475817.33863
  20907010.703     -415700.553 6   -319588.48922
  23092344.336    -2655298.684 6  -2020162.79821
  23104542.6094   -4513709.84146  -3406998.34661
 91  4  2 21 43 30.0000000  0  4G18G19G11G 2
  20938851.7504    1932226.13347   1494772.78763
  20906511.922     -418322.643 6   -321631.65122
  23088350.297    -2676293.749 6  -2036522.51521
  23096399.273    -4556508.001 6  -3440347.39121
 91  4  2 21 43 45.0000000  0  4G18G19G11G 2
  20943499.195     1956650.846 7   1513805.00723
  20906018.422     -420916.585 6   -323652.87922
  23084376.5554   -2697171.68546  -2052790.95561
  23088264.188    -4599258.351 6  -3473659.18721
 91  4  2 21 44  0.0000000  0  4G18G19G11G 2
  20948165.500     1981171.776 7   1532912.19723
  20905529.633     -423484.070 6   -325653.49922
  23080426.836    -2717934.050 6  -2068969.34621
  23080137.797    -4641962.454 6  -3506934.94421
 91  4  2 21 44 15.0000000  0  4G18G19G11G 2
  20952850.648     2005790.361 7   1552095.48723
  20905046.281     -426023.581 6   -327632.31622
  23076496.8284   -2738579.16946  -2085056.36961
  23072018.984    -4684618.895 6  -3540173.56621
 91  4  2 21 44 30.0000000  0  4G18G19G11G 2
  20957552.313     2030502.189 7   1571351.43223
  20904571.164     -428539.653 6   -329592.87422
  23072590.8134   -2759111.35546  -2101055.40161
  23063910.516    -4727232.029 6  -3573378.44021
 91  4  2 21 44 45.0000000  0  4G18G19G11G 2
  20962274.453     2055313.129 7   1590684.60823
  20904093.820     -431026.000 6   -331530.26922
  23068705.977    -2779524.137 6  -2116961.39521
  23055812.1484   -4769795.62846  -3606544.72361
 91  4  2 21 45  0.0000000  0  4G18G19G11G 2
  20967015.430     2080225.986 7   1610097.20023
  20903627.039     -433480.179 6   -333442.59222
  23064844.398    -2799814.794 6  -2132772.22221
  23047721.133    -4812306.953 6  -3639670.26821
 91  4  2 21 45 15.0000000  0  4G18G19G11G 2
  20971774.672     2105241.149 7   1629589.51023
  20903167.195     -435901.165 6   -335329.05222
  23061006.602    -2819982.066 6  -2148486.90421
  23039641.9924   -4854764.86446  -3672754.19761
 91  4  2 21 45 30.0000000  0  4G18G19G11G 2
  20976555.742     2130360.199 7   1649162.77223
  20902713.250     -438287.235 6   -337188.30122
  23057193.711    -2840024.163 6  -2164104.04721
  23031571.734    -4897167.724 6  -3705795.22621
 91  4  2 21 45 45.0000000  0  4G18G19G11G 2
  20981354.359     2155580.482 7   1668814.91523
  20902263.539     -440640.866 6   -339022.27722
  23053402.8524   -2859943.24746  -2179625.34661
  23023514.3364   -4939517.87546  -3738795.18561
 91  4  2 21 46  0.0000000  0  4G18G19G11G 2
  20986173.914     2180906.750 7   1688549.64323
  20901825.336     -442957.363 6   -340827.31522
  23049636.289    -2879734.547 6  -2195047.07121
  23015465.695    -4981810.833 6  -3771750.57821
 91  4  2 21 46 15.0000000  0  4G18G19G11G 2
  20991013.172     2206335.787 7   1708364.45623
  20901389.844     -445239.648 6   -342605.69422
  23045894.2274   -2899400.60646  -2210371.21661
  23007428.6094   -5024049.27246  -3804663.48561
 91  4  2 21 46 30.0000000  0  4G18G19G11G 2
  20995872.7194    2231873.14847   1728263.67363
  20900964.563     -447482.280 6   -344353.17822
  23042177.1254   -2918935.65846  -2225593.26961
  22999401.3364   -5066227.50446  -3837529.47761
 91  4  2 21 46 45.0000000  0  4G18G19G11G 2
  21000753.828     2257520.806 7   1748248.84023
  20900544.3444    -449683.04346   -346068.02662
  23038485.1414   -2938337.40046  -2240711.44561
  22991387.281    -5108343.381 6  -3870346.88621
 91  4  2 21 47  0.0000000  0  4G18G19G11G 2
  21005656.5634    2283286.15547   1768325.71063
  20900135.445     -451834.250 6   -347744.26522
  23034819.3134   -2957598.02646  -2255719.65461
  22983385.7424   -5150389.27146  -3903109.76161
 91  4  2 21 47 15.0000000  0  4G18G19G11G 2
  21010582.680     2309173.566 7   1788497.69423
  20899736.039     -453931.303 6   -349378.30722
  23031181.0944   -2976712.53546  -2270614.01361
  22975399.0944   -5192360.20646  -3935814.22961
 91  4  2 21 47 30.0000000  0  4G18G19G11G 2
  21015533.430     2335187.965 7   1808768.63123
  20899349.9924    -455969.08746   -350966.16162
  23027573.9614   -2995675.82246  -2285390.53861
  22967427.4924   -5234251.15346  -3968456.36361
 91  4  2 21 47 45.0000000  0  4G18G19G11G 2
  21020508.391     2361335.330 7   1829143.17823
  20898973.281     -457941.707 6   -352503.24422
  23023995.0704   -3014481.88446  -2300044.54761
  22959471.008    -5276056.200 6  -4001031.56321
 91  4  2 21 48  0.0000000  0  4G18G19G11G 2
  21025512.844     2387632.293 7   1849634.30023
  20898613.6174    -459832.29046   -353976.39462
  23020448.3674   -3033113.56146  -2314562.66661
  22951535.2974   -5317758.31846  -4033526.55961
 91  4  2 21 48 15.0000000  0  4G18G19G11G 2
  21030546.563     2414086.297 7   1870247.78323
  20898268.9534    -461633.29246   -355379.74762
  23016938.172    -3051562.990 6  -2328938.80221
  22943621.0474   -5359349.81946  -4065935.36861
 91  4  2 21 48 30.0000000  0  4G18G19G11G 2
  21035613.719     2440709.140 7   1890992.83323
  20897947.109     -463332.744 6   -356703.97122
  23013464.227    -3069818.019 6  -2343163.44121
  22935729.3914   -5400818.76846  -4098248.68061
 91  4  2 21 48 45.0000000  0  4G18G19G11G 2
  21040713.414     2467507.822 7   1911874.90223
  20897643.570     -464923.397 6   -357943.41822
  23010028.9224   -3087871.11246  -2357230.72361
  22927862.820    -5442157.678 6  -4130460.65321
 91  4  2 21 49  0.0000000  0  4G18G19G11G 2
  21045849.000     2494500.403 7   1932908.05523
  20897367.359     -466387.100 6   -359083.94022
  23006635.828    -3105703.933 6  -2371126.37921
  22920024.2194   -5483348.27646  -4162557.06261
 91  4  2 21 49 15.0000000  0  4G18G19G11G 2
  21051025.914     2521701.279 7   1954103.52023
  20897112.500     -467709.194 6   -360114.12222
  23003287.445    -3123301.873 6  -2384839.00321
  22912216.188    -5524376.239 6  -4194526.74521
 91  4  2 21 49 30.0000000  0  4G18G19G11G 2
  21056243.469     2549125.608 7   1975473.09823
  20896893.086     -468874.415 6   -361022.06622
  22999985.0394   -3140649.34046  -2398356.45761
  22904442.7894   -5565226.05346  -4226357.61161
 91  4  2 21 49 45.0000000  0  5G18G19G11G16G 2
  21061509.758     2576793.434 7   1997032.41623
  20896703.023     -469862.563 6   -361792.02622
  22996736.2034   -3157725.88546  -2411662.80261
  24259269.2664         -0.76155
  22896707.570    -5605877.403 6  -4258033.82621
 91  4  2 21 50  0.0000000  0  5G18G19G11G16G 2
  21066824.281     2604723.083 7   2018795.75723
  20896552.820     -470655.112 6   -362409.57522
  22993541.8674   -3174512.85546  -2424743.49761
  24255237.5314     -21178.94644
  22889012.070    -5646311.658 6  -4289540.87821
 91  4  2 21 50 15.0000000  0  5G18G19G11G16G 2
  21072193.094     2632937.634 7   2040781.09523
  20896444.688     -471228.712 6   -362856.51222
  22990405.242    -3190986.794 6  -2437580.27921
  24251264.8754     -42055.26444
  22881364.3054   -5686505.39546  -4320860.51361
 91  4  2 21 50 30.0000000  0  5G18G19G11G16G 2
  21077621.648     2661460.392 7   2063006.59923
  20896383.0314    -471559.93146   -363114.58262
  22987335.2034   -3207124.02046  -2450154.67861
  24247352.1884     -62605.65144
  22873765.727    -5726435.207 6  -4351974.49021
 91  4  2 21 50 45.0000000  0  5G18G19G11G16G 2
  21083111.633     2690313.043 7   2085489.16023
  20896367.484     -471627.036 6
  22984334.313    -3222902.596 6  -2462449.61921
  24243508.352      -82808.519 4
  22866222.219    -5766079.316 6  -4382865.83921
 91  4  2 21 51  0.0000000  0  5G18G19G11G16G 2
  21088665.977     2719500.231 7   2108232.39823
  20896406.305     -471425.298 6
  22981399.6644   -3238317.79446  -2474461.40761
  24239734.8984    -102658.87044
  22858731.406    -5805432.991 6  -4413530.88121
 91  4  2 21 51 15.0000000  0  5G18G19G11G16G 2
  21094284.672     2749030.632 7   2131243.08023
  20896497.5704    -470945.62746
  22978537.2344   -3253360.25946  -2486182.75861
  24236024.8984    -122147.73444        -0.24371
  22851300.203    -5844487.057 6  -4443962.46421
 91  4  2 21 51 30.0000000  0  5G18G19G11G16G 2
  21099970.758     2778911.136 7   2154526.55723
  20896643.805     -470180.898 6   -362039.92222
  22975747.5784   -3268022.63646  -2497607.93061
  24232385.4304    -141267.93444    -14899.09961
  22843925.820    -5883234.173 6  -4474154.86221
 91  4  2 21 51 45.0000000  0  5G18G19G11G16G 2
  21105722.711     2809134.808 7   2178077.44623
  20896840.984     -469137.880 6   -361227.15822
  22973027.039    -3282311.687 6  -2508742.20721
  24228815.6094    -160026.03944    -29515.82261
  22836611.258    -5921681.304 6  -4504113.50021
 91  4  2 21 52  0.0000000  0  5G18G19G11G16G 2
  21111536.109     2839686.944 7   2201884.28123
  20897090.9534    -467831.39146   -360209.09062
  22970377.266    -3296241.816 6  -2519596.80321
  24225312.6724    -178436.84444    -43861.91261
  22829349.1954   -5959842.97946  -4533849.71361
 91  4  2 21 52 15.0000000  0  5G18G19G11G16G 2
  21117410.5314    2870552.21747   2225935.11363
  20897386.5784    -466276.56646   -358997.51062
  22967790.9384   -3309828.00546  -2530183.37861
  24221873.203     -196515.412 5    -57949.14021
  22822137.336    -5997734.342 6  -4563375.29021
 91  4  2 21 52 30.0000000  0  5G18G19G11G16G 2
  21123338.250     2901705.494 7   2250210.36423
  20897726.344     -464498.307 6   -357611.83622
  22965265.656    -3323095.014 6  -2540521.26221
  24218493.281     -214286.675 5    -71796.87121
  22814973.656    -6035380.408 6  -4592709.72321
 91  4  2 21 52 45.0000000  0  5G18G19G11G16G 2
  21129316.8054    2933122.21947   2274690.89863
  20898100.6884    -462520.87646   -356070.95462
  22962797.8524   -3336066.83646  -2550629.11861
  24215162.984     -231774.662 5    -85423.89621
  22807851.586    -6072804.911 6  -4621871.51421
 91  4  2 21 53  0.0000000  0  5G18G19G11G16G 2
  21135339.523     2964770.125 7   2299351.57723
  20898510.359     -460376.374 6   -354399.89222
  22960380.695    -3348775.520 6  -2560531.93221
  24211882.1564    -249011.51045    -98855.19761
  22800765.813    -6110040.323 6  -4650885.95321
 91  4  2 21 53 15.0000000  0  5G18G19G11G16G 2
  21141399.5704    2996618.82447   2324168.71263
  20898942.773     -458095.104 6   -352622.25622
  22958005.141    -3361251.365 6  -2570253.32821
  24208643.4614    -266027.53845   -112114.45361
  22793711.336    -6147116.823 6  -4679776.56821
 91  4  2 21 53 30.0000000  0  5G18G19G11G16G 2
  21147495.2664    3028647.63947   2349126.20063
  20899399.938     -455697.370 6   -350753.87122
  22955671.6884   -3373514.44846  -2579808.92061
  24205444.7504    -282842.75345   -125217.25461
  22786681.828    -6184054.674 6  -4708559.15121
 91  4  2 21 53 45.0000000  0  5G18G19G11G16G 2
  21153617.7664    3060828.87547   2374202.46163
  20899872.625     -453210.593 6   -348816.10222
  22953373.6334   -3385591.94746  -2589219.90061
  24202275.8524    -299484.83845   -138185.10261
  22779673.336    -6220881.267 6  -4737255.02821
 91  4  2 21 54  0.0000000  0  5G18G19G11G16G 2
  21159768.1484    3093140.95947   2399380.67163
  20900360.773     -450656.339 6   -346825.75422
  22951106.734    -3397505.292 6  -2598502.98221
  24199138.2894    -315975.29245   -151034.82461
  22772682.6564   -6257618.18046  -4765881.03761
 91  4  2 21 54 15.0000000  0  5G18G19G11G16G 2
  21165936.6174    3125562.18747   2424643.93463
  20900853.781     -448055.888 6   -344799.40222
  22948867.609    -3409275.636 6  -2607674.62921
  24196024.6884    -332335.16345   -163782.78861
  22765704.938    -6294286.477 6  -4794453.56821
 91  4  2 21 54 30.0000000  0  5G18G19G11G16G 2
  21172123.6254    3158071.99147   2449976.22162
  20901356.625     -445429.803 6   -342753.08222
  22946648.836    -3420923.373 6  -2616750.73921
  24192934.8364    -348585.15245   -176445.12161
  22758736.695    -6330906.624 6  -4822988.57621
 91  4  2 21 54 45.0000000  0  5G18G19G11G16G 2
  21178325.3364    3190661.00947   2475370.23162
  20901854.570     -442787.274 6   -340693.94822
  22944455.133    -3432457.736 6  -2625738.49921
  24189861.4844    -364734.27545   -189028.89561
  22751775.789    -6367488.017 6  -4851493.39821
 91  4  2 21 55  0.0000000  0  5G18G19G11G16G 2
  21184540.1094    3223324.07647   2500821.94163
  20902364.180     -440133.432 6   -338625.99922
  22942281.188    -3443883.685 6  -2634641.78721
  24186806.914     -380787.710 5   -201538.05321
  22744819.563    -6404035.782 6  -4879972.01021
 91  4  2 21 55 15.0000000  0  5G18G19G11G16G 2
  21190767.6174    3256047.73247   2526320.85462
  20902865.539     -437481.367 6   -336559.42822
  22940124.859    -3455213.994 6  -2643470.55021
  24183766.984     -396758.338 5   -213982.73221
  22737868.305    -6440562.685 6  -4908434.36021
 91  4  2 21 55 30.0000000  0  5G18G19G11G16G 2
  21197006.2114    3288830.49647   2551865.83162
  20903372.734     -434832.197 6   -334495.11522
  22937987.625    -3466449.435 6  -2652225.38421
  24180743.641     -412647.058 5   -226363.56121
  22730921.203    -6477069.887 6  -4936881.37021
 91  4  2 21 55 45.0000000  0  5G18G19G11G16G 2
  21203254.8524    3321668.31047   2577453.69962
  20903871.438     -432189.882 6   -332436.14422
  22935865.820    -3477594.151 6  -2660909.53321
  24177735.5704    -428458.21745   -238683.96661
  22723976.523    -6513561.341 6  -4965316.09721
 91  4  2 21 56  0.0000000  0  5G18G19G11G16G 2
  21209513.9844    3354557.05247   2603081.24862
  20904372.844     -429558.415 6   -330385.63022
  22933762.367    -3488652.071 6  -2669526.03421
  24174741.055     -444195.834 5   -250947.06321
  22717035.945    -6550041.188 6  -4993741.78421
 91  4  2 21 56 15.0000000  0  5G18G19G11G16G 2
  21215781.5234    3387498.47947   2628749.86262
  20904871.664     -426935.650 6   -328341.89422
  22931674.4144   -3499620.85146  -2678073.09161
  24171761.0084    -459857.48944   -263150.96361
  22710095.703    -6586506.996 6  -5022156.52821
 91  4  2 21 56 30.0000000  0  5G18G19G11G16G 2
  21222059.8364    3420486.18847   2654454.53063
  20905367.555     -424328.290 6   -326310.16222
  22929603.828    -3510506.852 6  -2686555.63621
  24168791.3054    -475449.80644   -275300.83061
  22703158.938    -6622965.358 6  -5050565.47721
 91  4  2 21 56 45.0000000  0  5G18G19G11G16G 2
  21228344.9694    3453515.51347   2680191.63262
  20905860.477     -421740.485 6   -324293.66922
  22927545.859    -3521314.160 6  -2694976.86921
  24165836.813     -490976.932 4   -287399.92421
  22696219.836    -6659420.344 6  -5078971.78621
 91  4  2 21 57  0.0000000  0  5G18G19G11G16G 2
  21234639.4224    3486594.86947   2705967.71662
  20906354.297     -419163.562 6   -322285.66022
  22925506.477    -3532033.955 6  -2703329.90321
  24162898.6954    -506430.22845   -299441.47661
  22689286.4384   -6695863.18446  -5107368.62761
 91  4  2 21 57 15.0000000  0  5G18G19G11G16G 2
  21240944.4064    3519725.91447   2731784.08262
  20906839.563     -416595.861 6   -320284.83322
  22923483.586    -3542664.465 6  -2711613.36621
  24159972.117     -521807.880 5   -311424.07221
  22682354.297    -6732292.493 6  -5135754.92821
 91  4  2 21 57 30.0000000  0  5G18G19G11G16G 2
  21247258.6724    3552905.31047   2757638.12162
  20907327.164     -414040.254 6   -318293.43022
  22921475.883    -3553208.410 6  -2719829.38221
  24157061.1804    -537112.76645   -323349.98161
  22675423.211    -6768710.947 6  -5164132.77721
 91  4  2 21 57 45.0000000  0  5G18G19G11G16G 2
  21253581.7114    3586134.14347   2783530.68062
  20907809.867     -411495.391 6   -316310.40222
  22919487.328    -3563664.483 6  -2727976.91321
  24154161.2814    -552343.49045   -335218.09461
  22668495.203    -6805117.362 6  -5192501.23421
 91  4  2 21 58  0.0000000  0  5G18G19G11G16G 2
  21259914.4384    3619415.36547   2809464.06262
  20908293.281     -408958.316 6   -314333.44322
  22917514.133    -3574029.476 6  -2736053.48421
  24151273.719     -567497.040 5   -347026.08121
  22661570.133    -6841508.588 6  -5220857.86521
 91  4  2 21 58 15.0000000  0  5G18G19G11G16G 2
  21266258.6724    3652756.53047   2835444.14462
  20908775.172     -406421.380 6   -312356.59622
  22915560.641    -3584295.601 6  -2744053.02021
  24148409.2974    -582566.01945   -358768.16261
  22654648.898    -6877876.925 6  -5249196.66221
 91  4  2 21 58 30.0000000  0  5G18G19G11G16G 2
  21272615.6804    3686158.79247   2861471.84362
  20909260.133     -403882.953 6   -310378.58422
  22913626.805    -3594461.165 6  -2751974.18821
  24145557.3054    -597548.63745   -370442.93261
  22647733.656    -6914220.822 6  -5277516.41021
 91  4  2 21 58 45.0000000  0  5G18G19G11G16G 2
  21278983.1484    3719618.74147   2887544.49162
  20909741.289     -401346.124 6   -308401.82322
  22911709.695    -3604529.326 6  -2759819.45621
  24142722.102     -612448.227 5   -382053.03721
  22640820.930    -6950543.407 6  -5305819.55221
 91  4  2 21 59  0.0000000  0  5G18G19G11G16G 2
  21285360.0944    3753129.92647   2913657.06062
  20910223.617     -398817.317 6   -306431.31222
  22909812.391    -3614506.170 6  -2767593.57721
  24139904.8984    -627270.77245   -393603.09461
  22633911.680    -6986850.970 6  -5334110.98421
 91  4  2 21 59 15.0000000  0  5G18G19G11G16G 2
  21291747.914     3786697.057 7   2939813.22122
  20910703.070     -396291.438 6   -304463.08122
  22907931.281    -3624386.585 6  -2775292.55221
  24137101.211     -642011.450 5   -405089.37321
  22627006.266    -7023138.379 6  -5362386.72421
 91  4  2 21 59 30.0000000  0  5G18G19G11G16G 2
  21298146.109     3820322.880 7   2966015.11922
  20911185.539     -393765.771 6   -302495.01122
  22906071.1724   -3634167.58846  -2782914.06061
  24134310.2734    -656667.33245   -416509.56961
  22620105.320    -7059402.829 6  -5390644.57521
 91  4  2 21 59 45.0000000  0  5G18G19G11G16G 2
  21304556.047     3854010.433 7   2992265.12322
  20911664.875     -391237.203 6   -300524.68722
  22904229.375    -3643845.955 6  -2790455.59821
  24131537.4774    -671235.26545   -427861.23361
  22613209.641    -7095641.212 6  -5418882.10921
 91  4  2 22  0  0.0000000  0  5G18G19G11G16G 2
  21310979.4384    3887759.93547   3018563.39662
  20912149.750     -388705.300 6   -298551.76222
  22902406.680    -3653421.191 6  -2797916.76921
  24128781.617     -685714.831 5   -439144.04721
  22606317.516    -7131853.100 6  -5447098.99721
 91  4  2 22  0 15.0000000  0  5G18G19G11G16G 2
  21317413.0234    3921569.94847   3044908.81862
  20912630.391     -386170.920 6   -296576.91222
  22900603.766    -3662894.055 6  -2805298.18221
  24126042.3204    -700106.78145   -450358.58461
  22599432.727    -7168039.091 6  -5475295.71021
 91  4  2 22  0 30.0000000  0  5G18G19G11G16G 2
  21323859.4924    3955446.16647   3071305.82962
  20913115.1334    -383628.25046   -294595.59962
  22898821.938    -3672258.468 6  -2812595.07721
  24123322.4844    -714405.40745   -461500.41261
  22592552.063    -7204193.422 6  -5503467.75421
 91  4  2 22  0 45.0000000  0  5G18G19G11G16G 2
  21330318.2274    3989388.65847   3097754.48562
  20913600.2424    -381077.06746   -292607.65762
  22897061.695    -3681514.331 6  -2819807.39621
  24120619.6724    -728610.44745   -472569.31161
  22585678.000    -7240315.896 6  -5531614.97921
 91  4  2 22  1  0.0000000  0  6G18G19G11G16G 2G 6
  21336790.297     4023398.024 7   3124255.24722
  20914087.8134    -378516.38746   -290612.31162
  22895320.328    -3690660.619 6  -2826934.32621
  24117934.555     -742721.098 5   -483564.65121
  22578810.3754   -7276405.66446  -5559736.71161
  24407026.9224         -0.53254
 91  4  2 22  1 15.0000000  0  6G18G19G11G16G 2G 6
  21343274.859     4057476.268 7   3150809.67722
  20914577.3754    -375944.05746   -288607.89362
  22893600.945    -3699695.187 6  -2833974.19821
  24115265.242     -756735.424 5   -494484.94721
  22571948.844    -7312460.730 6  -5587831.40721
  24400896.8054     -32192.03544
 91  4  2 22  1 30.0000000  0  6G18G19G11G16G 2G 6
  21349773.531     4091623.462 7   3177417.83422
  20915071.172     -373359.991 6   -286594.32422
  22891903.664    -3708617.707 6  -2840926.76721
  24112618.7664    -770653.00945   -505329.86361
  22565093.8754   -7348480.65946  -5615898.72061
  24394770.281      -64411.498 3
 91  4  2 22  1 45.0000000  0  6G18G19G11G16G 2G 6
  21356284.141     4125840.082 7   3204080.08222
  20915563.0004    -370763.27646   -284570.89962
  22890225.945    -3717427.033 6  -2847791.13121
  24109992.297     -784472.889 5   -516098.63521
  22558247.492    -7384464.449 6  -5643937.88821
  24388627.727      -96657.946 4
 91  4  2 22  2  0.0000000  0  6G18G19G11G16G 2G 6
  21362809.3054    4160126.88747   3230797.03362
  20916059.9454    -368152.71446   -282536.69062
  22888572.438    -3726122.166 6  -2854566.51021
  24107378.2194    -798194.10045   -526790.55961
  22551407.1414   -7420411.15946  -5671948.15361
  24382490.9304    -128930.58243        -0.30071
 91  4  2 22  2 15.0000000  0  6G18G19G11G16G 2G 6
  21369346.7584    4194485.32847   3257569.80162
  20916559.7584    -365526.77146   -280490.49162
  22886939.117    -3734701.418 6  -2861251.60321
  24104785.4224    -811815.03345   -537404.31161
  22544573.3364   -7456319.08946  -5699928.20261
  24376342.430     -161228.015 3    -25166.92821
 91  4  2 22  2 30.0000000  0  6G18G19G11G16G 2G 6
  21375899.094     4228920.504 7   3284402.35722
  20917062.1954    -362880.18146   -278428.20662
  22885329.7734   -3743159.25846  -2867842.08061
  24102214.125     -825330.244 5   -547935.69021
  22537748.0084   -7492182.84546  -5727873.83561
  24370193.172     -193544.834 3    -50348.58721
 91  4  2 22  2 45.0000000  0  6G18G19G11G16G 2G 6
  21382467.297     4263428.470 7   3311291.62722
  20917569.5394    -360216.96646   -276352.96562
  22883742.453    -3751499.518 6  -2874340.94821
  24099663.469     -838743.729 5   -558387.80121
  22530931.609    -7528006.587 6  -5755788.28321
  24364042.352     -225885.184 3    -75548.63921
 91  4  2 22  3  0.0000000  0  6G18G19G11G16G 2G 6
  21389048.180     4298010.936 7   3338238.95522
  20918080.7814    -357534.78646   -274262.95062
  22882178.047    -3759719.922 6  -2880746.41021
  24097127.9694    -852053.38245   -568758.99861
  22524122.0944   -7563787.93846  -5783669.69461
  24357882.141     -258246.944 3   -100765.38121
 91  4  2 22  3 15.0000000  0  6G18G19G11G16G 2G 6
  21395642.859     4332672.009 7   3365247.53322
  20918595.4534    -354829.58346   -272154.99662
  22880637.1094   -3767816.32046  -2887055.25861
  24094616.891     -865254.874 5   -579045.93221
  22517323.3524   -7599522.70746  -5811514.82061
  24351715.992     -290625.995 3   -125995.53021
 91  4  2 22  3 30.0000000  0  6G18G19G11G16G 2G 6
  21402252.750     4367407.371 7   3392313.99822
  20919113.7664    -352105.35246   -270032.21162
  22879119.992    -3775792.654 6  -2893270.53721
  24092126.1484    -878352.48245   -589251.90361
  22510530.1954   -7635214.97746  -5839326.82761
  24345553.203     -323026.597 3   -151242.52821
 91  4  2 22  3 45.0000000  0  6G18G19G11G16G 2G 6
  21408877.133     4402217.537 7   3419438.75022
  20919635.3054    -349361.12846   -267893.84862
  22877625.3984   -3783647.83946  -2899391.42861
  24089652.2034    -891345.00945   -599376.00261
  22503745.9454   -7670863.55746  -5867104.79261
  24339382.336     -355447.824 3   -176505.59221
 91  4  2 22  4  0.0000000  0  6G18G19G11G16G 2G 6
  21415516.359     4437102.052 7   3446621.44222
  20920160.8444    -346597.40146   -265740.29162
  22876152.8674   -3791382.40046  -2905418.31761
  24087200.227     -904233.155 5   -609418.76321
  22496970.5634   -7706469.21146  -5894849.30561
  24333206.133     -387890.291 3   -201785.19921
 91  4  2 22  4 15.0000000  0  6G18G19G11G16G 2G 6
  21422169.508     4472065.218 7   3473865.41522
  20920691.2974    -343809.42646   -263567.83362
  22874705.2194   -3798991.31846  -2911347.31161
  24084767.953     -917011.981 5   -619376.33821
  22490203.5784   -7742026.96746  -5922556.49961
  24327029.5704    -420349.39943   -227077.78161
 91  4  2 22  4 30.0000000  0  6G18G19G11G16G 2G 6
  21428837.672     4507107.744 7   3501171.23222
  20921226.6254    -340996.44746   -261375.89362
  22873282.2274   -3806473.77746  -2917177.76061
  24082355.7194    -929680.97045   -629248.30861
  22483447.5704   -7777536.19546  -5950225.87361
  24320849.3984    -452824.48743   -252382.79761
 91  4  2 22  4 45.0000000  0  6G18G19G11G16G 2G 6
  21435520.4224    4542225.48247   3528535.64462
  20921766.4924    -338162.23646   -259167.41062
  22871880.4144   -3813833.54646  -2922912.60461
  24079964.047     -942243.980 5   -639037.73321
  22476698.3204   -7813000.55646  -5977860.29061
  24314667.0634    -485319.44743   -277703.31061
 91  4  2 22  5  0.0000000  0  6G18G19G11G16G 2G 6
  21442218.859     4577424.022 7   3555963.02422
  20922310.1254    -335300.80846   -256937.71762
  22870504.2114   -3821064.74546  -2928547.27361
  24077596.688     -954695.106 5   -648739.95321
  22469958.9844   -7848414.27146  -6005455.24461
  24308484.273     -517828.472 3   -303034.79621
 91  4  2 22  5 15.0000000  0  6G18G19G11G16G 2G 6
  21448931.438     4612696.865 7   3583448.30222
  20922860.0004    -332418.38446   -254691.66562
  22869152.4774   -3828173.50646  -2934086.53661
  24075248.7974    -967040.37945   -658359.69261
  22463228.641    -7883783.472 6  -6033015.51621
  24302291.0704    -550357.97343   -328382.21361
 91  4  2 22  5 30.0000000  0  6G18G19G11G16G 2G 6
  21455657.422     4648046.681 7   3610993.56022
  20923413.7814    -329512.50546   -252427.33962
  22867823.4534   -3835157.04746  -2939528.21661
  24072920.023     -979277.204 5   -667894.93021
  22456507.1174   -7919105.63946  -6060539.12861
  24296101.1094    -582905.35843   -353743.57961
 91  4  2 22  5 45.0000000  0  6G18G19G11G16G 2G 6
  21462399.094     4683472.165 7   3638597.78122
  20923970.1024    -326583.94446   -250145.33462
  22866517.3754   -3842016.18046  -2944872.96261
  24070609.8834    -991406.52545   -677346.39761
  22449793.2734   -7954381.51646  -6088026.68161
  24289898.883     -615471.531 3   -379119.57221
 91  4  2 22  6  0.0000000  0  6G18G19G11G16G 2G 6
  21469155.6724    4718974.28147   3666261.70662
  20924531.4064    -323631.27446   -247844.54762
  22865235.7734   -3848749.45946  -2950119.63461
  24068323.6094   -1003427.05945   -686713.09961
  22443089.711    -7989609.633 6  -6115477.01121
  24283695.8834    -648055.28243   -404509.25861
 91  4  2 22  6 15.0000000  0  6G18G19G11G16G 2G 6
  21475925.7424    4754558.71647   3693989.78162
  20925099.6884    -320649.00946   -245520.69462
  22863980.8284   -3855351.20946  -2955263.81961
  24066056.539    -1015333.568 5   -695990.95421
  22436395.2664   -8024784.35646  -6142885.74361
  24277496.453     -680651.143 3   -429908.40921
 91  4  2 22  6 30.0000000  0  6G18G19G11G16G 2G 6
  21482712.5234    4790222.17947   3721779.43262
  20925672.6484    -317639.94646   -243175.96562
  22862747.4534   -3861824.41646  -2960307.84961
  24063813.5784   -1027128.70645   -705182.02861
  22429711.8914   -8059908.71446  -6170255.22161
  24271294.9774    -713262.13643   -455319.32061
 91  4  2 22  6 45.0000000  0  6G18G19G11G16G 2G 6
  21489514.4304    4825962.93647   3749629.31562
  20926249.3444    -314605.60346   -240811.53662
  22861540.9304   -3868170.40046  -2965252.73961
  24061588.8914   -1038813.87245   -714287.38061
  22423038.3594   -8094984.04846  -6197586.50261
  24265080.2194    -745889.79243   -480743.25161
 91  4  2 22  7  0.0000000  0  6G18G19G11G16G 2G 6
  21496331.5234    4861784.67047   3777542.29362
  20926834.9924    -311542.20146   -238424.47162
  22860356.8054   -3874385.33746  -2970095.51561
  24059386.9304   -1050385.42745   -723304.25461
  22416372.8674   -8130006.69146  -6224876.72861
  24258871.4224    -778530.45143   -506177.27161
 91  4  2 22  7 15.0000000  0  6G18G19G11G16G 2G 6
  21503162.6884    4897687.23147   3805518.25162
  20927421.7734    -308449.37446   -236014.47262
  22859199.5704   -3880468.89646  -2974835.91861
  24057207.211    -1061843.099 5   -732232.34921
  22409718.6884   -8164976.34746  -6252125.65561
  24252654.3134    -811183.99443   -531621.36161
 91  4  2 22  7 30.0000000  0  6G18G19G11G16G 2G 6
  21510008.2664    4933664.79947   3833552.65862
  20928014.4454    -305332.63046   -233585.83662
  22858066.1414   -3886426.40046  -2979478.09861
  24055048.2734   -1073192.33745   -741075.97461
  22403072.7274   -8199898.40846  -6279337.50761
  24246439.0394    -843855.99144   -557079.83861
 91  4  2 22  7 45.0000000  0  6G18G19G11G16G 2G 6
  21516871.4774    4969721.28447   3861648.55662
  20928610.9534    -302188.13946   -231135.57862
  22856958.2114   -3892254.04346  -2984019.08561
  24052906.9454   -1084429.34745   -749832.13561
  22396436.9384   -8234769.11146  -6306509.33561
  24240220.0084    -876542.67544   -582549.72161
 91  4  2 22  8  0.0000000  0  6G18G19G11G16G 2G 6
  21523748.1484    5005861.61747   3889809.78962
  20929220.0164    -299010.52846   -228659.51562
  22855874.7974   -3897946.52646  -2988454.76161
  24050792.891    -1095548.774 5   -758496.66421
  22389812.3134   -8269583.10746  -6333636.97461
  24233999.4304    -909238.85844   -608027.04061
 91  4  2 22  8 15.0000000  0  6G18G19G11G16G 2G 6
  21530639.2894    5042080.81147   3918032.47262
  20929826.8134    -295804.48446   -226161.29762
  22854816.430    -3903508.362 6  -2992788.62921
  24048699.758    -1106555.529 5   -767073.40021
  22383197.7034   -8304345.20346  -6360724.17661
  24227775.859     -941949.276 4   -633515.41621
 91  4  2 22  8 30.0000000  0  6G18G19G11G16G 2G 6
  21537547.6414    5078378.31347   3946316.16662
  20930440.8834    -292570.25746   -223641.11462
  22853782.3984   -3908939.76446  -2997020.86261
  24046625.5314   -1117449.77245   -775562.47061
  22376592.0164   -8339055.53246  -6387771.04161
  24221545.9694    -974674.39944   -659015.28561
 91  4  2 22  8 45.0000000  0  6G18G19G11G16G 2G 6
  21544470.5164    5114753.76647   3974660.60862
  20931062.9924    -289307.96046   -221099.05962
  22852773.8754   -3914240.98946  -3001151.64961
  24044575.3984   -1128231.65845   -783963.98861
  22369996.461    -8373714.213 6  -6414777.66121
  24215315.5634   -1007414.34945   -684526.70161
 91  4  2 22  9  0.0000000  0  6G18G19G11G16G 2G 6
  21551406.9774    5151210.19947   4003068.15162
  20931688.4144    -286014.41346   -218532.65462
  22851790.4534   -3919408.72346  -3005178.42961
  24042546.4844   -1138898.00445   -792275.48661
  22363411.2664   -8408318.02146  -6441741.52461
  24209082.0944   -1040166.13944   -710047.32761
 91  4  2 22  9 15.0000000  0  6G18G19G11G16G 2G 6
  21558360.4774    5187747.83847   4031538.97262
  20932323.3204    -282689.24846   -215941.60862
  22850832.0314   -3924442.48846  -3009100.80961
  24040537.750    -1149448.803 5   -800496.92121
  22356837.414    -8442866.548 6  -6468662.31121
  24202850.7974   -1072929.37545   -735576.89161
 91  4  2 22  9 30.0000000  0  6G18G19G11G16G 2G 6
  21565328.0394    5224364.73447   4060071.55062
  20932962.4304    -279333.68046   -213326.87962
  22849899.5084   -3929343.59146  -3012919.83061
  24038551.992    -1159885.265 5   -808629.27821
  22350272.883    -8477361.122 6  -6495541.05421
  24196611.555    -1105705.543 5   -761116.52921
 91  4  2 22  9 45.0000000  0  6G18G19G11G16G 2G 6
  21572311.4304    5261059.71147   4088664.96662
  20933605.6954    -275948.89346   -210689.37762
  22848992.531    -3934113.006 6  -3016636.23021
  24036586.773    -1170208.330 5   -816673.28321
  22343718.484    -8511802.927 6  -6522378.68821
  24190370.438    -1138495.866 5   -786667.18821
 91  4  2 22 10  0.0000000  0  6G18G19G11G16G 2G 6
  21579310.039     5297836.685 7   4117322.27822
  20934254.9144    -272530.87346   -208025.98262
  22848108.992    -3938746.563 6  -3020246.77321
  24034644.625    -1180414.222 5   -824625.97121
  22337176.0394   -8546187.95046  -6549172.06561
  24184130.102    -1171296.236 5   -812225.68621
 91  4  2 22 10 15.0000000  0  6G18G19G11G16G 2G 6
  21586323.766     5334696.296 7   4146043.97622
  20934912.5004    -269078.65946   -205335.93962
  22847252.742    -3943243.483 6  -3023750.83421
  24032726.742    -1190501.850 5   -832486.50521
  22330643.398    -8580515.174 6  -6575920.41021
  24177885.656    -1204106.034 5   -837791.54321
 91  4  2 22 10 30.0000000  0  6G18G19G11G16G 2G 6
  21593353.758     5371637.843 7   4174829.52222
  20935574.9694    -265592.54346   -202619.47962
  22846424.3204   -3947604.19146  -3027148.75861
  24030826.828    -1200471.801 5   -840255.34121
  22324121.313    -8614785.082 6  -6602624.09421
  24171639.430    -1236925.601 5   -863364.98321
 91  4  2 22 10 45.0000000  0  6G18G19G11G16G 2G 6
  21600398.9064    5408660.48747   4203678.26462
  20936246.4614    -262073.26246   -199877.18262
  22845621.727    -3951829.189 6  -3030440.93921
  24028952.383    -1210324.771 5   -847933.03421
  22317609.734    -8648998.220 6  -6629283.54121
  24165393.438    -1269755.870 5   -888946.77021
 91  4  2 22 11  0.0000000  0  6G18G19G11G16G 2G 6
  21607459.258     5445763.231 7   4232589.41722
  20936921.3134    -258521.34846   -197109.45462
  22844841.938    -3955919.053 6  -3033627.82921
  24027101.4534   -1220061.42845   -855520.09361
  22311110.016    -8683155.175 6  -6655899.21221
  24159142.0784   -1302597.46445   -914537.39161
 91  4  2 22 11 15.0000000  0  6G18G19G11G16G 2G 6
  21614535.367     5482949.154 7   4261565.38322
  20937605.9534    -254933.48046   -194313.70462
  22844090.133    -3959870.425 6  -3036706.79621
  24025268.516    -1229678.481 5   -863013.95021
  22304621.664    -8717252.519 6  -6682468.43121
  24152890.3984   -1335447.08545   -940134.26161
 91  4  2 22 11 30.0000000  0  6G18G19G11G16G 2G 6
  21621628.063     5520218.094 7   4290606.04022
  20938293.4384    -251309.64946   -191489.93862
  22843364.0474   -3963683.28446  -3039677.82961
  24023462.906    -1239175.978 5   -870414.64721
  22298144.000    -8751290.233 6  -6708991.19121
  24146634.203    -1368304.847 5   -965737.49921
 91  4  2 22 11 45.0000000  0  6G18G19G11G16G 2G 6
  21628734.164     5557563.678 7   4319706.42422
  20938989.6564    -247656.04546   -188642.97362
  22842663.5704   -3967363.69346  -3042545.64961
  24021677.766    -1248560.177 5   -877727.07421
  22291676.906    -8785274.673 6  -6735472.43521
  24140382.461    -1401177.034 5   -991351.95021
 91  4  2 22 12  0.0000000  0  6G18G19G11G16G 2G 6
  21635855.688     5594989.206 7   4348869.09522
  20939690.7664    -243969.28546   -185770.17162
  22841990.125    -3970908.121 6  -3045307.51521
  24019915.523    -1257827.687 5   -884948.56821
  22285221.539    -8819202.229 6  -6761909.35721
  24134126.227    -1434060.217 5  -1016974.98621
 91  4  2 22 12 15.0000000  0  6G18G19G11G16G 2G 6
  21642993.305     5632493.240 7   4378092.93822
  20940399.8444    -240249.96546   -182871.99762
  22841340.1334   -3974317.46646  -3047964.11761
  24018169.2974   -1266979.27745   -892079.71461
  22278776.9844   -8853073.73246  -6788302.60561
  24127863.9144   -1466955.29345  -1042607.27261
 91  4  2 22 12 30.0000000  0  6G18G19G11G16G 2G 6
  21650145.500     5670077.671 7   4407379.43722
  20941113.3674    -236496.27246   -179947.03662
  22840718.906    -3977589.881 6  -3050514.02521
  24016451.883    -1276013.287 5   -899119.27221
  22272340.727    -8886887.465 6  -6814650.83821
  24121608.5634   -1499860.69345  -1068247.61361
 91  4  2 22 12 45.0000000  0  6G18G19G11G16G 2G 6
  21657313.617     5707744.087 7   4436729.81022
  20941834.2194    -232706.30946   -176993.81362
  22840121.4304   -3980723.51246  -3052955.79061
  24014757.7814   -1284927.75145   -906065.66661
  22265918.055    -8920641.532 6  -6840952.57821
  24115338.5394   -1532774.56645  -1093894.57361
 91  4  2 22 13  0.0000000  0  6G18G19G11G16G 2G 6
  21664496.180     5745493.709 7   4466145.01922
  20942561.5704    -228878.38446   -174011.01562
  22839553.547    -3983716.703 6  -3055288.12821
  24013083.2034   -1293721.34445   -912917.89661
  22259506.1174   -8954334.37146  -6867206.60761
  24109077.2424   -1565695.34145  -1119546.88061
 91  4  2 22 13 15.0000000  0  6G18G19G11G16G 2G 6
  21671695.148     5783321.595 7   4495621.22322
  20943297.9924    -225017.42546   -171002.47162
  22839008.234    -3986574.161 6  -3057514.69621
  24011431.484    -1302398.705 5   -919679.51021
  22253105.516    -8987970.691 6  -6893416.60621
  24102806.7974   -1598627.88145  -1145208.39661
 91  4  2 22 13 30.0000000  0  6G18G19G11G16G 2G 6
  21678908.180     5821227.335 7   4525158.08222
  20944038.1024    -221123.48846   -167968.23362
  22838490.0314   -3989295.84146  -3059635.46361
  24009801.1094   -1310959.93645   -926350.66961
  22246714.6564   -9021550.40446  -6919582.48761
  24096539.289    -1631572.435 5  -1170879.24121
 91  4  2 22 13 45.0000000  0  6G18G19G11G16G 2G 6
  21686136.563     5859211.977 7   4554756.42722
  20944786.2664    -217195.38846   -164907.37662
  22837999.313    -3991880.687 6  -3061649.60921
  24008198.594    -1319404.061 5   -932930.57321
  22240335.8754   -9055072.58346  -6945703.53661
  24090266.000    -1664527.880 5  -1196558.57821
 91  4  2 22 14  0.0000000  0  6G18G19G11G16G 2G 6
  21693379.805     5897275.088 7   4584415.91322
  20945540.5554    -213232.93346   -161819.75262
  22837533.297    -3994328.673 6  -3063557.11021
  24006613.5474   -1327731.00345   -939419.16661
  22233966.9224   -9088536.99446  -6971779.57761
  24083994.898    -1697494.264 5  -1222246.43921
 91  4  2 22 14 15.0000000  0  6G18G19G11G16G 2G 6
  21700637.570     5935412.363 7   4614133.19222
  20946299.6954    -209240.28346   -158708.59562
  22837091.766    -3996643.932 6  -3065361.18121
  24005048.859    -1335945.124 5   -945819.82121
  22227610.0164   -9121947.82746  -6997813.87461
  24077718.1954   -1730475.72145  -1247946.03161
 91  4  2 22 14 30.0000000  0  6G18G19G11G16G 2G 6
  21707911.219     5973634.583 7   4643916.66122
  20947066.4224    -205206.16246   -155565.12762
  22836679.453    -3998815.241 6  -3067053.09221
  24003508.8364   -1344035.64545   -952124.19461
  22221264.0634   -9155293.99746  -7023797.78062
  24071442.289    -1763461.316 5  -1273648.86121
 91  4  2 22 14 45.0000000  0  6G18G19G11G16G 2G 6
  21715199.758     6011934.657 7   4673760.79722
  20947840.7584    -201137.71946   -152394.91162
  22836293.641    -4000849.641 6  -3068638.32021
  24001990.4384   -1352009.29145   -958337.50161
  22214928.5084   -9188582.63646  -7049736.86262
  24065159.2894   -1796458.23245  -1299360.52961
 91  4  2 22 15  0.0000000  0  6G18G19G11G16G 2G 6
  21722501.070     6050311.817 7   4703665.00122
  20948621.1094    -197035.30346   -149198.21962
  22835932.1564   -4002747.41746  -3070117.07961
  24000497.4384   -1359866.48545   -964460.04761
  22208604.9534   -9221814.11146  -7075631.39462
  24058880.172    -1829466.906 5  -1325081.33621
 91  4  2 22 15 15.0000000  0  6G18G19G11G16G 2G 6
  21729819.867     6088769.001 7   4733631.56022
  20949409.1954    -192895.69446   -145972.54962
  22835597.102    -4004505.372 6  -3071486.89321
  23999024.641    -1367604.022 5   -970489.35521
  22202292.7974   -9254984.97746  -7101478.70062
  24052597.7734   -1862484.09745  -1350808.78661
 91  4  2 22 15 30.0000000  0  6G18G19G11G16G 2G 6
  21737153.242     6127304.505 7   4763659.14922
  20950205.3754    -188720.48246   -142719.13662
  22835287.016    -4006125.175 6  -3072749.05321
  23997573.7974   -1375223.59345   -976426.73261
  22195991.6564   -9288096.93346
  24046309.1024   -1895511.41345
 91  4  2 22 15 45.0000000  0  6G18G19G11G16G 2G 6
  21744500.719     6165919.649 7   4793748.79222
  20951006.4384    -184507.90846   -139436.61362
  22835004.8914   -4007604.97446  -3073902.11661
  23996149.3284   -1382723.69945   -982271.03761
  22189701.8134   -9321148.29746
  24040025.6414   -1928547.31445
 91  4  2 22 16  0.0000000  0  6G18G19G11G16G 2G 6
  21751864.727     6204615.476 7   4823901.30422
  20951812.9694    -180256.65346   -136123.94562
  22834752.023    -4008943.513 6  -3074945.11921
  23994747.0944   -1390102.77545   -988021.02561
  22183424.6644   -9354137.84546
  24033736.2114   -1961590.74945
 91  4  2 22 16 15.0000000  0  6G18G19G11G16G 2G 6
  21759243.523     6243390.299 7   4854115.37022
  20952632.4534    -175968.05046   -132782.17762
  22834522.016    -4010142.304 6  -3075879.22121
  23993359.313    -1397362.544 5   -993678.04421
  22177157.6334   -9387067.04246  -7204399.30861
  24027443.344    -1994643.229 5  -1453788.98621
 91  4  2 22 16 30.0000000  0  6G18G19G11G16G 2G 6
  21766636.539     6282241.797 7   4884389.18522
  20953452.2114    -171644.31946   -129413.04062
  22834321.406    -4011203.487 6  -3076706.09821
  23992003.375    -1404505.480 5   -999244.05521
  22170902.9384   -9419937.84546  -7230012.80062
  24021153.7584   -2027706.74145  -1479552.54061
 91  4  2 22 16 45.0000000  0  6G18G19G11G16G 2G 6
  21774044.3444    6321172.13647   4914724.44062
  20954284.9534    -167283.02346   -126014.62962
  22834144.328    -4012124.791 6  -3077423.98021
  23990664.211    -1411529.061 5  -1004717.01521
  22164659.6644   -9452748.01746  -7255579.04762
  24014859.8674   -2060779.25045  -1505323.09561
 91  4  2 22 17  0.0000000  0  6G18G19G11G16G 2G 6
  21781468.438     6360182.996 7   4945122.43722
  20955120.7344    -162881.81946   -122585.11862
  22833997.477    -4012903.747 6  -3078030.93621
  23989354.0784   -1418431.06945  -1010095.28861
  22158426.5704   -9485495.16746  -7281096.19262
  24008566.773    -2093858.437 5  -1531098.86321
 91  4  2 22 17 15.0000000  0  6G18G19G11G16G 2G 6
  21788906.6024    6399270.12047   4975579.85162
  20955964.6724    -158444.84546   -119127.73862
  22833874.930    -4013544.525 6  -3078530.22321
  23988059.7584   -1425215.89345  -1015382.20161
  22152206.813    -9518183.451 6  -7306567.46221
  24002270.250    -2126948.372 5  -1556882.99421
 91  4  2 22 17 30.0000000  0  6G18G19G11G16G 2G 6
  21796359.586     6438437.965 7   5006100.16322
  20956816.2734    -153967.54546   -115638.93662
  22833779.156    -4014042.525 6  -3078918.25821
  23986794.141    -1431878.958 5  -1020574.27721
  22145998.8914   -9550808.40946  -7331989.38761
  23995967.883    -2160044.711 5  -1582672.11421
 91  4  2 22 17 45.0000000  0  6G18G19G11G16G 2G 6
  21803827.016     6477678.262 7   5036676.94122
  20957676.8524    -149457.74846   -112124.81362
  22833711.656    -4014405.745 6  -3079201.26121
  23985548.828    -1438428.347 5  -1025677.77721
  22139800.7114   -9583377.98546  -7357368.16062
  23989667.9694   -2193155.63745  -1608472.60061
 91  4  2 22 18  0.0000000  0  6G18G19G11G16G 2G 6
  21811307.766     6516992.202 7   5067311.10222
  20958541.2814    -144913.83046   -108584.09962
  22833666.148    -4014632.621 6  -3079378.03821
  23984324.5704   -1444862.38145  -1030691.36561
  22133614.6414   -9615890.52946  -7382702.49162
  23983364.523    -2226279.487 4  -1634283.15321
 91  4  2 22 18 15.0000000  0  6G18G19G11G16G 2G 6
  21818804.484     6556382.274 7   5098004.57822
  20959413.0314    -140333.22846   -105014.80162
  22833652.063    -4014720.484 6
  23983121.8134   -1451178.60045  -1035613.15961
  22127437.6884   -9648343.31346  -7407990.25762
  23977060.0234   -2259413.57044  -1660101.70461
 91  4  2 22 18 30.0000000  0  6G18G19G11G16G 2G 6
  21826313.859     6595843.537 7   5128753.53422
  20960288.6884    -135720.38146   -101420.38162
  22833658.125    -4014673.893 6
  23981939.125    -1457381.794 5  -1040446.88221
  22121272.7194   -9680740.88946  -7433235.00662
  23970750.328    -2292562.698 4  -1685931.95321
 91  4  2 22 18 45.0000000  0  6G18G19G11G16G 2G 6
  21833838.7664    6635386.63847   5159566.24662
  20961177.6724    -131064.67846    -97792.56462
  22833693.766    -4014482.172 6
  23980783.945    -1463461.267 5  -1045184.20221
  22115120.1334   -9713072.72746  -7458428.52662
  23964444.0634   -2325716.23344  -1711765.65061
 91  4  2 22 19  0.0000000  0  6G18G19G11G16G 2G 6
  21841377.9694    6675005.80847   5190438.23562
  20962070.2114    -126371.34846    -94135.43062
  22833760.133    -4014150.637 6
  23979649.3284   -1469422.00245  -1049828.99861
  22108978.4534   -9745344.09646  -7483574.93362
  23958129.953    -2358879.594 4  -1737606.98421
 91  4  2 22 19 15.0000000  0  6G18G19G11G16G 2G 6
  21848931.3054    6714698.67347   5221367.65562
  20962968.0234    -121642.56346    -90450.66762
  22833848.313    -4013681.673 6  -3078636.95221
  23978539.6094   -1475266.65945  -1054383.35761
  22102848.0784   -9777557.34146  -7508676.04462
  23951819.6094   -2392054.95444  -1763457.69761
 91  4  2 22 19 30.0000000  0  6G18G19G11G16G 2G 6
  21856499.211     6754472.078 7   5252359.83822
  20963878.7424    -116871.04746    -86732.61162
  22833965.938    -4013068.013 6  -3078158.76221
  23977449.953    -1480988.257 5  -1058841.81421
  22096730.8834   -9809705.10646  -7533726.13261
  23945501.9384   -2425235.27344  -1789312.26161
 91  4  2 22 19 45.0000000  0  6G18G19G11G16G 2G 6
  21864083.5634    6794325.41747   5283414.30062
  20964794.0314    -112057.05046    -82981.45162
  22834109.977    -4012309.982 6  -3077568.07621
  23976384.414    -1486587.017 5  -1063204.55021
  22090626.8524   -9841787.75046  -7558725.47762
  23939187.8284   -2458420.95644  -1815170.98961
 91  4  2 22 20  0.0000000  0  6G18G19G11G16G 2G 6
  21871683.0864    6834258.07147   5314530.56462
  20965717.0084    -107200.87146    -79197.42562
  22834282.680    -4011407.702 6  -3076864.98821
  23975338.727    -1492063.354 5  -1067471.89021
  22084533.1254   -9873805.35546  -7583674.14062
  23932874.820    -2491612.282 4  -1841034.13221
 91  4  2 22 20 15.0000000  0  6G18G19G11G16G 2G 6
  21879297.1334    6874270.23947   5345708.78462
  20966649.0234    -102302.23846    -75380.31362
  22834479.484    -4010360.916 6  -3076049.29721
  23974322.641    -1497416.900 5  -1071643.56521
  22078453.1724   -9905757.82246  -7608572.04561
  23926556.3754   -2524808.99544  -1866901.46261
 91  4  2 22 20 30.0000000  0  6G18G19G11G16G 2G 6
  21886924.5704    6914356.90447   5376945.05462
  20967589.4534     -97365.92746    -71533.84462
  22834708.156    -4009174.628 6  -3075124.90221
  23973328.633    -1502652.638 5  -1075723.42621
  22072384.6724   -9937650.07846  -7633423.03862
  23920235.1644   -2558016.08644  -1892776.88961
 91  4  2 22 20 45.0000000  0  6G18G19G11G16G 2G 6
  21894568.5474    6954520.48347   5408241.26462
  20968536.3284     -92389.13346    -67655.82762
  22834958.820    -4007846.058 6  -3074089.64221
  23972355.5394   -1507768.05145  -1079709.53561
  22066327.1954   -9969479.21146  -7658224.83162
  23913915.289    -2591230.743 5  -1918658.19721
 91  4  2 22 21  0.0000000  0  6G18G19G11G16G 2G 6
  21902226.039     6994764.363 7   5439600.04822
  20969489.6414     -87368.03046    -63743.28762
  22835239.406    -4006371.618 6  -3072940.70521
  23971403.461    -1512759.400 5  -1083598.96821
  22060282.6094  -10001241.51346  -7682974.55862
  23907595.3674   -2624449.44045  -1944542.69761
 91  4  2 22 21 15.0000000  0  6G18G19G11G16G 2G 6
  21909899.0864    7035083.24947   5471017.26962
  20970452.8134     -82307.81746    -59800.26762
  22835549.055    -4004756.337 6  -3071682.03021
  23970472.4304   -1517632.05045  -1087395.91661
  22054249.9064  -10032942.18046  -7707676.25462
  23901272.1254   -2657677.45345  -1970434.40761
 91  4  2 22 21 30.0000000  0  6G18G19G11G16G 2G 6
  21917586.313     7075480.498 7   5502495.55822
  20971422.2274     -77204.34546    -55823.53862
  22835883.445    -4002996.458 6  -3070310.68021
  23969570.1254   -1522382.31145  -1091097.47461
  22048230.7734  -10064577.44346  -7732326.99361
  23894946.7894   -2690910.96145  -1996330.42361
 91  4  2 22 21 45.0000000  0  6G18G19G11G16G 2G 6
  21925287.2504    7115950.42047   5534030.47962
  20972403.0864     -72063.15446    -51817.42062
  22836244.313    -4001097.476 6  -3068830.93421
  23968691.539    -1527015.853 5  -1094708.10321
  22042222.4224  -10096152.87846  -7756931.10662
  23888620.8284   -2724155.44745  -2022234.97361
 91  4  2 22 22  0.0000000  0  6G18G19G11G16G 2G 6
  21933003.2194    7156498.20247   5565626.06062
  20973391.1334     -66878.78446    -47777.65862
  22836633.031    -3999053.946 6  -3067238.56321
  23967833.781    -1531526.765 5  -1098223.18721
  22036225.0944  -10127662.79546  -7781484.16462
  23882292.391    -2757405.639 5  -2048144.01521
 91  4  2 22 22 15.0000000  0  6G18G19G11G16G 2G 6
  21940733.625     7197121.748 7   5597280.68722
  20974384.0784     -61653.61146    -43706.09862
  22837048.961    -3996868.097 6  -3065535.28221
  23966996.461    -1535917.725 5  -1101644.78221
  22030240.3284  -10159109.32246  -7805987.83462
  23875964.9454   -2790663.55545  -2074059.05261
 91  4  2 22 22 30.0000000  0  6G18G19G11G16G 2G 6
  21948479.1094    7237823.71247   5628996.41262
  20975385.8134     -56384.28746    -39600.14062
  22837492.898    -3994536.556 6  -3063718.47721
  23966183.0634   -1540185.73245  -1104970.55961
  22024269.6954  -10190489.35846  -7830439.68662
  23869635.078    -2823926.318 5  -2099977.85321
 91  4  2 22 22 45.0000000  0  6G18G19G11G16G 2G 6
  21956239.3054    7278601.41347   5660771.15262
  20976396.7504     -51072.98346    -35461.46762
  22837963.203    -3992061.878 6  -3061790.13221
  23965395.344    -1544333.064 5  -1108202.32421
  22018310.4694  -10221805.46246  -7854841.72562
  23863301.3754   -2857196.22045  -2125902.25461
 91  4  2 22 23  0.0000000  0  6G18G19G11G16G 2G 6
  21964013.2194    7319456.93047   5692606.52662
  20977415.7974     -45717.40646    -31288.29262
  22838461.789    -3989441.693 6  -3059748.41821
  23964630.750    -1548357.594 5  -1111338.40121
  22012363.2814  -10253055.07546  -7879191.95162
  23856971.688    -2890470.843 5  -2151830.29021
 91  4  2 22 23 15.0000000  0  6G18G19G11G16G 2G 6
  21971802.5864    7360389.39347   5724501.86262
  20978445.1724     -40318.08546    -27081.03662
  22838986.570    -3986676.665 6  -3057593.82921
  23963887.422    -1552260.179 5  -1114379.45121
  22006428.6174  -10284238.84646  -7903490.87162
  23850638.328    -2923750.947 5  -2177762.64521
 91  4  2 22 23 30.0000000  0  6G18G19G11G16G 2G 6
  21979607.5394    7401399.93347   5756458.03662
  20979479.2114     -34873.82646    -22838.75862
  22839542.523    -3983765.573 6  -3055325.42421
  23963169.0784   -1556039.42245  -1117324.37361
  22000507.6094  -10315355.68546  -7927737.63862
  23844302.219    -2957035.508 5  -2203698.43321
 91  4  2 22 23 45.0000000  0  6G18G19G11G16G 2G 6
  21987425.3594    7442485.94447   5788473.02362
  20980525.2894     -29386.75546    -18563.11762
  22840123.3364   -3980710.61546  -3052944.91061
  23962469.5314   -1559697.19845  -1120174.65961
  21994597.7734  -10346407.56946  -7951933.79562
  23837970.0634   -2990326.41745  -2229639.17761
 91  4  2 22 24  0.0000000  0  6G18G19G11G16G 2G 6
  21995259.7734    7483650.15947   5820548.95262
  20981576.2894     -23853.63546    -14251.60562
  22840733.0864   -3977508.84546  -3050450.00361
  23961800.430    -1563231.081 5  -1122928.40221
  21988701.9304  -10377391.64846  -7976077.11462
  23831633.227    -3023620.990 5  -2255582.79021
 91  4  2 22 24 15.0000000  0  6G18G19G11G16G 2G 6
  22003107.2344    7524890.38047   5852684.09862
  20982639.9454     -18276.78546     -9906.01362
  22841367.484    -3974162.458 6  -3047842.40921
  23961150.6024   -1566643.28145  -1125587.34661
  21982818.2274  -10408309.98446  -8000169.20462
  23825297.6724   -3056921.44945  -2281530.99461
 91  4  2 22 24 30.0000000  0  6G18G19G11G16G 2G 6
  22010969.0234    7566205.85547   5884877.88261
  20983706.9304     -12656.56546     -5526.62062
  22842035.039    -3970671.926 6  -3045122.49221
  23960524.609    -1569934.403 5  -1128151.92721
  21976947.367   -10439162.848 6  -8024210.28222
  23818957.000    -3090228.221 5  -2307484.10121
 91  4  2 22 24 45.0000000  0  6G18G19G11G16G 2G 6
  22018845.4534    7607599.07947   5917132.24762
  20984785.2814      -6989.78846     -1110.94762
  22842725.555    -3967034.198 6  -3042287.87921
  23959922.3754   -1573101.49645  -1130619.84261
  21971088.9384  -10469947.31446  -8048198.06162
  23812620.508    -3123538.293 5  -2333439.80721
 91  4  2 22 25  0.0000000  0  6G18G19G11G16G 2G 6
  22026737.8984    7649071.33047   5949448.19062
  20985875.1884      -1275.38546      3341.83862
  22843444.2034   -3963248.18946  -3039337.71561
  23959343.1804   -1576143.21545  -1132990.10561
  21965244.8134  -10500662.17746  -8072131.60662
  23806280.742    -3156850.414 5  -2359397.09421
 91  4  2 22 25 15.0000000  0  6G18G19G11G16G 2G 6
  22034645.4224    7690620.75347   5981824.27262
  20986970.5634       4485.47346      7830.81862
  22844194.336    -3959315.328 6  -3036273.12921
  23958789.0004   -1579061.11545  -1135263.85661
  21959413.453   -10531309.033 6  -8096012.15922
  23799940.695    -3190166.204 5  -2385357.26021
 91  4  2 22 25 30.0000000  0  6G18G19G11G16G 2G 6
  22042565.9144    7732248.82547   6014261.63762
  20988074.7584      10294.81846     12357.58162
  22844971.477    -3955233.852 6  -3033092.73621
  23958257.586    -1581853.771 5  -1137440.02321
  21953594.133   -10561885.989 6  -8119838.24422
  23793599.172    -3223483.785 5  -2411318.78721
 91  4  2 22 25 45.0000000  0  6G18G19G11G16G 2G 6
  22050502.5634    7773952.60547   6046757.99962
  20989189.7504      16149.69046     16919.81962
  22845777.414    -3951006.535 6  -3029798.70521
  23957748.711    -1584524.104 5  -1139520.87121
  21947787.930   -10592395.756 6  -8143611.97922
  23787259.117    -3256806.090 5  -2437284.03921
 91  4  2 22 26  0.0000000  0  6G18G19G11G16G 2G 6
  22058453.1094    7815733.46447   6079314.41962
  20990311.0784      22051.90346     21518.94862
  22846608.5554   -3946631.68046  -3026389.70361
  23957265.7974   -1587070.68745  -1141505.29061
  21941994.859   -10622836.720 6  -8167332.10022
  23780917.320    -3290131.496 5  -2463251.68821
 91  4  2 22 26 15.0000000  0  6G18G19G11G16G 2G 6
  22066416.6174    7857587.88447   6111928.16161
  20991443.4304      27998.37346     26152.56662
  22847468.1644   -3942112.71446  -3022868.41461
  23956799.930    -1589496.508 5  -1143395.62721
  21936213.797   -10653212.092 6  -8191001.11222
  23774575.414    -3323463.270 5  -2489224.31021
 91  4  2 22 26 30.0000000  0  6G18G19G11G16G 2G 6
  22074396.7344    7899518.23447   6144601.07562
  20992587.2584      33991.66946     30822.66662
  22848355.492    -3937447.043 6  -3019232.80621
  23956365.445    -1591799.027 5  -1145189.87021
  21930446.555   -10683519.131 7  -8214616.88022
  23768231.133    -3356798.943 5  -2515199.96021
 91  4  2 22 26 45.0000000  0  6G18G19G11G16G 2G 6
  22082390.5474    7941523.65047   6177332.47261
  20993735.3444      40030.98546     35528.62262
  22849270.094    -3932635.483 6  -3015483.51721
  23955949.328    -1593979.489 5  -1146889.01721
  21924693.078   -10713758.710 7  -8238180.08022
  23761886.773    -3390139.227 5  -2541179.19821
 91  4  2 22 27  0.0000000  0  6G18G19G11G16G 2G 6
  22090399.8594    7983608.44847   6210125.73461
  20994891.4924      46121.42246     40274.41562
  22850216.305    -3927673.173 6  -3011616.76321
  23955554.969    -1596032.544 5  -1148488.86821
  21918952.055   -10743925.938 7  -8261686.90622
  23755543.766    -3423479.076 5  -2567158.12221
 91  4  2 22 27 15.0000000  0  6G18G19G11G16G 2G 6
  22098421.2504    8025768.15447   6242977.36161
  20996060.8444      52258.29146     45056.39262
  22851189.0004   -3922564.62746  -3007636.04961
  23955189.953    -1597963.339 5  -1149993.44121
  21913224.547   -10774025.378 7  -8285140.90822
  23749194.0864   -3456823.29145  -2593140.43161
 91  4  2 22 27 30.0000000  0  6G18G19G11G16G 2G 6
  22106458.4064    8068001.34847   6275886.24961
  20997236.8914      58440.63846     49873.80062
  22852186.9304   -3917310.99646  -3003542.28861
  23954844.6094   -1599772.91145  -1151403.57261
  21907510.141   -10804058.204 7  -8308543.00622
  23742847.125    -3490173.024 5  -2619127.04421
 91  4  2 22 27 45.0000000  0  6G18G19G11G16G 2G 6
  22114510.2584    8110312.53647   6308855.91361
  20998421.8834      64673.61546     54730.66862
  22853217.445    -3911907.434 6  -2999331.69421
  23954524.3674   -1601456.21645  -1152715.29561
  21901808.430   -10834019.379 7  -8331889.27222
  23736499.2274   -3523523.20345  -2645114.01161
 91  4  2 22 28  0.0000000  0  6G18G19G11G16G 2G 6
  22122576.0944    8152701.27647   6341886.02061
  20999620.7814      70956.92546     59626.75962
  22854271.133    -3906354.264 6  -2995004.54021
  23954231.367    -1603013.842 5  -1153929.10721
  21896119.688   -10863909.131 7  -8355179.88322
  23730157.9064   -3556874.33345  -2671101.73961
 91  4  2 22 28 15.0000000  0  6G18G19G11G16G 2G 6
  22130656.4694    8195163.80247   6374973.60861
  21000823.2274      77287.41046     64559.60462
  22855358.320    -3900654.879 6  -2990563.42921
  23953958.719    -1604449.166 5  -1155047.62221
  21890445.203   -10893730.867 7  -8378417.49322
  23723809.8284   -3590229.72145  -2697092.74761
 91  4  2 22 28 30.0000000  0  6G18G19G11G16G 2G 6
  22138751.2344    8237698.20147   6408117.20162
  21002035.9534      83663.29046     69527.82662
  22856468.180    -3894811.066 6  -2986009.78821
  23953706.7894   -1605764.06845  -1156072.28261
  21884783.609   -10923486.307 7  -8401603.44822
  23717458.961    -3623591.067 5  -2723088.41121
 91  4  2 22 28 45.0000000  0  6G18G19G11G16G 2G 6
  22146858.5784    8280306.42547   6441318.32261
  21003260.0394      90086.72246     74533.10062
  22857608.508    -3888820.741 6  -2981341.97721
  23953482.328    -1606956.754 5  -1157001.71421
  21879133.273   -10953173.294 7  -8424736.06122
  23711109.6724   -3656956.29145  -2749087.11161
 91  4  2 22 29  0.0000000  0  6G18G19G11G16G 2G 6
  22154980.1644    8322983.42347   6474573.03061
  21004489.9694      96553.08846     79571.82662
  22858776.156    -3882688.674 6  -2976563.72721
  23953276.4144   -1608031.84045  -1157839.49861
  21873497.141   -10982796.539 7  -8447819.00822
  23704761.641    -3690330.170 5  -2775092.53721
 91  4  2 22 29 15.0000000  0  6G18G19G11G16G 2G 6
  22163115.8984    8365734.42247   6507885.40761
  21005728.0474     103067.83346     84648.24462
  22859971.5704   -3876409.43446  -2971670.78461
  23953096.672    -1608984.120 5  -1158581.63121
  21867873.1024  -11012350.52347  -8470847.98762
  23698410.258    -3723707.234 5  -2801100.46221
 91  4  2 22 29 30.0000000  0  6G18G19G11G16G 2G 6
  22171263.5234    8408554.46846   6541251.57961
  21006976.9454     109626.51146
  22861193.688    -3869987.705 6
  23952937.438    -1609818.162 5  -1159231.56421
  21862260.688   -11041839.858 7  -8493826.58822
  23692053.9304   -3757092.12845  -2827114.47861
 91  4  2 22 29 45.0000000  0  6G18G19G11G16G 2G 6
  22179425.0784    8451442.08447   6574670.40561
  21008231.9844     116227.59146
  22862443.688    -3863424.988 6
  23952798.461    -1610535.512 5  -1159790.62321
  21856660.7424  -11071266.03547  -8516755.97962
  23685700.180    -3790486.404 5  -2853135.80221
 91  4  2 22 30  0.0000000  0  6G18G19G11G16G 2G 6
  22187600.2424    8494400.20046   6608144.16661
  21009496.7034     122874.39446    100081.92462
  22863718.7734   -3856718.09446  -2956326.81661
  23952687.3204   -1611133.16245  -1160256.37361
  21851074.219   -11100625.834 7  -8539633.64322
  23679342.4694   -3823886.83345  -2879161.90261
 91  4  2 22 30 15.0000000  0  6G18G19G11G16G 2G 6
  22195787.2814    8537425.53046   6641670.30561
  21010771.8364     129564.20746    105294.76162
  22865021.766    -3849869.993 6  -2950990.62221
  23952596.852    -1611614.135 5  -1160631.22221
  21845499.500   -11129922.170 7  -8562461.85522
  23672986.6954   -3857296.37645  -2905195.15061
 91  4  2 22 30 30.0000000  0  6G18G19G11G16G 2G 6
  22203987.8204    8580517.87246   6675248.65861
  21012053.6484     136297.19746    110541.24362
  22866350.1884   -3842880.75746  -2945544.44161
  23952525.0634   -1611978.44745  -1160915.17061
  21839936.0784  -11159155.04447  -8585240.62262
  23666627.961    -3890715.040 5  -2931235.47221
 91  4  2 22 30 45.0000000  0  6G18G19G11G16G 2G 6
  22212201.8134    8623681.30046   6708882.40361
  21013344.9304     143077.64046    115824.69562
  22867708.344    -3835746.075 6  -2939984.93021
  23952479.164    -1612222.011 5  -1161105.01921
  21834386.1644  -11188319.99647  -8607966.46062
  23660266.3134   -3924138.41745  -2957279.47661
 91  4  2 22 31  0.0000000  0  6G18G19G11G16G 2G 6
  22220428.6254    8666913.34646   6742569.62461
  21014638.9924     149903.37446    121143.44762
  22869093.9534   -3828468.31546  -2934313.92161
  23952452.8914   -1612347.09045
  21828850.0314  -11217419.34147  -8630641.17562
  23653903.469    -3957568.843 5  -2983328.96321
 91  4  2 22 31 15.0000000  0  6G18G19G11G16G 2G 6
  22228668.3754    8710215.08346   6776311.15061
  21015949.4694     156776.03546    126498.76462
  22870507.1564   -3821045.97946  -2928530.25961
  23952454.4774   -1612352.30045
  21823324.5554  -11246451.58347  -8653263.60862
  23647540.3134   -3991004.80245  -3009382.77861
 91  4  2 22 31 30.0000000  0  6G18G19G11G16G 2G 6
  22236921.1174    8753583.72046   6810104.80061
  21017267.3754     163693.03546    131888.62762
  22871943.8524   -3813481.72946  -2922636.01361
  23952475.9534   -1612240.51545
  21817811.3594  -11275419.37647  -8675835.81562
  23641175.773    -4024448.934 5  -3035442.95321
 91  4  2 22 31 45.0000000  0  6G18G19G11G16G 2G 6
  22245187.8834    8797024.57846   6843954.72861
  21018591.0314     170660.05646    137317.47362
  22873413.6254   -3805770.03946  -2916626.88561
  23952520.5704   -1612006.17545
  21812313.5474  -11304317.09247  -8698353.42262
  23634813.273    -4057895.646 5  -3061505.13421
 91  4  2 22 32  0.0000000  0  6G18G19G11G16G 2G 6
  22253466.9454    8840527.65746   6877853.14161
  21019926.7194     177667.32546    142777.68162
  22874905.078    -3797920.893 6  -2910510.64321
  23952587.953    -1611659.214 5
  21806824.7584  -11333154.60847  -8720824.11362
  23628445.1484   -4091354.95045  -3087577.13461
 91  4  2 22 32 15.0000000  0  6G18G19G11G16G 2G 6
  22261757.1564    8884097.18246   6911803.32461
  21021268.1094     184719.47446    148272.87363
  22876427.695    -3789929.827 6  -2904283.81721
  23952672.469    -1611195.281 5  -1160305.34421
  21801348.8674  -11361927.26347  -8743244.26762
  23622075.648    -4124822.182 5  -3113655.30421
 91  4  2 22 32 30.0000000  0  6G18G19G11G16G 2G 6
  22270061.3594    8927734.35346   6945806.23161
  21022617.4844     191818.22246    153804.35063
  22877976.836    -3781795.335 6  -2897945.23321
  23952783.3914   -1610612.86145  -1159851.58361
  21795886.6884  -11390633.66847  -8765612.80062
  23615704.508    -4158295.967 5  -3139738.58921
 91  4  2 22 32 45.0000000  0  6G18G19G11G16G 2G 6
  22278377.7344    8971436.17346   6979859.50261
  21023978.8444     198960.43946    159369.71263
  22879549.555    -3773520.410 6  -2891497.21921
  23952915.8834   -1609915.25745  -1159308.06161
  21790435.7424  -11419276.70847  -8787931.95362
  23609331.375    -4191779.106 5  -3165829.14821
 91  4  2 22 33  0.0000000  0  6G18G19G11G16G 2G 6
  22286706.2114    9015201.83046   7013962.52261
  21025348.7034     206145.87746    164968.74563
  22881149.922    -3765105.529 6  -2884940.15421
  23953073.2344   -1609102.84945  -1158675.07361
  21784997.3054  -11447856.70047  -8810201.98662
  23602959.961    -4225272.032 5  -3191927.34621
 91  4  2 22 33 15.0000000  0  6G18G19G11G16G 2G 6
  22295046.0944    9059029.95746   7048114.21761
  21026721.5314     213373.53646    170600.68763
  22882777.953    -3756551.833 6  -2878274.92421
  23953250.2814   -1608176.69445  -1157953.47661
  21779569.6954  -11476374.71547  -8832423.71862
  23596586.008    -4258775.725 5  -3218033.93021
 91  4  2 22 33 30.0000000  0  6G18G19G11G16G 2G 6
  22303399.6254    9102923.89446   7082317.19761
  21028102.4534     220647.20346    176268.47263
  22884433.375    -3747855.858 6  -2871498.82521
  23953448.8594   -1607133.83745  -1157140.92761
  21774154.9774  -11504827.39247  -8854594.54162
  23590207.148    -4292287.019 5  -3244146.43321
 91  4  2 22 33 45.0000000  0  6G18G19G11G16G 2G 6
  22311763.6884    9146878.29446   7116567.28861
  21029495.4454     227961.94646    181968.27363
  22886115.102    -3739022.549 6  -2864615.70221
  23953667.273    -1605979.179 5  -1156241.26521
  21768753.4614  -11533219.51247  -8876718.17762
  23583826.063    -4325810.517 5  -3270268.43921
 91  4  2 22 34  0.0000000  0  6G18G19G11G16G 2G 6
  22320140.5784    9190902.17846   7150871.52461
  21030895.6804     235327.01046    187707.28363
  22887822.695    -3730042.907 6  -2857618.55021
  23953909.555    -1604703.695 5  -1155247.46321
  21763362.2344  -11561542.06247  -8898787.59662
  23577451.0084   -4359337.35645  -3296393.06061
 91  4  2 22 34 15.0000000  0  6G18G19G11G16G 2G 6
  22328530.9454    9234989.04046   7185224.83461
  21032308.4454     242736.08346    193480.58463
  22889557.953    -3720923.381 6  -2850512.40321
  23954175.258    -1603313.762 5  -1154164.47421
  21757985.3284  -11589801.30547  -8920807.69162
  23571067.1254   -4392873.78645  -3322525.17261
 91  4  2 22 34 30.0000000  0  6G18G19G11G16G 2G 6
  22336931.8914    9279137.95646   7219626.49661
  21033727.5234     250188.82846    199287.91063
  22891319.648    -3711664.477 6  -2843297.66321
  23954457.313    -1601809.817 5  -1152992.64421
  21752619.2974  -11617997.54947  -8942778.69662
  23564682.328    -4426419.989 5  -3348664.85421
 91  4  2 22 34 45.0000000  0  6G18G19G11G16G 2G 6
  22345344.2344    9323349.50246   7254076.96061
  21035152.3594     257685.93846    205129.81163
  22893109.164    -3702265.622 6  -2835973.86721
  23954767.6334   -1600191.37645  -1151731.59061
  21747266.5084  -11646130.08347  -8964700.05462
  23558298.438    -4459975.656 5  -3374811.94021
 91  4  2 22 35  0.0000000  0  6G18G19G11G16G 2G 6
  22353769.5704    9367619.86746   7288573.25861
  21036585.1094     265224.11746    211003.71963
  22894924.180    -3692730.287 6  -2828543.72121
  23955099.766    -1598462.233 5  -1150384.28821
  21741923.7194  -11674202.59947  -8986574.64562
  23551909.9384   -4493543.95445  -3400968.87561
 91  4  2 22 35 15.0000000  0  6G18G19G11G16G 2G 6
  22362205.7424    9411951.68246   7323117.43261
  21038030.1644     272806.22246    216911.85463
  22896762.945    -3683055.730 6  -2821005.08821
  23955449.8984   -1596619.49445  -1148948.47661
  21736594.4694  -11702212.04247  -9008400.09062
  23545517.828    -4527122.314 5  -3427133.63721
 91  4  2 22 35 30.0000000  0  6G18G19G11G16G 2G 6
  22370653.2974    9456345.63846   7357710.02861
  21039478.5784     280433.31546    222855.04363
  22898632.445    -3673241.055 6  -2813357.27221
  23955820.203    -1594662.399 5  -1147423.55121
  21731275.7194  -11730157.46247  -9030175.64662
  23539128.477    -4560709.671 5  -3453305.41321
 91  4  2 22 35 45.0000000  0  6G18G19G11G16G 2G 6
  22379112.6024    9500800.01446   7392349.70861
  21040942.2584     288104.04846    228832.23863
  22900525.453    -3663287.718 6  -2805601.40721
  23956214.914    -1592592.450 5  -1145810.66921
  21725969.6334  -11758040.15947  -9051902.32462
  23532735.906    -4594307.416 5  -3479485.28721
 91  4  2 22 36  0.0000000  0  6G18G19G11G16G 2G 6
  22387584.6094    9545315.22546   7427036.79761
  21042407.6564     295819.19246    234844.03963
  22902446.844    -3653195.105 6  -2797737.01821
  23956633.977    -1590409.034 5  -1144109.37221
  21720675.5314  -11785859.63547  -9073579.74062
  23526338.789    -4627914.776 5  -3505672.65821
 91  4  2 22 36 15.0000000  0  6G18G19G11G16G 2G 6
  22396067.2274    9589895.14446   7461774.30661
  21043886.9844     303582.89946    240893.68063
  22904393.016    -3642959.371 6  -2789761.10221
  23957070.766    -1588108.430 5  -1142316.78821
  21715395.2664  -11813611.93647  -9095204.81262
  23519942.1564   -4661528.06945  -3531864.64161
 91  4  2 22 36 30.0000000  0  6G18G19G11G16G 2G 6
  22404561.8054    9634531.98546   7496556.16361
  21045369.6954     311387.80846    246975.42663
  22906369.078    -3632587.934 6  -2781679.44721
  23957527.664    -1585698.198 5  -1140438.76821
  21710124.8914  -11841304.51347  -9116783.34662
  23513540.6094   -4695154.32045  -3558066.74261
 91  4  2 22 36 45.0000000  0  6G18G19G11G16G 2G 6
  22413066.8834    9679228.11946   7531384.22861
  21046865.0314     319236.81546    253091.54063
  22908368.6804   -3622078.25246  -2773490.06161
  23958007.8444   -1583175.88245  -1138473.40461
  21704867.297   -11868934.556 7  -9138313.15022
  23507140.7194   -4728791.11645  -3584277.04961
 91  4  2 22 37  0.0000000  0  6G18G19G11G16G 2G 6
  22421583.1174    9723981.11146   7566256.59161
  21048366.3524     327127.49846    259240.12863
  22910392.914    -3611432.874 6  -2765194.94121
  23958507.9534   -1580543.88945  -1136422.56061
  21699621.2034  -11896504.48547  -9159796.11862
  23500739.773    -4762440.747 5  -3610497.34921
 91  4  2 22 37 15.0000000  0  6G18G19G11G16G 2G 6
  22430112.4844    9768799.92146   7601180.24861
  21049879.1334     335069.18146    265428.45763
  22912445.195    -3600642.562 6  -2756786.88321
  23959033.742    -1577792.976 5  -1134279.07621
  21694387.8204  -11924004.99647  -9181224.99162
  23494335.3054   -4796093.97345  -3636720.47161
 91  4  2 22 37 30.0000000  0  6G18G19G11G16G 2G 6
  22438652.4454    9813680.46246   7636152.00561
  21051399.1174     343058.04846    271653.55263
  22914526.1484   -3589711.28546  -2748268.97661
  23959577.063    -1574927.532 5  -1132046.34621
  21689166.4304  -11951440.05647  -9202602.86262
  23487929.1094   -4829754.73445  -3662949.45961
 91  4  2 22 37 45.0000000  0  6G18G19G11G16G 2G 6
  22447203.9454    9858618.73446   7671168.74761
  21052927.7584     351090.52746    277912.62563
  22916632.914    -3578642.805 6  -2739644.16821
  23960143.2114   -1571950.98445  -1129727.03161
  21683957.7344  -11978813.19147  -9223932.48162
  23481521.453    -4863426.601 5  -3689187.09721
 91  4  2 22 38  0.0000000  0  6G18G19G11G16G 2G 6
  22455766.3984    9903612.29946   7706228.57061
  21054463.7734     359164.69946    284204.18463
  22918764.5234   -3567439.32146  -2730914.15261
  23960731.531    -1568865.815 5  -1127323.08721
  21678760.7424  -12006126.55247  -9245215.52362
  23475110.1804   -4897111.67845  -3715435.05061
 91  4  2 22 38 15.0000000  0  6G18G19G11G16G 2G 6
  22464340.0314    9948668.56546   7741337.25661
  21056010.5704     367288.22646    290534.20363
  22920922.1334   -3556093.23946  -2722073.02661
  23961340.680    -1565664.489 5  -1124828.61421
  21673575.6334  -12033372.35947  -9266445.93162
  23468700.320    -4930802.274 5  -3741687.29721
 91  4  2 22 38 30.0000000  0  6G18G19G11G16G 2G 6
  22472925.3284    9993782.79946   7776491.10761
  21057563.3674     375456.64446    296899.20263
  22923109.539    -3544609.246 6  -2713124.43921
  23961966.359    -1562351.630 5  -1122247.23521
  21668402.8834  -12060555.23947  -9287627.30062
  23462288.063    -4964502.894 5  -3767947.35021
 91  4  2 22 38 45.0000000  0  6G18G19G11G16G 2G 6
  22481520.9924   10038957.63446   7811692.17661
  21059126.5314     383673.02846    303301.58763
  22925322.2664   -3532984.49846  -2704066.16761
  23962619.6564   -1558924.26745  -1119576.63761
  21663242.3674  -12087672.27147  -9308757.36462
  23455872.477    -4998210.786 5  -3794213.07321
 91  4  2 22 39  0.0000000  0  6G18G19G11G16G 2G 6
  22490130.1254   10084191.01046   7846938.86161
  21060699.8524     391935.60046    309739.95863
  22927560.4694   -3521220.89546  -2694899.70061
  23963296.3914   -1555384.63145  -1116818.54561
  21658094.5634  -12114725.22747  -9329837.49262
  23449454.9454   -5031927.46845  -3820485.64561
 91  4  2 22 39 15.0000000  0  6G18G19G11G16G 2G 6
  22498749.211    10129484.881 6   7882232.68321
  21062281.4304     400246.66046    316216.10763
  22929824.219    -3509316.408 6  -2685623.45721
  23963990.2664   -1551730.48345  -1113971.22761
  21652958.5234  -12141712.03647  -9350866.08262
  23443040.9924   -5065651.02345  -3846763.58061
 91  4  2 22 39 30.0000000  0  6G18G19G11G16G 2G 6
  22507379.5234   10174836.29446   7917571.34761
  21063870.6564     408603.70046    322728.08063
  22932118.289    -3497273.929 6  -2676239.69021
  23964707.5234   -1547964.93545  -1111037.10261
  21647836.3284  -12168635.43047  -9371845.25762
  23436619.969    -5099384.099 5  -3873048.92421
 91  4  2 22 39 45.0000000  0  6G18G19G11G16G 2G 6
  22516019.133    10220240.629 6   7952951.23621
  21065471.2194     417002.42846    329272.54463
  22934433.508    -3485097.817 6  -2666751.79521
  23965444.8444   -1544092.31745  -1108019.54461
  21642723.4774  -12195499.66047  -9392778.33462
  23430197.1484   -5133130.85345  -3899344.93561
 91  4  2 22 40  0.0000000  0  6G18G19G11G16G 2G 6
  22524670.484    10265704.497 6   7988377.52421
  21067075.2344     425449.97446    335855.04763
  22936779.148    -3472781.056 6  -2657154.29321
  23966201.820    -1540105.807 5  -1104913.24821
  21637622.9304  -12222297.56247  -9413659.72162
  23423773.8834   -5166884.50345  -3925646.32661
 91  4  2 22 40 15.0000000  0  6G18G19G11G16G 2G 6
  22533333.273    10311224.745 6   8023847.75221
  21068694.0704     433943.32246    342473.23663
  22939146.813    -3460326.885 6  -2647449.72821
  23966984.156    -1536008.752 5  -1101720.80221
  21632535.6804  -12249032.21447  -9434491.82862
  23417349.719    -5200647.807 5  -3951955.22821
 91  4  2 22 40 30.0000000  0  6G18G19G11G16G 2G 6
  22542006.4304   10356800.55646   8059361.26761
  21070317.7344     442481.88846    349126.65963
  22941545.281    -3447736.092 6  -2637638.70721
  23967783.523    -1531801.865 5  -1098442.78121
  21627460.8054  -12275704.32047  -9455275.19862
  23410920.969    -5234421.730 5  -3978272.40621
 91  4  2 22 40 45.0000000  0  6G18G19G11G16G 2G 6
  22550690.320    10402435.007 6   8094920.46921
  21071951.3364     451069.46646    355818.27863
  22943966.2274   -3435005.16946  -2627718.49561
  23968605.922    -1527481.563 5  -1095076.38221
  21622396.6174  -12302310.44747  -9476007.15962
  23404494.0634   -5268202.57045  -4004594.99161
 91  4  2 22 41  0.0000000  0  6G18G19G11G16G 2G 6
  22559384.375    10448123.978 6   8130522.15921
  21073596.0314     459701.93846    362544.87263
  22946413.664    -3422138.281 6  -2617692.34121
  23969448.211    -1523052.433 5  -1091625.18821
  21617346.4454  -12328854.71547  -9496690.91162
  23398063.2814   -5301994.27245  -4030926.02761
 91  4  2 22 41 15.0000000  0  6G18G19G11G16G 2G 6
  22568088.375    10493865.536 6   8166164.81521
  21075246.5704     468377.81946    369305.29963
  22948889.281    -3409137.080 6  -2607561.52321
  23970314.125    -1518515.626 5  -1088090.08621
  21612306.0784  -12355338.56947  -9517327.59262
  23391629.8204   -5335798.45045  -4057266.79161
 91  4  2 22 41 30.0000000  0  6G18G19G11G16G 2G 6
  22576804.141    10539665.002 6   8201852.60321
  21076904.7274     477103.01646    376104.14763
  22951390.602    -3395995.956 6  -2597321.67321
  23971198.180    -1513865.905 5  -1084466.98121
  21607278.6884  -12381756.19147  -9537912.66962
  23385195.4304   -5369609.25445  -4083612.73261
 91  4  2 22 41 45.0000000  0  6G18G19G11G16G 2G 6
  22585530.492    10585520.669 6   8237584.18821
  21078575.1804     485876.08246    382940.29963
  22953916.820    -3382716.570 6  -2586974.08121
  23972101.3984   -1509105.18045  -1080757.40361
  21602265.3594  -12408109.25747  -9558447.43662
  23378761.3674   -5403428.27745  -4109965.06061
 91  4  2 22 42  0.0000000  0  6G18G19G11G16G 2G 6
  22594265.852    10631427.485 6   8273355.61821
  21080252.5474     494692.33246    389810.10263
  22956469.508    -3369303.965 6  -2576522.68721
  23973030.9064   -1504238.24445  -1076965.06161
  21597261.1804  -12434402.44047  -9578935.54562
  23372321.6334   -5437260.48345  -4136327.66761
 91  4  2 22 42 15.0000000  0  6G18G19G11G16G 2G 6
  22603012.1564   10677390.25546   8309170.66761
  21081939.3594     503556.98546    396717.62663
  22959047.9454   -3355752.92346  -2565963.42761
  23973977.6094   -1499259.96345  -1073085.94961
  21592268.7424  -12460630.65447  -9599373.02862
  23365883.672    -5471100.426 5  -4162696.31421
 91  4  2 22 42 30.0000000  0  6G18G19G11G16G 2G 6
  22611768.859    10723404.495 6   8345025.80821
  21083633.8364     512465.42846    403659.26963
  22961652.1094   -3342068.14246  -2555299.95561
  23974945.664    -1494175.057 5  -1069123.75921
  21587289.3914  -12486798.46247  -9619763.43962
  23359441.9144   -5504952.75545  -4189074.60461
 91  4  2 22 42 45.0000000  0  6G18G19G11G16G 2G 6
  22620537.141    10769473.810 6   8380923.86821
  21085339.9924     521421.98546    410638.40563
  22964281.180    -3328245.777 6  -2544529.27121
  23975931.6024   -1488979.73845  -1065075.51361
  21582322.289   -12512901.688 7  -9640103.53422
  23352998.070    -5538813.457 5  -4215459.41021
 91  4  2 22 43  0.0000000  0  6G18G19G11G16G 2G 6
  22629314.625    10815602.668 6   8416868.32921
  21087055.4384     530431.48446    417658.79263
  22966938.617    -3314281.155 6  -2533647.73321
  23976945.797    -1483669.637 5  -1060937.85821
  21577368.2344  -12538935.74547  -9660389.72762
  23346553.586    -5572677.665 5  -4241846.96721
 91  4  2 22 43 15.0000000  0  6G18G19G11G16G 2G 6
  22638100.953    10861781.794 6   8452851.95821
  21088775.8054     539485.10946    424713.56563
  22969622.266    -3300183.194 6  -2522662.28921
  23977975.227    -1478253.632 5  -1056717.65121
  21572425.594   -12564909.565 7  -9680628.98222
  23340106.1884   -5606554.23745  -4268244.14661
 91  4  2 22 43 30.0000000  0  6G18G19G11G16G 2G 6
  22646899.6804   10908016.34146   8488878.77161
  21090508.3754     548588.11846    431806.81463
  22972331.602    -3285946.963 6  -2511569.10821
  23979028.008    -1472726.558 5  -1052410.91221
  21567495.617   -12590817.875 7  -9700817.19522
  23333656.602    -5640437.965 5  -4294646.90921
 91  4  2 22 43 45.0000000  0  6G18G19G11G16G 2G 6
  22655707.836    10954302.982 6   8524946.17521
  21092250.3284     557737.50546    438936.20463
  22975065.1954   -3271575.65646  -2500370.67961
  23980100.117    -1467091.783 5  -1048020.24921
  21562577.289   -12616663.774 7  -9720956.77222
  23327208.039    -5674332.052 5  -4321057.74721
 91  4  2 22 44  0.0000000  0  6G18G19G11G16G 2G 6
  22664526.344    11000646.825 6   8561058.15121
  21094000.1414     566938.80346    446106.04963
  22977828.211    -3257063.909 6  -2489062.80421
  23981192.7344   -1461344.10045  -1043541.61061
  21557672.422   -12642441.870 7  -9741043.52122
  23320758.133    -5708230.968 5  -4347472.32821
 91  4  2 22 44 15.0000000  0  6G18G19G11G16G 2G 6
  22673356.141    11047040.159 6   8597208.69821
  21095761.5004     576184.69546    453310.64763
  22980613.242    -3242419.353 6  -2477651.45521
  23982308.6024   -1455490.90345  -1038980.74361
  21552777.539   -12668159.554 7  -9761083.19522
  23314304.8054   -5742142.02045  -4373896.38961
 91  4  2 22 44 30.0000000  0  6G18G19G11G16G 2G 6
  22682194.258    11093484.652 6   8633399.10221
  21097530.9924     585477.29546    460551.63663
  22983427.453    -3227640.124 6  -2466135.16021
  23983440.8594   -1449530.55845  -1034336.39861
  21547895.148   -12693814.745 7  -9781074.17122
  23307849.352    -5776063.361 5  -4400328.45621
 91  4  2 22 44 45.0000000  0  6G18G19G11G16G 2G 6
  22691041.609    11139979.447 6   8669628.70921
  21099305.9534     594816.15446    467828.66963
  22986264.734    -3212726.736 6  -2454514.32821
  23984594.438    -1443463.905 5  -1029609.20421
  21543025.211   -12719407.959 7  -9801016.85922
  23301392.102    -5809995.320 5  -4426768.80121
 91  4  2 22 45  0.0000000  0  6G18G19G11G16G 2G 6
  22699899.633    11186527.115 6   8705899.51121
  21101094.1024     604203.96446    475143.84963
  22989128.0004   -3197676.84046  -2442787.12461
  23985771.211    -1437288.422 5  -1024797.20721
  21538167.336   -12744936.547 7  -9820909.18822
  23294932.828    -5843935.388 5  -4453215.46821
 91  4  2 22 45 15.0000000  0  6G18G19G11G16G 2G 6
  22708766.742    11233125.027 6   8742209.45821
  21102887.6254     613638.67346    482495.57363
  22992019.000    -3182492.697 6  -2430955.31221
  23986964.3134   -1431006.35045  -1019902.16961
  21533320.945   -12770402.862 7  -9840752.99222
  23288473.977    -5877885.768 5  -4479670.16821
 91  4  2 22 45 30.0000000  0  6G18G19G11G16G 2G 6
  22717643.992    11279775.283 6   8778560.20321
  21104694.1024     623122.61546    489885.65763
  22994933.766    -3167172.245 6  -2419017.28121
  23988182.742    -1424615.792 5  -1014922.59021
  21528487.359   -12795804.746 7  -9860546.59022
  23282010.891    -5911844.044 5  -4506131.01721
 91  4  2 22 45 45.0000000  0  6G18G19G11G16G 2G 6
  22726531.734    11326479.269 6   8814952.80721
  21106507.0634     632657.46346    497315.41463
  22997874.922    -3151714.085 6  -2406971.94721
  23989419.6724   -1418115.09945  -1009857.18261
  21523665.695   -12821140.531 7  -9880288.68322
  23275548.281    -5945808.666 5  -4532596.80921
 91  4  2 22 46  0.0000000  0  6G18G19G11G16G 2G 6
  22735428.961    11373231.622 6   8851383.10121
  21108328.8444     642238.50746    504781.16763
  23000840.5474   -3136123.16746  -2394823.17261
  23990675.3444   -1411509.48845  -1004710.02761
  21518856.578   -12846414.888 7  -9899982.91322
  23269081.5394   -5979784.48645  -4559071.33661
 91  4  2 22 46 15.0000000  0  6G18G19G11G16G 2G 6
  22744335.328    11420033.368 6   8887851.89021
  21110163.4144     651866.88946    512283.80163
  23003833.1094   -3120398.25846  -2382569.98961
  23991952.9064   -1404797.83845   -999480.23361
  21514059.930   -12871626.553 7  -9919628.28422
  23262613.7974   -6013770.12645  -4585553.52561
 91  4  2 22 46 30.0000000  0  6G18G19G11G16G 2G 6
  22753250.7034   11466889.66646   8924363.18061
  21112003.7034     661548.26546    519827.73263
  23006852.3754   -3104534.14546  -2370208.34361
  23993248.789    -1397974.796 5   -994163.66221
  21509274.531   -12896770.584 7  -9939220.96422
  23256146.0634   -6047760.25545  -4612039.17761
 91  4  2 22 46 45.0000000  0  6G18G19G11G16G 2G 6
  22762176.477    11513798.568 6   8960915.45621
  21113857.3444     671281.02346    527411.70563
  23009897.4224   -3088532.69346  -2357739.68261
  23994569.969    -1391042.617 5   -988762.04121
  21504501.547   -12921848.260 7  -9958761.92922
  23249676.2424   -6081756.47845  -4638529.60361
 91  4  2 22 47  0.0000000  0  6G18G19G11G16G 2G 6
  22771112.453    11560756.853 6   8997506.21521
  21115718.8444     681062.10946    535033.32963
  23012968.8594   -3072397.18946  -2345166.56661
  23995911.148    -1384004.315 5   -983277.73221
  21499741.320   -12946862.736 7  -9978253.65222
  23243206.7034   -6115761.87645  -4665027.18761
 91  4  2 22 47 15.0000000  0  6G18G19G11G16G 2G 6
  22780059.406    11607766.819 6   9034137.24821
  21117589.7114     690894.36646    542694.83563
  23016065.4694   -3056125.20846  -2332487.10861
  23997270.711    -1376857.457 5   -977708.82521
  21494994.266   -12971811.418 7  -9997694.11022
  23236734.047    -6149773.828 5  -4691529.85921
 91  4  2 22 47 30.0000000  0  6G18G19G11G16G 2G 6
  22789014.992    11654827.292 6   9070807.62921
  21119468.8204     700777.03346    550395.60963
  23019186.6024   -3039717.71546  -2319702.05861
  23998649.844    -1369603.132 5   -972056.17921
  21490258.734   -12996695.366 7 -10017084.12322
  23230259.8444   -6183793.27745  -4718038.38761
 91  4  2 22 47 45.0000000  0  6G18G19G11G16G 2G 6
  22797978.914    11701934.905 6   9107514.74921
  21121360.2034     710707.23846    558133.43163
  23022333.1724   -3023177.57746  -2306813.64861
  24000051.523    -1362244.262 5   -966322.07421
  21485535.359   -13021517.332 7 -10036425.84422
  23223782.3444   -6217822.78945  -4744554.75061
 91  4  2 22 48  0.0000000  0  6G18G19G11G16G 2G 6
  22806953.1174   11749091.43546   9144259.98461
  21123255.7734     720686.80546    565909.72063
  23025507.4614   -3006503.40846  -2293820.79561
  24001472.0084   -1354779.54345   -960505.48261
  21480824.305   -13046275.688 7 -10055717.99422
  23217307.766    -6251860.775 5  -4771077.72321
 91  4  2 22 48 15.0000000  0  6G18G19G11G16G 2G 6
  22815935.922    11796295.363 6   9181042.14821
  21125167.8674     730714.58946    573723.56963
  23028705.2274   -2989696.52046  -2280724.52961
  24002912.664    -1347209.956 5   -954607.18921
  21476124.492   -13070971.656 7 -10074961.53322
  23210828.477    -6285908.373 5  -4797608.17921
 91  4  2 22 48 30.0000000  0  6G18G19G11G16G 2G 6
  22824928.5784   11843549.00846   9217863.05261
  21127083.0474     740793.48446    581577.25063
  23031930.3524   -2972754.32046  -2267522.82161
  24004373.6804   -1339533.33045   -948625.46561
  21471437.500   -13095602.260 7 -10094154.13422
  23204347.1334   -6319962.86945  -4824144.01461
 91  4  2 22 48 45.0000000  0  6G18G19G11G16G 2G 6
  22833929.4454   11890850.82646   9254721.49461
  21129012.1884     750922.15046    589469.71463
  23035179.1724   -2955678.44646  -2254216.95361
  24005853.094    -1331751.501 5   -942561.79621
  21466761.820   -13120169.106 7 -10113297.06622
  23197866.281    -6354025.666 5  -4850686.32321
 91  4  2 22 49  0.0000000  0  6G18G19G11G16G 2G 6
  22842939.7034   11938202.58146   9291618.83861
  21130947.8204     761102.76846    597402.66063
  23038454.914    -2938466.946 6  -2240805.40821
  24007354.602    -1323862.407 5   -936414.51421
  21462100.0084  -13144670.11747 -10132388.69162
  23191381.5394   -6388094.60245  -4877233.40461
 91  4  2 22 49 15.0000000  0  6G18G19G11G16G 2G 6
  22851958.5394   11985600.30246   9328552.01161
  21132896.4774     771331.62846    605373.19863
  23041753.367    -2921123.748 6  -2227291.23921
  24008876.3834   -1315869.66445   -930186.49261
  21457449.4454  -13169109.17447 -10151432.04362
  23184896.656    -6422173.460 5  -4903788.23421
 91  4  2 22 49 30.0000000  0  6G18G19G11G16G 2G 6
  22860987.7974   12033042.29446   9365519.67161
  21134850.3834     781607.59346    613380.43762
  23045078.9924   -2903650.32546  -2213675.59261
  24010417.6884   -1307774.94845   -923879.00661
  21452810.3594  -13193487.53647 -10170428.10062
  23178410.414    -6456263.439 5  -4930351.72321
 91  4  2 22 49 45.0000000  0  6G18G19G11G16G 2G 6
  22870024.4534   12080532.82146   9402525.15461
  21136816.6094     791935.16746    621427.89263
  23048430.516    -2886042.216 6  -2199955.00521
  24011977.3134   -1299573.99845   -917488.73461
  21448183.0164  -13217800.59147 -10189373.27062
  23171919.9924   -6490359.94845  -4956920.29561
 91  4  2 22 50  0.0000000  0  6G18G19G11G16G 2G 6
  22879069.1724   12128071.51446   9439568.17461
  21138792.8204     802314.42346    629515.62163
  23051806.7894   -2868299.73546  -2186129.69861
  24013558.4774   -1291267.23345   -911015.99761
  21443568.9304  -13242048.46547 -10208267.64662
  23165430.969    -6524463.195 5  -4983494.11321
 91  4  2 22 50 15.0000000  0  6G18G19G11G16G 2G 6
  22888124.3364   12175651.34346   9476643.23161
  21140776.1644     812738.53646    637638.30063
  23055207.1884   -2850429.84746  -2172205.11861
  24015158.5474   -1282861.76345   -904466.35561
  21438966.4064  -13266237.97647 -10227116.55062
  23158939.453    -6558579.854 5  -5010078.39621
 91  4  2 22 50 30.0000000  0  6G18G19G11G16G 2G 6
  22897188.2584   12223280.11846   9513756.45061
  21142768.0474     823215.99246    645802.54263
  23058633.6564   -2832424.42546  -2158174.92461
  24016779.2504   -1274349.41845   -897833.46561
  21434374.977   -13290361.042 7 -10245913.67322
  23152446.031    -6592701.662 5  -5036666.68921
 91  4  2 22 50 45.0000000  0  6G18G19G11G16G 2G 6
  22906260.8594   12270953.58546   9550904.46861
  21144773.5704     833742.61746    654005.10263
  23062084.4144   -2814287.91746  -2144042.58261
  24018418.2734   -1265734.38445   -891120.52561
  21429796.2344  -13314421.67547 -10264662.15162
  23145951.5554   -6626832.78445  -5063262.23261
 91  4  2 22 51  0.0000000  0  6G18G19G11G16G 2G 6
  22915343.2664   12318680.14146   9588093.87861
  21146786.0474     844327.31446    662252.91363
  23065563.0394   -2796011.65246  -2129801.34361
  24020079.984    -1257008.179 5   -884320.97321
  21425231.3594  -13338411.14847 -10283355.17562
  23139456.0394   -6660964.35045  -5089858.13561
 91  4  2 22 51 15.0000000  0  6G18G19G11G16G 2G 6
  22924433.859    12366452.484 6   9625318.94321
  21148811.2424     854962.74246    670540.25163
  23069065.3984   -2777603.12546  -2115457.04161
  24021759.180    -1248178.531 5   -877440.80921
  21420678.1804  -13362336.87847 -10301998.53462
  23132959.266    -6695103.665 5  -5116460.06321
 91  4  2 22 51 30.0000000  0  6G18G19G11G16G 2G 6
  22933532.1334   12414267.17346   9662577.01861
  21150844.2814     865645.98446    678864.84663
  23072591.9614   -2759065.60246  -2101012.22861
  24023460.1334   -1239248.61645   -870482.51761
  21416136.5784  -13386201.94047 -10320594.62062
  23126460.367    -6729253.829 5  -5143070.44221
 91  4  2 22 51 45.0000000  0  6G18G19G11G16G 2G 6
  22942640.578    12462127.839 6   9699870.90321
  21152886.328      876381.605 6    687230.25323
  23076146.4304   -2740394.79746  -2086463.55161
  24025180.1954   -1230214.13045   -863442.75861
  21411607.7584  -13410002.01347 -10339140.06362
  23119959.7894   -6763410.18345  -5169685.66561
 91  4  2 22 52  0.0000000  0  6G18G19G11G16G 2G 6
  22951758.625    12510041.002 6   9737205.70621
  21154939.3284     887176.00046    695641.45963
  23079726.0234   -2721584.59046  -2071806.25761
  24026919.227    -1221068.808 5   -856316.60821
  21407092.6564  -13433730.71747 -10357629.89562
  23113458.1484   -6797566.55845  -5196300.89061
 91  4  2 22 52 15.0000000  0  6G18G19G11G16G 2G 6
  22960886.141    12558006.343 6   9774581.16321
  21157005.492      898029.082 6    704098.39823
  23083332.6884   -2702635.27546  -2057040.55861
  24028680.0084   -1211813.41345   -849104.70961
  21402590.9534  -13457388.14247 -10376064.18562
  23106961.2344   -6831723.03145  -5222916.19661
 91  4  2 22 52 30.0000000  0  6G18G19G11G16G 2G 6
  22970023.2114   12606020.39246   9811994.58061
  21159081.688      908937.985 6    712598.82623
  23086962.8524   -2683550.22446  -2042169.09261
  24030460.9384   -1202451.00045   -841809.41561
  21398101.9384  -13480977.36447 -10394445.33062
  23100459.680    -6865882.575 5  -5249533.89421
 91  4  2 22 52 45.0000000  0  6G18G19G11G16G 2G 6
  22979168.430    12654082.635 6   9849445.55321
  21161168.1334     919902.58546    721142.66363
  23090621.156    -2664329.642 6  -2027192.02221
  24032262.2814   -1192981.87945   -834430.97361
  21393625.7584  -13504498.41747 -10412773.35262
  23093959.6804   -6900045.28445  -5276154.06361
 91  4  2 22 53  0.0000000  0  6G18G19G11G16G 2G 6
  22988322.641    12702187.490 6   9886929.71921
  21163263.695      930917.703 6    729725.85823
  23094304.320    -2644979.008 6  -2012113.62921
  24034084.7034   -1183411.49245   -826973.63261
  21389161.2814  -13527956.94047 -10431052.65562
  23087456.227    -6934216.491 5  -5302780.85221
 91  4  2 22 53 15.0000000  0  6G18G19G11G16G 2G 6
  22997484.852    12750335.622 6   9924447.60821
  21165370.391      941984.417 6    738349.26023
  23098009.445    -2625497.595 6  -1996933.31921
  24035925.117    -1173739.335 5   -819436.99321
  21384709.4384  -13551351.87747 -10449282.41162
  23080954.164    -6968395.236 5  -5329413.51821
 91  4  2 22 53 30.0000000  0  6G18G19G11G16G 2G 6
  23006655.8204   12798527.78246   9961999.81061
  21167485.2274     953103.38946    747013.38463
  23101742.8754   -2605884.83846  -1981650.66061
  24037784.234    -1163964.896 5   -811820.63321
  21380269.7584  -13574682.48847 -10467462.04062
  23074447.672    -7002580.653 5  -5356051.38121
 91  4  2 22 53 45.0000000  0  6G18G19G11G16G 2G 6
  23015836.070    12846764.578 6   9999586.79521
  21169611.5944     964275.98046    755719.29063
  23105500.1564   -2586139.73746  -1966264.88461
  24039662.273    -1154087.219 5   -804123.86421
  21375842.1644  -13597947.60547 -10485590.63762
  23067940.3674   -7036771.53245  -5382693.50661
 91  4  2 22 54  0.0000000  0  6G18G19G11G16G 2G 6
  23025023.813    12895047.720 6  10037209.89021
  21171748.992      975504.248 6    764468.57723
  23109282.5944   -2566260.49346  -1950774.57461
  24041564.7504   -1144104.42945   -796345.14161
  21371428.9774  -13621145.25647 -10503666.66162
  23061432.8204   -7070965.79645  -5409338.26661
 91  4  2 22 54 15.0000000  0  6G18G19G11G16G 2G 6
  23034219.0554   12943375.74846  10074867.96361
  21173895.0784     986787.06246    773260.37362
  23113091.0704   -2546248.57146  -1935180.87261
  24043483.172    -1134017.854 5   -788485.58921
  21367026.7814  -13644276.86247 -10521691.22162
  23054923.930    -7105164.764 5  -5435986.68321
 91  4  2 22 54 30.0000000  0  6G18G19G11G16G 2G 6
  23043425.4144   12991747.11446  10112559.80661
  21176052.6254     998123.36446    782093.84363
  23116923.9224   -2526105.45746  -1919484.94361
  24045421.1724   -1123829.43945   -780546.68861
  21362636.5164  -13667343.65547 -10539665.28062
  23048417.211    -7139369.643 6  -5462639.72321
 91  4  2 22 54 45.0000000  0  6G18G19G11G16G 2G 6
  23052638.4614   13040158.69546  10150282.98461
  21178220.4144    1009510.30746    790966.77963
  23120781.6334   -2505834.26046  -1903689.21361
  24047379.1804   -1113542.02344   -772530.60861
  21358258.1414  -13690348.54147 -10557591.09962
  23041907.2034   -7173583.19946  -5489299.51261
 91  4  2 22 55  0.0000000  0  6G18G19G11G16G 2G 6
  23061856.141    13088605.742 6  10188033.78721
  21180395.0394    1020943.53346    799875.78063
  23124662.7734   -2485439.35746  -1887797.08661
  24049355.5634   -1103160.16845   -764440.95761
  21353891.8674  -13713295.78447 -10575472.00562
  23035391.7584   -7207809.76546  -5515969.44561
 91  4  2 22 55 15.0000000  0  6G18G19G11G16G 2G 6
  23071083.1564   13137094.30446  10225816.94461
  21182581.4774    1032429.34746    808825.75063
  23128568.492    -2464914.671 6  -1871803.83221
  24051351.3284   -1092677.69445   -756272.91561
  21349537.4064  -13736179.02747 -10593303.03162
  23028876.9224   -7242042.98446  -5542644.56761
 91  4  2 22 55 30.0000000  0  6G18G19G11G16G 2G 6
  23080320.3284   13185628.21346  10263635.43161
  21184777.9614    1043971.80246    817819.86263
  23132499.7344   -2444256.59746  -1855706.63161
  24053365.1724   -1082090.92845   -748023.59561
  21345196.4454  -13758994.55347 -10611081.30062
  23022363.820    -7276278.954 6  -5569321.82821
 91  4  2 22 55 45.0000000  0  6G18G19G11G16G 2G 6
  23089563.891    13234204.571 6  10301487.00321
  21186984.4064    1055568.55646    826856.28663
  23136456.0164   -2423467.82346  -1839507.58461
  24055399.484    -1071402.688 4   -739695.18421
  21340867.0314  -13781744.93647 -10628808.80762
  23015847.875    -7310520.165 6  -5596003.17921
 91  4  2 22 56  0.0000000  0  6G18G19G11G16G 2G 6
  23098816.2424   13282824.72146  10339372.68961
  21189200.570     1067221.396 6    835936.40823
  23140436.9534   -2402546.80646  -1823205.49161
  24057455.102    -1060611.528 4   -731286.61721
  21336549.9384  -13804428.39747 -10646484.16662
  23009330.2734   -7344764.72646  -5622687.13661
 91  4  2 22 56 15.0000000  0  6G18G19G11G16G 2G 6
  23108075.914    13331484.214 6  10377289.04521
  21191428.836     1078926.469 6    845057.23223
  23144442.8134   -2381497.71946  -1806803.60261
  24059526.500    -1049721.772 4   -722801.18021
  21332244.9384  -13827049.00347 -10664110.54662
  23002813.344    -7379016.718 6  -5649376.89421
 91  4  2 22 56 30.0000000  0  6G18G19G11G16G 2G 6
  23117343.0084   13380184.29346  10415237.00861
  21193668.461     1090685.120 6    854219.80422
  23148471.4774   -2360319.39546  -1790301.00761
  24061618.5234   -1038732.15444   -714237.99661
  21327952.5944  -13849605.37247 -10681686.87662
  22996293.688    -7413274.645 6  -5676071.25821
 91  4  2 22 56 45.0000000  0  6G18G19G11G16G 2G 6
  23126617.7274   13428926.12046  10453217.49961
  21195916.3594    1102498.80746    863425.26663
  23152527.5394   -2339010.76246  -1773696.87261
  24063729.742    -1027641.654 4   -705596.15521
  21323673.2114  -13872096.23547 -10699212.16162
  22989773.414    -7447537.147 6  -5702769.20521
 91  4  2 22 57  0.0000000  0  6G18G19G11G16G 2G 6
  23135900.8364   13477707.49046  10491228.81261
  21198175.7894    1114365.74246    872672.22063
  23156605.8834   -2317574.00346  -1756992.90361
  24065856.7194   -1016452.53344   -696877.45661
  21319405.3204  -13894523.68647 -10716688.03262
  22983251.969    -7481806.209 6  -5729472.26321
 91  4  2 22 57 15.0000000  0  6G18G19G11G16G 2G 6
  23145192.0704   13526531.57346  10529273.41161
  21200442.500     1126289.340 6    881963.32423
  23160711.563    -2296005.919 6  -1740186.59421
  24068004.7114   -1005161.35344   -688079.24161
  21315150.5164  -13916884.25947 -10734111.79462
  22976730.406    -7516078.320 6  -5756177.69921
 91  4  2 22 57 30.0000000  0  6G18G19G11G16G 2G 6
  23154490.7504   13575399.54946  10567352.19261
  21202723.3204    1138271.15246    891299.78963
  23164840.7814   -2274305.03846  -1723276.80961
  24070169.977     -993766.843 4   -679200.48621
  21310908.7734  -13939176.34747 -10751482.18963
  22970208.523    -7550351.863 6  -5782884.24621
 91  4  2 22 57 44.9990000  0  6G18G19G11G16G 2G 6
  23163795.0194   13624296.02146  10605453.18961
  21205011.1444    1150298.87546    900672.03363
  23168991.925    -2252484.866 6  -1706274.06721
  24072356.5814    -982282.00744   -670251.39561
  21306677.2064  -13961410.08847 -10768807.12062
  22963683.972    -7584636.227 6  -5809599.23121
 91  4  2 22 57 59.9990000  0  6G18G19G11G16G 2G 6
  23173108.6754   13673235.67846  10643587.83261
  21207313.761     1162382.425 6    910087.77423
  23173169.7694   -2230534.39346  -1689169.79961
  24074564.808     -970697.257 4   -661224.43721
  21302458.4254  -13983580.32647 -10786082.57162
  22957158.3704   -7618927.55646  -5836319.65461
 91  4  2 22 58 14.9990000  0  6G18G19G11G16G 2G 6
  23182429.276    13722209.750 6  10681749.28521
  21209619.948     1174515.709 6    919542.26623
  23177370.0734   -2208460.66746  -1671969.48661
  24076784.050     -959018.812 4   -652124.46621
  21298250.5974  -14005691.14947 -10803311.72462
  22950631.8704   -7653229.03446  -5863047.98261
 91  4  2 22 58 29.9990000  0  6G18G19G11G16G 2G 6
  23191756.1444   13771223.36546  10719941.55461
  21211937.644     1186704.561 6    929040.05723
  23181595.9484   -2186258.08246  -1654668.77361
  24079027.245     -947241.085 4   -642947.14621
  21294055.6204  -14027736.79647 -10820490.09562
  22944103.9014   -7687534.77946  -5889779.62761
 91  4  2 22 58 44.9990000  0  6G18G19G11G16G 2G 6
  23201090.237    13820275.501 6  10758163.84021
  21214268.808     1198948.120 6    938580.47723
  23185844.323    -2163927.834 6  -1637268.57321
  24081287.7064    -935365.18244   -633693.28861
  21289872.1364  -14049717.99847 -10837618.24962
  22937573.300    -7721845.726 6  -5916515.33121
 91  4  2 22 58 59.9990000  0  6G18G19G11G16G 2G 6
  23210431.2454   13869363.03646  10796413.70361
  21216606.8864    1211243.86546    948161.56563
  23190117.4174   -2141472.80646  -1619771.14861
  24083567.8394    -923394.12344   -624365.33761
  21285702.0504  -14071637.47747 -10854698.30462
  22931042.5974   -7756164.36846  -5943257.04161
 91  4  2 22 59 14.9990000  0  6G18G19G11G16G 2G 6
  23219780.698    13918486.870 6  10834691.85421
  21218959.409     1223592.796 6    957784.09423
  23194414.1514   -2118892.23146  -1602175.90761
  24085863.589     -911327.363 4   -614962.76321
  21281542.815   -14093494.456 7 -10871729.65722
  22924510.9254   -7790489.74846  -5970003.98861
 91  4  2 22 59 29.9990000  0  6G18G19G11G16G 2G 6
  23229133.7844   13967644.20146  10872996.09361
  21221320.276     1235992.590 6    967446.25423
  23198734.0654   -2096188.69146  -1584484.84261
  24088176.495     -899167.175 4   -605487.47021
  21277394.800   -14115291.387 7 -10888714.22322
  22917977.940    -7824824.272 6  -5996758.06421
 91  4  2 22 59 44.9990000  0  6G18G19G11G16G 2G 6
  23238495.058    14016834.370 6  10911325.93221
  21223687.7224    1248443.14346    977147.97063
  23203077.9334   -2073362.75246  -1566698.40361
  24090506.370     -886914.586 4   -595940.08921
  21273258.2764  -14137028.69947 -10905652.33062
  22911442.753    -7859168.108 6  -6023519.39721
 91  4  2 22 59 59.9990000  0  6G18G19G11G16G 2G 6
  23247861.558    14066060.542 6  10949683.82121
  21226065.464     1260947.697 6    986891.76123
  23207445.034    -2050411.467 6  -1548814.29821
  24092858.394     -874566.400 4   -586318.21821
  21269133.315   -14158703.093 7 -10922541.41322
  22904904.409    -7893518.057 6  -6050285.49021
 91  4  2 23  0 14.9990000  0  6G18G19G11G16G 2G 6
  23257236.9954   14115323.07746  10988070.04461
  21228457.362     1273507.122 6
  23211837.105    -2027334.206 6  -1530832.03621
  24095226.5344    -862121.82844
  21265020.5894  -14180313.62447 -10939380.73162
  22898367.3394   -7927873.20646  -6077055.64361
 91  4  2 23  0 29.9990000  0  6G18G19G11G16G 2G 6
  23266617.214    14164619.945 6  11026483.01421
  21230857.222     1286119.669 6
  23216250.167    -2004133.056 6  -1512753.23021
  24097612.4954    -849583.11644
  21260920.4094  -14201862.42347 -10956171.94562
  22891829.112    -7962235.327 6  -6103831.21221
 91  4  2 23  0 44.9990000  0  6G18G19G11G16G 2G 6
  23276004.9094   14213950.42646  11064922.17561
  21233267.448     1298785.034 6
  23220690.292    -1980808.480 6  -1494578.25321
  24100018.7534    -836950.82744
  21256832.362   -14223349.707 7 -10972915.22822
  22885287.0974   -7996604.76846  -6130612.49161
 91  4  2 23  0 59.9990000  0  6G18G19G11G16G 2G 6
  23285400.206    14263319.810 6  11103391.65421
  21235687.9954    1311508.89746
  23225153.605    -1957355.206 6  -1476302.99221
  24102441.2924    -824220.02044
  21252755.448   -14244770.078 7 -10989606.37322
  22878747.5974   -8030975.90146  -6157395.10361
 91  4  2 23  1 14.9990000  0  6G18G19G11G16G 2G 6
  23294800.2304   14312722.82346  11141887.32661
  21238120.128     1324286.318 6
  23229641.956    -1933778.593 6  -1457931.62621
  24104880.7374    -811395.77644
  21248690.065   -14266128.659 7 -11006249.37122
  22872204.9564   -8065353.61646  -6184182.83761
 91  4  2 23  1 29.9990000  0  6G18G19G11G16G 2G 6
  23304209.8084   14362160.83046  11180410.27561
  21240562.058     1337119.276 6   1046246.15522
  23234151.315    -1910076.881 6  -1439462.78721
  24107337.2224    -798476.45344
  21244638.042   -14287423.412 7 -11022842.63322
  22865663.5814   -8099736.11346  -6210974.29761
 91  4  2 23  1 44.9990000  0  6G18G19G11G16G 2G 6
  23313623.7144   14411629.02646  11218956.74361
  21243013.980     1350003.064 6   1056285.45123
  23238682.6674   -1886255.10946  -1420900.38961
  24109809.7374    -785467.20544
  21240596.933   -14308659.166 7 -11039389.92122
  22859119.2844   -8134128.05146  -6237773.11861
 91  4  2 23  1 59.9990000  0  6G18G19G11G16G 2G 6
  23323041.636    14461124.719 6  11257524.62921
  21245474.370     1362935.256 6   1066362.46722
  23243239.565    -1862315.946 6  -1402246.53221
  24112300.2534    -772370.63343
  21236566.839   -14329838.338 7 -11055893.12422
  22852570.8554   -8168531.77346  -6264581.11561
 91  4  2 23  2 14.9990000  0  6G18G19G11G16G 2G 6
  23332465.355    14510649.016 6  11296114.80321
  21247945.409     1375917.449 6   1076478.43823
  23247817.995    -1838258.309 6  -1383500.34021
  24114815.6754    -759185.28243
  21232547.136   -14350959.713 7 -11072351.29022
  22846022.534    -8202945.861 6  -6291397.19921
 91  4  2 23  2 29.9990000  0  6G18G19G11G16G 2G 6
  23341895.730    14560204.029 5  11334728.90221
  21250425.011     1388952.202 6   1086635.36723
  23252418.151    -1814079.694 6  -1364659.89021
  24117340.9254    -745909.05644
  21228540.495   -14372020.767 7 -11088762.45522
  22839470.8704   -8237367.63246  -6318219.26261
 91  4  2 23  2 44.9990000  0  5G18G19G11G 2G 6
  23351331.2764   14609790.33245  11373367.39961
  21252916.253     1402040.050 6   1096833.67322
  23257041.7534   -1789779.87746  -1345724.99361
  21224544.136   -14393020.857 7 -11105126.11622
  22832920.9564   -8271796.44646  -6345046.82361
 91  4  2 23  2 59.9990000  0  5G18G19G11G 2G 6
  23360772.737    14659403.875 5  11412027.10521
  21255415.972     1415177.700 6   1107070.77923
  23261688.480    -1765362.693 6  -1326698.63221
  21220558.870   -14413963.644 7 -11121445.12122
  22826366.4174   -8306235.88746  -6371882.65061
 91  4  2 23  3 14.9990000  0  5G18G19G11G 2G 6
  23370219.5114   14709046.40845  11450709.41461
  21257926.409     1428367.356 6   1117348.41522
  23266357.370    -1740826.288 6  -1307579.37621
  21216584.222   -14434847.139 7 -11137717.92322
  22819813.409    -8340683.748 6  -6398725.04921
 91  4  2 23  3 29.9990000  0  5G18G19G11G 2G 6
  23379672.9724   14758717.82745  11489414.22561
  21260446.0734    1441608.97046   1127666.52962
  23271049.394    -1716170.831 6  -1288367.35621
  21212621.526   -14455671.383 7 -11153944.56122
  22813253.8234   -8375140.03346  -6425574.00561
 91  4  2 23  3 44.9990000  0  5G18G19G11G 2G 6
  23389130.7764   14808416.84345  11528140.54561
  21262976.230     1454901.871 6   1138024.61522
  23275764.6444   -1691397.50946  -1269063.48361
  21208669.667   -14476437.259 7 -11170125.71322
  22806695.9484   -8409605.48346  -6452430.10261
 91  4  2 23  3 59.9990000  0  5G18G19G11G 2G 6
  23398591.7304   14858143.95345  11566888.75661
  21265516.300     1468246.974 6   1148423.37922
  23280500.815    -1666505.737 6  -1249667.31021
  21204730.058   -14497143.993 7 -11186260.78122
  22800136.6754   -8444079.21946  -6479292.66261
 91  4  2 23  4 14.9990000  0  5G18G19G11G 2G 6
  23408064.7764   14907911.44045  11605668.42461
  21268067.073     1481656.569 6   1158872.39422
  23285262.675    -1641483.294 6  -1230169.32421
  21200802.901   -14517779.205 7 -11202340.12122
  22793575.4724   -8478548.77046  -6506151.95061
 91  4  2 23  4 29.9990000  0  5G18G19G11G 2G 6
  23417540.3314   14957710.59145  11644472.76061
  21270628.901     1495122.524 6   1169365.32123
  23290048.026    -1616338.565 6  -1210576.05421
  21196888.511   -14538351.134 7 -11218370.14922
  22787016.1984   -8513022.27446  -6533014.33061
 91  4  2 23  4 44.9990000  0  5G18G19G11G 2G 6
  23427022.550    15007541.415 5  11683301.78621
  21273203.136     1508645.343 6   1179902.56222
  23294855.737    -1591071.685 6  -1190887.59421
  21192985.605   -14558859.600 7 -11234350.72323
  22780455.4724   -8547499.43546  -6559879.55361
 91  4  2 23  4 59.9990000  0  5G18G19G11G 2G 6
  23436510.901    15057399.350 6  11722151.93021
  21275784.862     1522220.767 6   1190480.79222
  23299686.480    -1565687.073 6  -1171107.40121
  21189094.433   -14579308.891 7 -11250285.18922
  22773893.2534   -8581984.58646  -6586751.00261
 91  4  2 23  5 14.9990000  0  5G18G19G11G 2G 6
  23446003.8474   15107284.38046  11761023.20161
  21278378.980     1535849.215 6   1201100.34023
  23304539.214    -1540184.683 6  -1151235.42221
  21185213.495   -14599698.678 7 -11266173.28522
  22767329.9724   -8616477.21546  -6613628.28161
 91  4  2 23  5 29.9990000  0  5G18G19G11G 2G 6
  23455500.581    15157194.130 6  11799913.72521
  21280982.909     1549528.549 6   1211759.54123
  23309415.300    -1514567.069 6  -1131273.66321
  21181345.175   -14620031.200 7 -11282016.76322
  22760762.1674   -8650979.54346  -6640513.11761
 91  4  2 23  5 44.9990000  0  5G18G19G11G 2G 6
  23465003.0974   15207131.42846  11838825.72361
  21283596.105     1563262.120 6   1222460.99922
  23314311.167    -1488831.034 6  -1111219.62621
  21177488.144   -14640303.191 7 -11297813.07223
  22754196.7224   -8685488.05546  -6667402.77461
 91  4  2 23  5 59.9990000  0  5G18G19G11G 2G 6
  23474513.706    15257101.488 6  11877763.21921
  21286220.3474    1577055.22246   1233208.84163
  23319232.808    -1462971.616 6  -1091069.44721
  21173641.378   -14660509.491 7 -11313558.19723
  22747629.8704   -8719997.56646  -6694293.21261
 91  4  2 23  6 14.9990000  0  5G18G19G11G 2G 6
  23484027.831    15307097.650 6  11916721.07021
  21288855.8784    1590901.68546   1243998.26863
  23324176.011    -1436995.394 6  -1070828.25421
  21169807.675   -14680656.479 7 -11329257.10323
  22741061.7764   -8754514.15646  -6721189.16561
 91  4  2 23  6 29.9990000  0  5G18G19G11G 2G 6
  23493546.003    15357111.917 6  11955693.03021
  21291499.847     1604794.113 6   1254823.51322
  23329139.394    -1410910.223 6  -1050502.16421
  21165983.690   -14700751.873 7 -11344915.80722
  22734489.456    -8789045.548 6  -6748096.64721
 91  4  2 23  6 44.9990000  0  5G18G19G11G 2G 6
  23503067.8474   15407150.32346  11994683.81261
  21294153.565     1618738.687 6   1265689.39623
  23334124.6594   -1384710.24346  -1030086.60661
  21162171.151   -14720789.651 7 -11360529.61323
  22727916.8474   -8823585.39046  -6775010.71161
 91  4  2 23  6 59.9990000  0  5G18G19G11G 2G 6
  23512593.7614   15457214.70146  12033694.80661
  21296816.878     1632737.294 6   1276597.37922
  23339133.2844   -1358393.63446  -1009580.16861
  21158369.190   -14740767.673 7 -11376096.85422
  22721341.9804   -8858131.66546  -6801929.79661
 91  4  2 23  7 14.9990000  0  5G18G19G11G 2G 6
  23522125.0114   15507297.64446  12072720.27261
  21299490.151     1646782.887 6   1287541.97322
  23344161.886    -1331967.605 6   -988988.47121
  21154577.589   -14760692.887 7 -11391622.94823
  22714767.1204   -8892691.15746  -6828859.18461
 91  4  2 23  7 29.9990000  0  5G18G19G11G 2G 6
  23531659.519    15557405.677 5  12111765.29821
  21302172.276     1660882.488 6   1298528.65623
  23349212.2304   -1305425.67846   -968306.46061
  21150796.769   -14780558.726 7 -11407102.77323
  22708188.222    -8927257.165 6  -6855793.64721
 91  4  2 23  7 44.9990000  0  5G18G19G11G 2G 6
  23541200.151    15607539.222 5  12150830.20621
  21304866.237     1675037.396 6   1309558.43322
  23354283.9874   -1278767.14046   -947533.57761
  21147028.706   -14800364.121 7 -11422535.50422
  22701610.0264   -8961828.51546  -6882732.26161
 91  4  2 23  7 59.9990000  0  5G18G19G11G 2G 6
  23550745.394    15657695.194 5  12189912.57021
  21307570.550     1689244.673 6   1320629.01223
  23359379.440    -1251995.230 6   -926672.36921
  21143270.300   -14820112.147 7 -11437923.52923
  22695030.448    -8996408.177 6  -6909677.37621
 91  4  2 23  8 14.9990000  0  5G18G19G11G 2G 6
  23560294.300    15707875.224 5  12229013.70221
  21310284.276     1703506.237 6   1331741.90022
  23364496.0654   -1225108.26946   -905721.49861
  21139524.401   -14839800.843 7 -11453265.32323
  22688448.6514   -9030994.16446  -6936627.40961
 91  4  2 23  8 29.9990000  0  5G18G19G11G 2G 6
  23569846.214    15758079.591 5  12268133.78121
  21313006.737     1717822.787 6   1342897.62923
  23369634.417    -1198106.008 6   -884680.79621
  21135788.542   -14859429.781 7 -11468560.55623
  22681867.058    -9065585.845 6  -6963581.87521
 91  4  2 23  8 44.9990000  0  5G18G19G11G 2G 6
  23579403.6834   15808303.25945  12307268.90361
  21315742.276     1732189.647 6   1354092.56722
  23374794.1284   -1170993.40146   -863554.09361
  21132063.526   -14879003.863 7 -11483813.03823
  22675283.2144   -9100187.73646  -6990544.29661
 91  4  2 23  8 59.9990000  0  5G18G19G11G 2G 6
  23588966.261    15858552.006 5  12346423.53921
  21318487.980     1746612.819 6   1365331.37422
  23379976.105    -1143764.663 6   -842336.91921
  21128350.503   -14898516.983 7 -11499018.02322
  22668695.6904   -9134793.83446  -7017510.00361
 91  4  2 23  9 14.9990000  0  5G18G19G11G 2G 6
  23598534.995    15908827.860 5  12385599.30121
  21321242.933     1761094.728 6   1376615.95322
  23385178.808    -1116417.781 6   -821027.68421
  21124649.323   -14917966.891 7 -11514173.75423
  22662111.222    -9169401.803 6  -7044477.17421
 91  4  2 23  9 29.9990000  0  5G18G19G11G 2G 6
  23608106.745    15959129.102 5  12424794.85621
  21324010.870     1775633.925 6   1387945.17722
  23390405.237    -1088954.515 6   -799627.75521
  21120959.9404  -14937355.21747 -11529281.50063
  22655524.769    -9204013.000 6  -7071446.85121
 91  4  2 23  9 44.9990000  0  5G18G19G11G 2G 6
  23617683.159    16009451.649 5  12464007.02221
  21326786.073     1790226.702 6   1399316.14822
  23395653.503    -1061378.898 6   -778140.28221
  21117281.987   -14956685.646 7 -11544344.12623
  22648937.222    -9238631.117 6  -7098421.92521
 91  4  2 23  9 59.9990000  0  5G18G19G11G 2G 6
  23627260.644    16059793.402 5  12503234.16921
  21329573.394     1804871.487 6   1410727.65522
  23400921.870    -1033692.835 6   -756566.74121
  21113613.472   -14975960.009 7 -11559363.06522
  22642347.3554   -9273257.80446  -7125403.66861
 91  4  2 23 10 14.9990000  0  5G18G19G11G 2G 6
  23636845.909    16110154.857 5  12542476.62921
  21332369.370     1819569.107 6   1422180.32822
  23406212.183    -1005895.942 6   -734906.84121
  21109956.4564  -14995177.57647 -11574337.75363
  22635757.198    -9307892.194 6  -7152391.42021
 91  4  2 23 10 29.9990000  0  5G18G19G11G 2G 6
  23646434.5974   16160538.73945  12581736.58261
  21335180.628     1834322.545 6   1433676.49322
  23411522.245     -977985.584 6   -713158.52921
  21106310.2694  -15014335.47347 -11589265.94763
  22629164.5264   -9342531.38946  -7179382.93461
 91  4  2 23 10 44.9990000  0  5G18G19G11G 2G 6
  23656025.933    16210944.613 5  12621013.67321
  21337996.315     1849131.571 6   1445215.97122
  23416855.964     -949962.276 6   -691322.21121
  21102676.6054  -15033433.89347 -11604147.79363
  22622571.5974   -9377175.52446  -7206378.28561
 91  4  2 23 10 59.9990000  0  5G18G19G11G 2G 6
  23665623.073    16261374.300 5  12660309.30921
  21340822.534     1863998.798 6   1456800.80122
  23422209.112     -921823.750 6   -669396.10921
  21099053.323   -15052470.509 7 -11618981.47922
  22615977.7374   -9411822.01346  -7233375.46961
 91  4  2 23 11 14.9990000  0  5G18G19G11G 2G 6
  23675223.3944   16311822.21845  12699619.12761
  21343664.0114    1878918.93046   1468426.85562
  23427585.7614    -893575.57646   -647384.56961
  21095441.3944  -15071450.78547 -11633771.26262
  22609384.308    -9446475.941 6  -7260378.44821
 91  4  2 23 11 29.9990000  0  5G18G19G11G 2G 6
  23684829.456    16362295.077 5  12738948.39321
  21346513.589     1893898.975 6   1480099.59022
  23432983.417     -865211.372 6   -625282.60921
  21091841.9014  -15090367.87247 -11648511.81462
  22602789.792    -9481130.705 6  -7287382.07921
 91  4  2 23 11 44.9990000  0  5G18G19G11G 2G 6
  23694437.3624   16412787.24645  12778292.69561
  21349376.0344    1908933.68346   1491814.92262
  23438401.542     -836736.515 6   -603094.42921
  21088252.987   -15109227.043 7 -11663207.23223
  22596194.003    -9515791.218 6  -7314390.18921
 91  4  2 23 11 59.9990000  0  5G18G19G11G 2G 6
  23704048.823    16463301.742 5  12817654.40721
  21352248.581     1924026.228 6   1503575.32722
  23443841.800     -808148.111 6   -580817.77121
  21084676.1204  -15128025.07147 -11677855.00763
  22589597.933    -9550454.429 6  -7341400.40621
 91  4  2 23 12 14.9990000  0  5G18G19G11G 2G 6
  23713665.6674   16513836.27745  12857031.73561
  21355130.933     1939174.822 6   1515379.40622
  23449304.081     -779448.329 6   -558454.32721
  21081110.1284  -15146764.06947 -11692456.78562
  22583000.878    -9585121.952 6  -7368413.97921
 91  4  2 23 12 29.9990000  0  5G18G19G11G 2G 6
  23723286.401    16564391.732 5  12896425.38021
  21358022.808     1954380.758 6   1527228.16422
  23454785.964     -750636.313 6   -536003.42221
  21077555.4014  -15165442.85447 -11707011.64163
  22576403.034    -9619792.744 6  -7395430.10121
 91  4  2 23 12 44.9990000  0  5G18G19G11G 2G 6
  23732910.980    16614968.425 5  12935835.56321
  21360929.3154    1969644.54046   1539121.99662
  23460290.589     -721711.775 6   -513464.84221
  21074012.3474  -15184061.03147 -11721519.27362
  22569805.511    -9654465.931 6  -7422448.08321
 91  4  2 23 12 59.9990000  0  5G18G19G11G 2G 6
  23742539.714    16665569.552 5  12975264.76221
  21363843.683     1984969.977 6   1551063.87222
  23465816.269     -692671.392 6   -490835.98821
  21070481.8554  -15202614.92947 -11735976.81663
  22563208.245    -9689137.928 6  -7449465.14521
 91  4  2 23 13 14.9990000  0  5G18G19G11G 2G 6
  23752172.8394   16716190.90645  13014709.73761
  21366772.690     2000353.059 6   1563050.66122
  23471363.3004    -663519.41946   -468120.18461
  21066963.0194  -15221108.72147 -11750387.52363
  22556608.839    -9723812.605 6  -7476484.29221
 91  4  2 23 13 29.9990000  0  5G18G19G11G 2G 6
  23761809.815    16766831.529 5  13054169.73621
  21369709.4644    2015793.07746   1575081.82462
  23476932.9804    -634256.75946   -445318.13461
  21063454.3394  -15239542.95447 -11764751.81962
  22550009.417    -9758490.617 6  -7503506.04821
 91  4  2 23 13 44.9990000  0  5G18G19G11G 2G 6
  23771451.573    16817495.668 5  13093648.02621
  21372660.495     2031294.503 6   1587160.83322
  23482522.315     -604879.638 6   -422426.89521
  21059958.6834  -15257913.59147 -11779066.56563
  22543410.917    -9793167.535 6  -7530526.93521
 91  4  2 23 13 59.9990000  0  5G18G19G11G 2G 6
  23781095.573    16868181.295 5  13133143.09021
  21375621.112     2046856.230 6   1599286.83022
  23488134.323     -575389.529 6   -399447.61021
  21056474.5894  -15276221.86347 -11793332.71163
  22536811.503    -9827844.746 6  -7557548.05721
 91  4  2 23 14 14.9990000  0  5G18G19G11G 2G 6
  23790745.6594   16918887.00645  13172653.79761
  21378594.6674    2062477.06546   1611458.88362
  23493768.276     -545787.946 6   -376381.46221
  21053003.1594  -15294469.13247 -11807551.32062
  22530214.105    -9862523.338 6  -7584570.25821
 91  4  2 23 14 29.9990000  0  5G18G19G11G 2G 6
  23800400.7764   16969616.29045  13212182.85061
  21381577.9094    2078160.64646   1623679.83062
  23499421.855     -516071.446 6   -353225.76621
  21049542.5344  -15312651.70847 -11821719.52163
  22523612.901    -9897199.417 6  -7611590.49921
 91  4  2 23 14 44.9990000  0  5G18G19G11G 2G 6
  23810059.800    17020367.827 5  13251729.26221
  21384575.081     2093905.988 6   1635948.90422
  23505098.175     -486241.276 6   -329981.50421
  21046094.4804  -15330770.64447 -11835838.12963
  22517014.823    -9931873.949 6  -7638609.53121
 91  4  2 23 14 59.9990000  0  5G18G19G11G 2G 6
  23819721.761    17071142.027 5  13291293.34121
  21387582.581     2109714.067 6   1648266.86522
  23510796.128     -456297.035 6   -306648.36121
  21042659.0974  -15348825.23747 -11849906.60563
  22510416.933    -9966545.951 6  -7665626.59721
 91  4  2 23 15 14.9990000  0  5G18G19G11G 2G 6
  23829386.2064   17121938.10345  13330874.44461
  21390604.1904    2125584.38846   1660633.32162
  23516515.901     -426239.656 6   -283227.04221
  21039234.8624  -15366816.06647 -11863925.39263
  22503819.948   -10001216.123 6  -7692642.23221
 91  4  2 23 15 29.9990000  0  5G18G19G11G 2G 6
  23839057.831    17172759.788 5  13370475.51721
  21393635.8314    2141521.15346   1673051.55562
  23522259.253     -396065.147 6   -259714.45321
  21035824.9804  -15384738.89547 -11877891.19463
  22497223.831   -10035880.009 6  -7719652.96921
 91  4  2 23 15 44.9990000  0  5G18G19G11G 2G 6
  23848731.6514   17223598.22845  13410089.64061
  21396679.761     2157515.640 6   1685514.77322
  23528021.1514    -365782.71346   -236117.78461
  21032425.5584  -15402602.78247 -11891811.06663
  22490628.394   -10070546.462 6  -7746665.71821
 91  4  2 23 15 59.9990000  0  5G18G19G11G 2G 6
  23858409.480    17274457.344 5  13449719.85321
  21399734.753     2173572.279 6   1698026.42422
  23533804.6054    -335388.26846   -212433.83661
  21029038.4174  -15420403.40947 -11905681.64663
  22484030.1284  -10105210.99446  -7773676.94961
 91  4  2 23 16 14.9990000  0  5G18G19G11G 2G 6
  23868093.573    17325337.771 5  13489366.70021
  21402802.4874    2189691.59846   1710586.90962
  23539610.628     -304881.338 6   -188662.22821
  21025662.1054  -15438140.23747 -11919502.51263
  22477434.698   -10139872.839 6  -7800686.10421
 91  4  2 23 16 29.9990000  0  5G18G19G11G 2G 6
  23877776.706    17376232.316 5  13529024.53321
  21405882.4254    2205867.33346   1723191.34762
  23545435.5504    -274268.64346   -164808.21361
  21022297.7224  -15455819.66247 -11933278.64863
  22470837.253   -10174538.369 6  -7827698.12521
 91  4  2 23 16 44.9990000  0  5G18G19G11G 2G 6
  23887464.7844   17427143.44545  13568695.28761
  21408970.9724    2222101.97646   1735841.69162
  23551281.3704    -243548.07846   -140870.13561
  21018945.0734  -15473439.37647 -11947008.25663
  22464241.206   -10209204.990 6  -7854711.00521
 91  4  2 23 16 59.9990000  0  5G18G19G11G 2G 6
  23897160.2844   17478078.85545  13608384.97261
  21412071.4804    2238403.47846   1748544.12662
  23557149.7374    -212712.03346   -116842.08461
  21015605.4404  -15490991.43547 -11960685.14762
  22457645.589   -10243864.676 6  -7881718.46821
 91  4  2 23 17 14.9990000  0  5G18G19G11G 2G 6
  23906855.8234   17529040.01445  13648094.68361
  21415187.831     2254773.879 6   1761300.26522
  23563039.2764    -181758.91346    -92722.79961
  21012279.0344  -15508474.11247 -11974307.97263
  22451052.198   -10278515.508 6  -7908719.04321
 91  4  2 23 17 29.9990000  0  5G18G19G11G 2G 6
  23916556.1514   17580017.52245  13687817.18161
  21418313.839     2271204.370 6   1774103.21722
  23568951.292     -150698.035 6    -68519.54321
  21008963.3314  -15525896.40747 -11987883.74863
  22444457.2454  -10313166.42046  -7935719.68561
 91  4  2 23 17 44.9990000  0  5G18G19G11G 2G 6
  23926261.1054   17631008.39345  13727550.06261
  21421451.526     2287691.997 6   1786950.69822
  23574881.3004    -119532.48346    -44234.72761
  21005659.1904  -15543261.13147 -12001414.66662
  22437862.378   -10347819.990 6  -7962722.38521
 91  4  2 23 17 59.9990000  0  5G18G19G11G 2G 6
  23935969.6754   17682021.19245  13767300.02061
  21424602.1284    2304245.80946   1799849.74462
  23580833.276      -88253.765 6    -19861.72021
  21002366.1594  -15560559.55447 -12014893.92063
  22431270.2694  -10382467.30346  -7989720.22761
 91  4  2 23 18 14.9990000  0  5G18G19G11G 2G 6
  23945681.6754   17733054.31545  13807065.83161
  21427764.855     2320864.534 6   1812799.37622
  23586806.401      -56863.345 6      4598.31221
  20999087.7454  -15577793.04247 -12028322.57163
  22424678.425   -10417109.588 6  -8016714.13021
 91  4  2 23 18 29.9990000  0  5G18G19G11G 2G 6
  23955395.3234   17784109.85045  13846849.08261
  21430937.878     2337550.523 6   1825801.42422
  23592802.0264     -25359.36946     29146.83861
  20995821.0114  -15594959.42547 -12041698.93562
  22418086.222   -10451744.396 6  -8043702.21921
 91  4  2 23 18 44.9990000  0  5G18G19G11G 2G 6
  23965115.839    17835192.011 5  13886653.10921
  21434128.3554    2354308.38146   1838859.46162
  23598818.4724       6262.46146     53787.20061
  20992567.5974  -15612054.04647 -12055019.38263
  22411499.026   -10486367.136 6  -8070680.89621
 91  4  2 23 18 59.9990000  0  5G18G19G11G 2G 6
  23974840.3704   17886292.55045  13926471.45261
  21437329.339     2371130.276 6   1851967.40722
  23604857.112       37993.954 6     78513.00821
  20989326.6754  -15629084.84247 -12068290.09363
  22404910.456   -10520985.598 6  -8097656.24921
 91  4  2 23 19 14.9990000  0  5G18G19G11G 2G 6
  23984568.7764   17937410.39945  13966303.28761
  21440542.886     2388015.289 6   1865124.53722
  23610916.495       69833.985 6    103323.39621
  20986098.2224  -15646052.76247 -12081511.81363
  22398323.542   -10555600.443 6  -8124628.77821
 91  4  2 23 19 29.9990000  0  5G18G19G11G 2G 6
  23994300.2144   17988546.79245  14006149.54661
  21443767.558     2404965.245 6   1878332.27422
  23616997.151      101783.833 6    128219.35921
  20982881.6284  -15662956.34647 -12094683.39863
  22391737.925   -10590210.239 6  -8151597.36521
 91  4  2 23 19 44.9990000  0  5G18G19G11G 2G 6
  24004034.7304   18039699.93145  14046008.86861
  21447006.3004    2421978.72146   1891589.49962
  23623097.128      133841.828 6    153199.58621
  20979677.144   -15679796.982 7 -12107805.93223
  22385152.972   -10624815.933 6  -8178562.76621
 91  4  2 23 19 59.9990000  0  5G18G19G11G 2G 6
  24013772.9334   18090871.54645  14085882.57961
  21450255.1204    2439057.68546   1904897.75362
  23629218.3624     166009.61146    178265.35761
  20976484.1904  -15696572.73347 -12120877.90663
  22378567.464   -10659415.621 6  -8205523.48221
 91  4  2 23 20 14.9990000  0  5G18G19G11G 2G 6
  24023513.2694   18142058.39645  14125768.16461
  21453518.2144    2456199.26846   1918254.79662
  23635358.730      198283.801 6    203414.05121
  20973302.6984  -15713286.86747 -12133901.87563
  22371984.495   -10694012.304 6  -8232481.86321
 91  4  2 23 20 29.9990000  0  5G18G19G11G 2G 6
  24033257.6834   18193265.37545  14165669.44261
  21456793.4874    2473408.91446   1931664.88262
  23641522.0814     230669.43946    228649.58561
  20970136.0114  -15729934.09147 -12146873.70463
  22365401.675   -10728600.480 6  -8259433.61321
 91  4  2 23 20 44.9990000  0  5G18G19G11G 2G 6
  24043006.347    18244492.126 5  14205586.12321
  21460081.1124    2490686.35946   1945127.79962
  23647706.7694     263165.93146    253971.47961
  20966980.2844  -15746514.63647 -12159793.56963
  22358822.284   -10763180.371 6  -8286378.90321
 91  4  2 23 20 59.9990000  0  5G18G19G11G 2G 6
  24052757.8864   18295739.38745  14245518.76361
  21463380.7924    2508032.60646   1958644.32662
  23653910.534      295773.990 6    279380.34121
  20963838.1284  -15763027.53847 -12172660.73163
  22352243.581   -10797750.776 6  -8313316.81121
 91  4  2 23 21 14.9990000  0  5G18G19G11G 2G 6
  24062513.448    18347006.747 5  14285467.08921
  21466695.862     2525447.690 6   1972214.49722
  23660138.1124     328493.25246    304875.83561
  20960708.4804  -15779472.87647 -12185475.23863
  22345666.7454  -10832311.54146  -8340247.20961
 91  4  2 23 21 29.9990000  0  5G18G19G11G 2G 6
  24072272.659    18398291.079 5  14325428.63721
  21470021.9254    2542928.79646   1985836.11162
  23666385.4014     361320.39346    330455.39261
  20957591.4404  -15795853.84947 -12198239.59763
  22339091.136   -10866865.670 6  -8367172.42421
 91  4  2 23 21 44.9990000  0  5G18G19G11G 2G 6
  24082035.605    18449592.774 5  14365403.71121
  21473361.9254    2560477.00346   1999510.00462
  23672652.511      394256.083 6    356119.53321
  20954486.8784  -15812169.51647 -12210953.07263
  22332517.2224  -10901412.06946  -8394091.62761
 91  4  2 23 21 59.9990000  0  5G18G19G11G 2G 6
  24091801.605    18500914.247 5  14405394.19721
  21476715.8784    2578094.82346   2013238.14362
  23678941.4254     427302.66346    381870.07661
  20951394.6124  -15828417.15347 -12223613.53263
  22325944.847   -10935947.801 6  -8421002.51321
 91  4  2 23 22 14.9990000  0  5G18G19G11G 2G 6
  24101572.112    18552250.902 5  14445396.50121
  21480079.4094    2595778.02846   2027017.23462
  23685249.1204     460455.35646    407703.31561
  20948315.1364  -15844601.30047 -12236224.51763
  22319373.2534  -10970477.47946  -8447908.69461
 91  4  2 23 22 29.9990000  0  5G18G19G11G 2G 6
  24111343.9174   18603604.66345  14485412.14061
  21483457.4174    2613528.88746   2040849.04762
  23691579.815      493716.272 6    433620.87821
  20945247.5584  -15860719.72347 -12248784.29063
  22312805.409   -11004998.629 6  -8474808.21121
 91  4  2 23 22 44.9990000  0  5G18G19G11G 2G 6
  24121119.370    18654972.478 5  14525438.73121
  21486847.5264    2631344.67046   2054731.44262
  23697928.5584     527082.32846    459620.37261
  20942191.6204  -15876775.29847 -12261295.09263
  22306236.112   -11039513.768 6  -8501703.05121
 91  4  2 23 22 59.9990000  0  5G18G19G11G 2G 6
  24130894.9954   18706353.17245  14565475.34861
  21490250.6514    2649224.52546   2068663.76762
  23704298.292      560552.339 6    485700.88121
  20939148.7144  -15892769.00947 -12273757.68763
  22299669.9644  -11074023.82046  -8528593.93761
 91  4  2 23 23 14.9990000  0  5G18G19G11G 2G 6
  24140678.190    18757745.769 5  14605521.26021
  21493663.9874    2667167.85546   2082645.55062
  23710686.339      594125.112 6    511861.45821
  20936117.1444  -15908701.66347 -12286172.70463
  22293103.1754  -11108529.28446  -8555481.24461
 91  4  2 23 23 29.9990000  0  5G18G19G11G 2G 6
  24150459.6124   18809153.06045  14645578.61161
  21497088.7224    2685177.60446   2096679.09262
  23717094.753      627803.439 6    538104.26921
  20933097.4094  -15924570.26747 -12298537.81163
  22286538.253   -11143026.988 6  -8582362.49721
 91  4  2 23 23 44.9990000  0  5G18G19G11G 2G 6
  24160245.261    18860578.582 5  14685650.17721
  21500532.4644    2703257.70346   2110767.44562
  23723524.6514     661590.82246    564432.07161
  20930090.9804  -15940371.20347 -12310850.19763
  22279974.730   -11177513.182 6  -8609234.78021
 91  4  2 23 23 59.9990000  0  5G18G19G11G 2G 6
  24170034.940    18912018.682 5  14725733.08121
  21503982.7224    2721404.99846   2124908.16662
  23729974.198      695483.609 6    590842.01621
  20927096.7304  -15956107.70147 -12323112.36563
  22273415.6444  -11211990.91446  -8636100.48761
 91  4  2 23 24 14.9990000  0  5G18G19G11G 2G 6
  24179827.706    18963474.474 5  14765828.20821
  21507451.1284    2739621.00146   2139102.42562
  23736445.1514     729483.00246    617335.02361
  20924113.7304  -15971778.21947 -12335323.12163
  22266857.4014  -11246458.76146  -8662958.48361
 91  4  2 23 24 29.9990000  0  5G18G19G11G 2G 6
  24189621.425    19014948.567 5  14805937.60421
  21510932.9404    2757908.59046   2153352.46362
  23742935.0974     763591.55946    643913.08461
  20921144.5344  -15987379.91047 -12347480.24763
  22260300.0424  -11280913.57246  -8689806.31861
 91  4  2 23 24 44.9990000  0  5G18G19G11G 2G 6
  24199421.1204   19066441.60745  14846061.75361
  21514425.7224    2776268.91746   2167659.17862
  23749445.980      797809.822 6    670576.65021
  20918188.9954  -16002912.10447 -12359583.21863
  22253746.3394  -11315354.25746  -8716643.14861
 91  4  2 23 24 59.9990000  0  5G18G19G11G 2G 6
  24209222.0654   19117951.31545  14886198.89861
  21517931.4724    2794700.00646   2182021.03562
  23755978.4874     832135.53146    697323.91661
  20915245.9174  -16018376.69947 -12371633.51563
  22247193.4874  -11349782.81646  -8743470.53161
 91  4  2 23 25 14.9990000  0  5G18G19G11G 2G 6
  24219027.839    19169478.847 4  14926349.93821
  21521453.8704    2813203.20946   2196439.09062
  23762530.3234     866569.86246    724155.82661
  20912315.9254  -16033772.41347 -12383630.14563
  22240645.7844  -11384197.62246  -8770287.20161
 91  4  2 23 25 29.9990000  0  5G18G19G11G 2G 6
  24228837.925    19221023.275 4  14966514.11821
  21524986.5734    2831778.08046   2210912.98362
  23769103.6124     901111.97846    751071.73161
  20909399.2614  -16049099.79947 -12395573.52563
  22234097.7304  -11418599.04046  -8797093.43561
 91  4  2 23 25 44.9990000  0  5G18G19G11G 2G 6
  24238648.7924   19272579.04144  15006687.17161
  21528535.8004    2850419.28746   2225438.56762
  23775696.2924     935755.99446    778067.03761
  20906494.7694  -16064364.47047 -12407468.03863
  22227554.8624  -11452992.46246  -8823893.44361
 91  4  2 23 25 59.9990000  0  5G18G19G11G 2G 6
  24248461.573    19324148.971 5  15046871.19821
  21532095.4954    2869130.20146   2240018.46862
  23782309.1444     970504.88046    805144.05661
  20903602.5734  -16079563.19747 -12419311.16863
  22221010.5504  -11487374.50946  -8850684.57561
 91  4  2 23 26 14.9990000  0  5G18G19G11G 2G 6
  24258278.487    19375736.145 4  15087068.71321
  21535670.3394    2887914.02846   2254655.19262
  23788942.4644    1005361.47446    832305.00961
  20900723.6674  -16094692.85147 -12431100.47563
  22214471.5894  -11521741.82446  -8877464.24061
 91  4  2 23 26 29.9990000  0  4G19G11G 2G 6
  21539258.0814    2906768.51946   2269346.97162
  23795596.058     1040323.335 6    859547.98321
  20897857.3234  -16109755.62347 -12442837.66763
  22207933.1514  -11556096.42946  -8904233.99461
 91  4  2 23 26 44.9990000  0  4G19G11G 2G 6
  21542860.8784    2925697.73546   2284096.98362
  23802270.3474    1075394.24446    886875.93661
  20895004.6124  -16124747.45847 -12454519.58363
  22201400.7304  -11590434.28146  -8930990.70361
 91  4  2 23 26 59.9990000  0  4G19G11G 2G 6
  21546476.2614    2944699.17346   2298903.26462
  23808962.6754    1110571.21446    914286.52061
  20892164.3004  -16139671.03147 -12466148.31063
  22194866.3784  -11624757.68646  -8957736.14961
 91  4  2 23 27 14.9990000  0  4G19G11G 2G 6
  21550107.097     2963776.005 6   2313768.30622
  23815678.112     1145857.132 6    941782.02821
  20889338.1984  -16154523.25247 -12477721.43463
  22188339.823   -11659063.456 6  -8984467.85021
 91  4  2 23 27 29.9990000  0  4G19G11G 2G 6
  21553749.8704    2982922.58846   2328687.69062
  23822411.8394    1181245.75846    969357.54061
  20886524.9254  -16169310.06247 -12489243.58963
  22181813.2694  -11693357.36246  -9011190.29861
 91  4  2 23 27 44.9990000  0  4G19G11G 2G 6
  21557407.847     3002137.587 6   2343660.39122
  23829165.6594    1216735.38246    997011.76061
  20883723.0654  -16184032.94347 -12500715.92963
  22175289.1054  -11727640.62346  -9037904.46561
 91  4  2 23 27 59.9990000  0  4G19G11G 2G 6
  21561077.5584    3021431.86846   2358694.87262
  23835939.628     1252336.624 6   1024752.95821
  20880935.0894  -16198681.01847 -12512129.97963
  22168769.6444  -11761902.13346  -9064601.68161
 91  4  2 23 28 14.9990000  0  4G19G11G 2G 6
  21564765.7534    3040801.42946   2373788.00762
  23842735.6904    1288045.01546   1052577.63961
  20878161.6284  -16213258.50547 -12523489.02963
  22162253.7614  -11796145.99846  -9091285.14661
 91  4  2 23 28 29.9990000  0  4G19G11G 2G 6
  21568462.1754    3060239.08646   2388934.20462
  23849549.0814    1323853.13646   1080480.02461
  20875399.1594  -16227772.61847 -12534798.69363
  22155739.2224  -11830379.19346  -9117960.29861
 91  4  2 23 28 44.9990000  0  4G19G11G 2G 6
  21572176.183     3079750.935 6   2404138.21622
  23856383.589     1359766.749 6   1108464.63121
  20872650.6284  -16242217.52047 -12546054.42763
  22149228.2694  -11864595.45646  -9144622.25561
 91  4  2 23 28 59.9990000  0  4G19G11G 2G 6
  21575903.831     3099333.356 6   2419397.22622
  23863237.190     1395781.668 6   1136528.16121
  20869914.0114  -16256597.03147 -12557259.20463
  22142718.417   -11898798.484 6  -9171273.89721
 91  4  2 23 29 14.9990000  0  4G19G11G 2G 6
  21579642.0034    3118981.18046   2434707.19262
  23870109.1124    1431892.41545   1164666.35961
  20867189.6834  -16270916.33047 -12568417.06663
  22136211.2064  -11932993.32246  -9197919.15661
 91  4  2 23 29 29.9990000  0  4G19G11G 2G 6
  21583393.4014    3138700.71446   2450073.03562
  23876999.3004    1468104.71045   1192883.70061
  20864477.0114  -16285169.23647 -12579523.18863
  22129707.9804  -11967173.74046  -9224553.18561
 91  4  2 23 29 44.9990000  0  4G19G11G 2G 6
  21587161.636     3158494.712 6   2465496.90422
  23883909.6984    1504421.07045   1221182.12561
  20861777.3394  -16299352.98947 -12590575.43163
  22123206.1054  -12001336.78446  -9251173.67361
 91  4  2 23 29 59.9990000  0  4G19G11G 2G 6
  21590939.4644    3178354.24446   2480971.83762
  23890839.558     1540832.119 5   1249554.32521
  20859090.0584  -16313476.80547 -12601580.97063
  22116707.7614  -12035491.26546  -9277787.48861
 91  4  2 23 30 14.9990000  0  4G19G11G 2G 6
  21594733.1514    3198283.75246   2496501.29662
  23897786.5264    1577342.19645   1278003.69961
  20856415.4644  -16327536.07147 -12612536.20463
  22110209.0814  -12069632.61846  -9304391.07661
 91  4  2 23 30 29.9990000  0  4G19G11G 2G 6
  21598539.7374    3218290.88746   2512091.24662
  23904755.659     1613958.457 5   1306535.80121
  20853752.4094  -16341523.53047 -12623435.48463
  22103716.5424  -12103753.14846  -9330978.43561
 91  4  2 23 30 44.9990000  0  4G19G11G 2G 6
  21602360.4404    3238368.85346   2527736.38262
  23911741.878     1650673.549 5   1335144.92621
  20851103.3084  -16355445.92447 -12634284.07363
  22097226.612   -12137859.608 6  -9357554.82921
 91  4  2 23 30 59.9990000  0  4G19G11G 2G 6
  21606193.534     3258518.203 6   2543437.15022
  23918747.0194    1687487.87945   1363831.38961
  20848467.1284  -16369302.79147 -12645081.59863
  22090740.1984  -12171951.15446  -9384119.61061
 91  4  2 23 31 14.9990000  0  4G19G11G 2G 6
  21610043.8084    3278738.82446   2559193.44662
  23925770.995     1724400.981 5   1392594.80121
  20845841.6364  -16383094.42247 -12655828.29463
  22084255.0974  -12206027.99746  -9410672.92461
 91  4  2 23 31 29.9990000  0  4G19G11G 2G 6
  21613903.9874    3299033.34946   2575007.32862
  23932815.2304    1761415.03145   1421436.88161
  20843230.7924  -16396818.36247 -12666522.24463
  22077773.7694  -12240087.32346  -9437212.59161
 91  4  2 23 31 44.9990000  0  4G19G11G 2G 6
  21617780.7224    3319401.35646   2590878.47662
  23939878.9334    1798529.27145   1450357.03961
  20840632.2614  -16410475.00047 -12677163.74663
  22071295.2844  -12274129.39846  -9463738.82061
 91  4  2 23 31 59.9990000  0  4G19G11G 2G 6
  21621670.7374    3339847.15046   2606810.23462
  23946960.870     1835747.573 5   1479358.25821
  20838046.5584  -16424060.07547 -12687749.48963
  22064821.6054  -12308149.81946  -9490248.16861
 91  4  2 23 32 14.9990000  0  4G19G11G 2G 6
  21625574.886     3360363.694 6   2622797.12522
  23954062.042     1873062.566 5   1508434.82721
  20835474.7144  -16437580.85047 -12698285.12763
  22058349.894   -12342155.678 6  -9516746.16821
 91  4  2 23 32 29.9990000  0  4G19G11G 2G 6
  21629493.7924    3380956.99446   2638843.82762
  23961180.690     1910479.951 5   1537591.18521
  20832914.1054  -16451031.30547 -12708765.96863
  22051884.6284  -12376140.73946  -9543227.97361
 91  4  2 23 32 44.9990000  0  4G19G11G 2G 6
  21633427.3554    3401623.27446   2654947.38962
  23968320.870     1947995.430 6   1566823.97821
  20830366.8704  -16464415.49847 -12719195.17863
  22045418.1834  -12410108.79546  -9569696.51961
 91  4  2 23 32 59.9990000  0  4G19G11G 2G 6
  21637375.917     3422369.696 6   2671113.40322
  23975478.597     1985615.954 6   1596138.62721
  20827834.2454  -16477726.22547 -12729567.14463
  22038960.9094  -12444052.27446  -9596145.92161
 91  4  2 23 33 14.9990000  0  4G19G11G 2G 6
  21641335.0114    3443178.33546   2687327.90062
  23982654.4014    2023322.95146   1625520.67561
  20825311.6594  -16490981.64247 -12739896.01063
  22032500.8554  -12477989.57246  -9622590.50561
 91  4  2 23 33 29.9990000  0  4G19G11G 2G 6
  21645305.8554    3464054.71346   2703595.17862
  23989847.7844    2061121.69546   1654974.20761
  20822801.9644  -16504176.32047 -12750177.54763
  22026047.1834  -12511914.64146  -9649025.56461
 91  4  2 23 33 44.9990000  0  4G19G11G 2G 6
  21649293.550     3485003.653 6   2719919.00322
  23997060.1124    2099016.67246   1684502.72661
  20820303.0344  -16517305.49247 -12760408.03863
  22019593.2764  -12545822.59046  -9675447.28061
 91  4  2 23 33 59.9990000  0  4G19G11G 2G 6
  21653294.4094    3506024.69646   2736299.00862
  24004288.730     2137006.962 6   1714105.50921
  20817816.2064  -16530369.86047 -12770588.03763
  22013145.0814  -12579713.92846  -9701856.04961
 91  4  2 23 34 14.9990000  0  4G19G11G 2G 6
  21657309.3474    3527123.88746   2752739.90262
  24011536.183     2175098.318 6   1743787.05221
  20815343.4644  -16543363.56447 -12780712.96963
  22006699.4564  -12613582.37246  -9728246.98061
 91  4  2 23 34 29.9990000  0  4G19G11G 2G 6
  21661340.198     3548295.927 6   2769237.57222
  24018802.3704    2213285.11646   1773542.95861
  20812883.3474  -16556291.76347 -12790786.86163
  22000257.6834  -12647433.19746  -9754624.18561
 91  4  2 23 34 44.9990000  0  4G19G11G 2G 6
  21665381.8944    3569543.68446   2785794.23762
  24026089.4254    2251569.60146   1803374.98861
  20810436.5344  -16569151.96647 -12800807.77063
  21993820.2614  -12681263.48746  -9780985.38461
 91  4  2 23 34 59.9990000  0  4G19G11G 2G 6
  21669439.105     3590864.368 6   2802407.72622
  24033392.4254    2289948.72645   1833280.76561
  20808001.0654  -16581946.72947 -12810777.68763
  21987385.3394  -12715075.81646  -9807332.59161
 91  4  2 23 35 14.9990000  0  4G19G11G 2G 6
  21673509.175     3612257.116 6   2819077.37922
  24040714.315     2328421.213 5   1863259.27921
  20805579.0584  -16594677.01747 -12820697.36163
  21980955.6594  -12748870.98846  -9833666.43061
 91  4  2 23 35 29.9990000  0  4G19G11G 2G 6
  21677594.8944    3633725.85046   2835806.23062
  24048053.1444    2366990.65345   1893313.34861
  20803169.9334  -16607339.29347 -12830564.03963
  21974527.6124  -12782644.93146  -9859983.72361
 91  4  2 23 35 44.9990000  0  4G19G11G 2G 6
  21681693.550     3655264.647 6   2852589.68422
  24055410.073     2405650.683 5   1923437.98921
  20800771.0504  -16619939.57647 -12840382.41263
  21968103.4484  -12816403.47146  -9886289.01961
 91  4  2 23 35 59.9990000  0  4G19G11G 2G 6
  21685803.4804    3676870.68246   2869425.52662
  24062783.0584    2444398.08445   1953630.73561
  20798385.2224  -16632480.60547 -12850154.61563
  21961681.4874  -12850149.51746  -9912584.56861
 91  4  2 23 36 14.9990000  0  4G19G11G 2G 6
  21689930.6514    3698548.49246   2886317.29662
  24070173.8624    2483237.08145   1983894.85661
  20796010.3314  -16644958.16747 -12859877.35963
  21955264.5264  -12883878.29646  -9938866.67561
 91  4  2 23 36 29.9990000  0  4G19G11G 2G 6
  21694067.6904    3720301.23846   2903267.44762
  24077582.5114    2522170.44845   2014232.50861
  20793648.237   -16657369.148 7 -12869548.22623
  21948849.3944  -12917586.34546  -9965132.62161
 91  4  2 23 36 44.9990000  0  4G19G11G 2G 6
  21698222.2304    3742128.11546   2920275.37662
  24085008.6834    2561197.24045   2044642.96261
  20791300.4804  -16669714.21947 -12879167.73263
  21942438.3784  -12951274.38246  -9991382.97761
 91  4  2 23 36 59.9990000  0  4G19G11G 2G 6
  21702391.3944    3764027.49546   2937339.79462
  24092453.0504    2600315.36945   2075124.56261
  20788963.1834  -16681995.06747 -12888737.19263
  21936029.9094  -12984943.88746 -10017618.89361
 91  4  2 23 37 14.9990000  0  4G19G11G 2G 6
  21706571.6444    3786000.59446   2954461.66062
  24099915.3944    2639525.72645   2105678.05661
  20786637.6364  -16694210.71047 -12898255.84763
  21929626.6124  -13018593.47046 -10043839.28761
 91  4  2 23 37 29.9990000  0  4G19G11G 2G 6
  21710765.5504    3808044.64946   2971638.81262
  24107393.6984    2678824.96645   2136300.80461
  20784325.5504  -16706364.17547 -12907726.04563
  21923226.9404  -13052226.00146 -10070046.38861
 91  4  2 23 37 44.9990000  0  4G19G11G 2G 6
  21714976.9014    3830162.97446   2988873.83862
  24114888.2764    2718216.04845   2166995.12761
  20782025.5584  -16718452.23147 -12917145.27363
  21916831.4564  -13085837.98046 -10096237.48561
 91  4  2 23 37 59.9990000  0  4G19G11G 2G 6
  21719196.5114    3852356.02346   3006167.09162
  24122402.6754    2757699.00645   2197761.01561
  20779737.1364  -16730474.66847 -12926513.37363
  21910438.7764  -13119428.92846 -10122412.19061
 91  4  2 23 38 14.9990000  0  4G19G11G 2G 6
  21723435.5974    3874623.85346   3023518.61462
  24129933.417     2797273.696 5   2228598.41421
  20777461.9724  -16742431.10747 -12935830.05163
  21904050.1444  -13152998.57046 -10148570.28161
 91  4  2 23 38 29.9990000  0  4G19G11G 2G 6
  21727686.7844    3896964.61846   3040926.97162
  24137480.5344    2836937.81145   2259505.48361
  20775199.3154  -16754323.77847 -12945097.03163
  21897665.9644  -13186548.37246 -10174712.92861
 91  4  2 23 38 44.9990000  0  4G19G11G 2G 6
  21731954.0654    3919381.58346   3058394.70162
  24145046.5504    2876694.32245   2290484.54661
  20772948.2694  -16766149.39647 -12954311.76963
  21891285.4254  -13220075.25746 -10200837.70761
 91  4  2 23 38 59.9990000  0  4G19G11G 2G 6
  21736231.1674    3941868.73146   3075917.12762
  24152629.2764    2916536.68945   2321530.50361
  20770709.6834  -16777913.90547 -12963478.88363
  21884909.6204  -13253584.96046 -10226949.10261
 91  4  2 23 39 14.9990000  0  4G19G11G 2G 6
  21740525.5424    3964427.53746   3093495.38162
  24160226.8154    2956466.00145   2352644.22861
  20768482.3474  -16789616.13347 -12972597.47363
  21878536.4334  -13287075.97346 -10253045.92961
 91  4  2 23 39 29.9990000  0  4G19G11G 2G 6
  21744830.5034    3987055.84646   3111127.79862
  24167839.3784    2996479.90745   2383823.85661
  20766267.3314  -16801258.20047 -12981669.18563
  21872167.2374  -13320550.15346 -10279129.64561
 91  4  2 23 39 44.9990000  0  4G19G11G 2G 6
  21749151.5584    4009756.51346   3128816.59962
  24175472.417     3036580.847 5   2415071.30321
  20764064.1204  -16812837.45647 -12990691.94963
  21865800.6674  -13354004.67446 -10305198.03861
 91  4  2 23 39 59.9990000  0  4G19G11G 2G 6
  21753483.6984    4032529.87846   3146562.04162
  24183121.112     3076768.618 5   2446386.40421
  20761872.4484  -16824353.80047 -12999665.69363
  21859437.1444  -13387439.09446 -10331250.76861
 91  4  2 23 40 14.9990000  0  4G19G11G 2G 6
  21757832.1284    4055374.62646   3164363.11562
  24190783.7614    3117041.38745   2477767.74661
  20759692.7304  -16835808.84447 -13008591.67163
  21853079.7304  -13420854.80446 -10357288.91861
 91  4  2 23 40 29.9990000  0  4G19G11G 2G 6
  21762193.5734    4078296.15046   3182224.00462
  24198463.019     3157404.207 5   2509219.26021
  20757525.2534  -16847197.08747 -13017465.59963
  21846726.0654  -13454246.13646 -10383308.07361
 91  4  2 23 40 44.9990000  0  4G19G11G 2G 6
  21766569.4094    4101292.49946   3200143.20362
  24206161.792     3197855.043 5   2540739.34321
  20755371.1754  -16858520.19247 -13026288.76963
  21840375.4334  -13487614.72046 -10409309.51161
 91  4  2 23 40 59.9990000  0  4G19G11G 2G 6
  21770959.4484    4124360.50946   3218118.24262
  24213875.0034    3238390.21345   2572325.15961
  20753228.3784  -16869781.62947 -13035063.88163
  21834028.9644  -13520963.70847 -10435295.67661
 91  4  2 23 41 14.9990000  0  4G19G11G 2G 6
  21775363.1984    4147497.45046   3236146.98862
  24221602.6364    3279006.56245   2603974.23261
  20751095.6514  -16880984.21547 -13043793.13863
  21827686.9564  -13554295.68246 -10461268.57861
 91  4  2 23 41 29.9990000  0  4G19G11G 2G 6
  21779780.7694    4170709.32446   3254234.12562
  24229349.8864    3319709.99945   2635691.15561
  20748976.2304  -16892121.87447 -13052471.80163
  21821347.6834  -13587604.27846 -10487223.26961
 91  4  2 23 41 44.9990000  0  4G19G11G 2G 6
  21784211.5814    4193993.80246   3272377.83362
  24237111.011     3360497.708 5   2667473.75421
  20746868.9404  -16903197.33547 -13061102.00163
  21815014.0034  -13620891.81546 -10513161.53761
 91  4  2 23 41 59.9990000  0  4G19G11G 2G 6
  21788655.6594    4217350.51946   3290577.84262
  24244888.659     3401368.814 5   2699321.34121
  20744773.6834  -16914211.05348 -13069684.08563
  21808682.3394  -13654158.57547 -10539083.62862
 91  4  2 23 42 14.9990000  0  4G19G11G 2G 6
  21793114.0504    4240778.83446   3308833.63362
  24252681.7144    3442322.54345   2731233.31361
  20742688.3944  -16925163.55348 -13078218.46763
  21802356.7924  -13687404.90146 -10564989.79561
 91  4  2 23 42 29.9990000  0  4G19G11G 2G 6
  21797586.5344    4264282.71846   3327148.31062
  24260492.776     3483362.411 5   2763212.40121
  20740617.2694  -16936051.02548 -13086702.18563
  21796033.5034  -13720626.71947 -10590876.86162
 91  4  2 23 42 44.9990000  0  4G19G11G 2G 6
  21802073.1984    4287861.54046   3345521.37962
  24268317.3314    3524487.36045   2795257.78361
  20738557.0894  -16946874.30347 -13095135.87863
  21789717.0734  -13753824.55746 -10616745.24561
 91  4  2 23 42 59.9990000  0  4G19G11G 2G 6
  21806575.9564    4311515.56646   3363953.04362
  24276159.7144    3565697.14845   2827369.27561
  20736510.0424  -16957633.17547 -13103519.38463
  21783403.9564  -13786998.15847 -10642594.74261
 91  4  2 23 43 14.9990000  0  4G19G11G 2G 6
  21811089.7534    4335245.07546   3382443.53862
  24284019.112     3606991.789 5   2859546.89121
  20734474.9954  -16968327.69447 -13111852.74963
  21777097.0894  -13820147.09747 -10668425.02261
 91  4  2 23 43 29.9990000  0  4G19G11G 2G 6
  21815620.487     4359048.943 6   3400991.96822
  24291892.9874    3648369.98245   2891789.61561
  20732452.1054  -16978958.83147 -13120136.72063
  21770792.0424  -13853272.07846 -10694236.63361
 91  4  2 23 43 44.9990000  0  4G19G11G 2G 6
  21820164.3004    4382927.13046   3419598.30762
  24299782.0034    3689831.23645   2924097.04661
  20730440.7534  -16989526.59747 -13128371.31663
  21764494.0264  -13886373.12147 -10720029.59561
 91  4  2 23 43 59.9990000  0  4G19G11G 2G 6
  21824720.4174    4406878.75046   3438261.87762
  24307686.370     3731374.051 5   2956468.05221
  20728441.4014  -17000032.21047 -13136557.48263
  21758199.1984  -13919451.14747 -10745804.61961
 91  4  2 23 44 14.9990000  0  3G19G 2G 6
  21829294.2534    4430905.96546   3456984.33462
  20726455.1204  -17010473.63447 -13144693.62663
  21751908.8474  -13952503.75747 -10771559.83861
 91  4  2 23 44 29.9990000  0  3G19G 2G 6
  21833879.823     4455010.386 6   3475766.95822
  20724480.8864  -17020849.16547 -13152778.42763
  21745625.4014  -13985528.92247 -10797293.67561
 91  4  2 23 44 44.9990000  0  3G19G 2G 6
  21838481.784     4479186.704 6   3494605.60722
  20722517.0814  -17031164.18847 -13160816.07763
  21739344.6124  -14018532.00647 -10823010.30161
 91  4  2 23 44 59.9990000  0  3G19G 2G 6
  21843096.3554    4503437.34846   3513502.17162
  20720566.7064  -17041416.46947 -13168804.84263
  21733068.1284  -14051510.58247 -10848707.83662
 91  4  2 23 45 14.9990000  0  3G19G 2G 6
  21847726.2534    4527767.40346   3532460.61962
  20718629.3784  -17051600.86648 -13176740.70763
  21726798.6594  -14084459.15347 -10874381.99061
 91  4  2 23 45 29.9990000  0  3G19G 2G 6
  21852370.6204    4552170.01246   3551475.60862
  20716701.5654  -17061724.33648 -13184629.09463
  21720532.5734  -14117384.47947 -10900038.02362
 91  4  2 23 45 44.9990000  0  3G19G 2G 6
  21857026.9724    4576645.49446   3570547.37462
  20714787.5504  -17071786.49948 -13192469.71663
  21714271.6444  -14150285.85747 -10925675.40462
 91  4  2 23 45 59.9990000  0  3G19G 2G 6
  21861699.105     4601202.354 6   3589682.54522
  20712885.0504  -17081779.12047 -13200256.14263
  21708016.6904  -14183154.94947 -10951287.62062
 91  4  2 23 46 14.9990000  0  3G19G 2G 6
  21866387.2694    4625830.14946   3608872.99962
  20710995.6364  -17091712.74448 -13207996.59963
  21701765.7844  -14216001.99047 -10976882.65462
 91  4  2 23 46 29.9990000  0  3G19G 2G 6
  21871089.2144    4650531.53446   3628120.79162
  20709116.8004  -17101584.83048 -13215689.10263
  21695520.6284  -14248824.03347 -11002458.21261
 91  4  2 23 46 44.9990000  0  3G19G 2G 6
  21875802.5894    4675305.76646   3647425.34862
  20707249.6594  -17111396.22348 -13223334.30963
  21689279.940   -14281621.795 7 -11028014.85222
 91  4  2 23 46 59.9990000  0  3G19G 2G 6
  21880532.4804    4700149.31346   3666783.91462
  20705392.9404  -17121150.35547 -13230934.90263
  21683041.3944  -14314398.51247 -11053555.08561
 91  4  2 23 47 14.9990000  0  3G19G 2G 6
  21885271.808     4725066.477 6   3686199.84322
  20703548.7924  -17130843.15747 -13238487.70563
  21676810.550   -14347149.783 7 -11079075.50222
 91  4  2 23 47 29.9990000  0  3G19G 2G 6
  21890028.9804    4750057.32446   3705673.19362
  20701715.5034  -17140474.82347 -13245992.86863
  21670582.2534  -14379875.59547 -11104576.06861
 91  4  2 23 47 44.9990000  0  3G19G 2G 6
  21894796.480     4775118.551 6   3725201.37822
  20699894.0194  -17150048.53047 -13253452.87163
  21664359.5814  -14412578.97647 -11130059.16362
 91  4  2 23 47 59.9990000  0  3G19G 2G 6
  21899581.0654    4800251.82546   3744785.70962
  20698084.4484  -17159562.61848 -13260866.41663
  21658139.9254  -14445257.80447 -11155523.12362
 91  4  2 23 48 14.9990000  0  3G19G 2G 6
  21904376.1444    4825460.67446   3764428.93662
  20696285.0894  -17169013.83647 -13268230.96663
  21651927.3154  -14477908.57547 -11180965.21962
 91  4  2 23 48 29.9990000  0  4G15G19G 2G 6
  24032620.3784     -30570.22145
  21909185.8234    4850741.77446   3784128.45362
  20694497.9014  -17178405.73047 -13275549.30163
  21645718.3784  -14510534.63047 -11206388.05762
 91  4  2 23 48 44.9990000  0  4G15G19G 2G 6
  24026817.425      -61064.140 5
  21914010.6124    4876092.72046   3803882.39862
  20692721.3864  -17187740.22247 -13282822.90163
  21639514.8474  -14543137.77847 -11231793.04662
 91  4  2 23 48 59.9990000  0  4G15G19G 2G 6
  24021027.2304     -91479.49945        -0.30171
  21918848.847     4901515.522 6   3823692.33222
  20690956.6754  -17197015.59647 -13290050.43763
  21633315.7454  -14575715.87147 -11257178.51562
 91  4  2 23 49 14.9990000  0  4G15G19G 2G 6
  24015258.175     -121815.058 5    -23638.27121
  21923700.940     4927011.396 6   3843559.19822
  20689202.956   -17206230.915 7 -13297231.17823
  21627120.4404  -14608267.80447 -11282543.59462
 91  4  2 23 49 29.9990000  0  4G15G19G 2G 6
  24009497.1834    -152070.12945    -47213.54161
  21928568.6284    4952580.43846   3863483.08662
  20687461.292   -17215386.034 7 -13304365.01323
  21620931.6904  -14640793.14347 -11307887.95162
 91  4  2 23 49 44.9990000  0  4G15G19G 2G 6
  24003758.1904    -182243.88445    -70725.43961
  21933445.815     4978223.273 6   3883464.48322
  20685730.620   -17224480.451 7 -13311451.54823
  21614745.7844  -14673291.18047 -11333211.03862
 91  4  2 23 49 59.9990000  0  4G15G19G 2G 6
  23998030.019     -212338.498 5    -94175.70121
  21938338.831     5003937.356 6   3903501.38722
  20684010.401   -17233516.795 7 -13318492.82523
  21608567.6444  -14705764.20747 -11358514.63362
 91  4  2 23 50 14.9990000  0  4G15G19G 2G 6
  23992320.6124    -242356.21345   -117566.00061
  21943245.5264    5029720.00446   3923591.72662
  20682301.4954  -17242497.71247 -13325490.91463
  21602392.4404  -14738214.73147 -11383800.69262
 91  4  2 23 50 29.9990000  0  4G15G19G 2G 6
  23986619.9334    -272296.43945   -140895.96361
  21948165.2224    5055571.55946   3943735.75862
  20680602.9644  -17251423.01647 -13332445.66963
  21596221.2374  -14770642.25347 -11409068.82862
 91  4  2 23 50 44.9990000  0  4G15G19G 2G 6
  23980939.3784    -302155.73645   -164162.81561
  21953097.917     5081495.176 6   3963935.93922
  20678915.6364  -17260289.81147 -13339354.82963
  21590055.3084  -14803043.51947 -11434316.51162
 91  4  2 23 50 59.9990000  0  4G15G19G 2G 6
  23975271.417     -331934.984 5   -187367.31321
  21958044.1674    5107489.59546   3984191.29362
  20677239.7304  -17269099.19747 -13346219.25963
  21583895.065   -14835419.423 7 -11459544.43122
 91  4  2 23 51 14.9990000  0  4G15G19G 2G 6
  23969620.9564    -361633.66145   -210509.01961
  21963003.8554    5133554.72246   4004501.74662
  20675573.4724  -17277851.40747 -13353039.13463
  21577738.519   -14867769.916 7 -11484752.55222
 91  4  2 23 51 29.9990000  0  4G15G19G 2G 6
  23963983.034     -391246.173 5   -233583.59821
  21967978.690     5159696.014 6   4024871.54222
  20673920.5814  -17286541.08047 -13359810.27863
  21571587.784   -14900089.524 7 -11509936.60822
 91  4  2 23 51 44.9990000  0  4G15G19G 2G 6
  23958364.2764    -420773.84245   -256592.05261
  21972967.925     5185911.766 6   4045299.35922
  20672278.3864  -17295169.94247 -13366534.03663
  21565444.0424  -14932379.55947 -11535097.62062
 91  4  2 23 51 59.9990000  0  4G15G19G 2G 6
  23952763.3394    -450217.64045   -279535.15761
  21977970.3394    5212200.86646   4065784.33862
  20670647.9804  -17303739.08447 -13373211.26263
  21559303.917   -14964640.907 7 -11560236.28022
 91  4  2 23 52 14.9990000  0  4G15G19G 2G 6
  23947177.237     -479573.093 5   -302409.43321
  21982987.659     5238567.301 6   4086329.55922
  20669029.0344  -17312244.83847 -13379839.08963
  21553171.589   -14996869.488 7 -11585349.40222
 91  4  2 23 52 29.9990000  0  4G15G19G 2G 6
  23941606.6594    -508848.24645   -325221.12861
  21988018.7844    5265002.71346   4106928.54162
  20667420.8084  -17320695.44247 -13386423.94963
  21547043.894   -15029073.600 7 -11610443.46222
 91  4  2 23 52 44.9990000  0  4G15G19G 2G 6
  23936049.5654    -538042.26245   -347969.61861
  21993061.683     5291507.248 6   4127581.38621
  20665823.3554  -17329090.89447 -13392965.83063
  21540919.394   -15061252.753 7 -11635518.07322
 91  4  2 23 52 59.9990000  0  4G15G19G 2G 6
  23930510.136     -567150.464 5   -370651.22121
  21998119.769     5318085.481 6   4148291.65022
  20664237.0814  -17337426.70447 -13399461.23963
  21534802.581   -15093402.225 7 -11660569.55822
 91  4  2 23 53 14.9990000  0  4G15G19G 2G 6
  23924987.206     -596172.267 5   -393265.49821
  22003191.4404    5344737.37946   4169059.32461
  20662661.9254  -17345702.72047 -13405910.05263
  21528690.237   -15125521.747 7 -11685597.71022
 91  4  2 23 53 29.9990000  0  4G15G19G 2G 6
  23919481.3864    -625115.11745   -415818.27761
  22008274.0584    5371455.25846   4189878.41561
  20661096.886   -17353926.798 7 -13412318.40223
  21522581.511   -15157618.850 7 -11710608.38822
 91  4  2 23 53 44.9990000  0  4G15G19G 2G 6
  23913989.636     -653975.964 5   -438307.13521
  22013372.644     5398241.967 6   4210751.12821
  20659542.339   -17362096.428 7 -13418684.32023
  21516479.370   -15189690.442 7 -11735599.18922
 91  4  2 23 53 59.9990000  0  4G15G19G 2G 6
  23908513.0424    -682751.99845   -460729.89561
  22018485.823     5425099.728 6   4231679.19721
  20657998.698   -17370209.245 7 -13425005.96923
  21510380.753   -15221734.226 7 -11760568.32022
 91  4  2 23 54 14.9990000  0  4G15G19G 2G 6
  23903053.3004    -711438.27245   -483082.71561
  22023609.542     5452033.523 6   4252666.52821
  20656466.4094  -17378260.43047 -13431279.59463
  21504289.698   -15253744.887 7 -11785511.64422
 91  4  2 23 54 29.9990000  0  4G15G19G 2G 6
  23897609.198     -740039.990 5   -505369.64521
  22028747.198     5479037.856 6   4273708.82521
  20654944.9174  -17386255.63848 -13437509.59963
  21498203.5974  -15285727.94147 -11810433.44962
 91  4  2 23 54 44.9990000  0  4G15G19G 2G 6
  23892183.855     -768561.190 5   -527593.84821
  22033899.925     5506107.973 6   4294802.37922
  20653433.464   -17394199.490 8 -13443699.58823
  21492121.167   -15317687.772 7 -11835337.15822
 91  4  2 23 54 59.9990000  0  4G15G19G 2G 6
  23886773.1834    -796993.90745   -549749.10461
  22039065.339     5533251.677 6   4315953.26921
  20651933.175   -17402084.338 8 -13449843.60323
  21486045.573   -15349616.562 7 -11860216.68622
 91  4  2 23 55 14.9990000  0  5G15G19G13G 2G 6
  23881377.487     -825339.996 5   -571836.86021
  22044244.472     5560466.601 6   4337159.65921
  23826773.6594         -0.35654
  20650443.3004  -17409912.49547 -13455943.44563
  21479975.159   -15381516.321 7 -11885073.58222
 91  4  2 23 55 29.9990000  0  5G15G19G13G 2G 6
  23875999.565     -853598.476 5   -593856.33821
  22049436.292     5587753.540 6   4358422.15721
  23814732.7764     -63268.39844
  20648964.503   -17417683.320 7 -13461998.60023
  21473911.276   -15413385.988 7 -11909907.03822
 91  4  2 23 55 44.9990000  0  5G15G19G13G 2G 6
  23870640.0344    -881769.47345   -615807.65061
  22054642.347     5615111.852 6   4379740.27621
  23802700.7534    -126506.78344
  20647496.144   -17425397.577 7 -13468009.68823
  21467851.355   -15445225.998 7 -11934717.38122
 91  4  2 23 55 59.9990000  0  5G15G19G13G 2G 6
  23865294.003     -909852.171 5   -637690.16321
  22059861.550     5642541.728 6   4401114.15121
  23790671.5424    -189715.00044
  20646038.987   -17433055.061 7 -13473976.53123
  21461798.230   -15477035.959 7 -11959504.31022
 91  4  2 23 56 14.9990000  0  5G15G19G13G 2G 6
  23859968.245     -937849.028 5   -659505.79421
  22065094.917     5670040.721 6   4422541.89321
  23778649.4254    -252895.34144
  20644592.440   -17440658.190 7 -13479901.02323
  21455750.581   -15508818.128 7 -11984269.58122
 91  4  2 23 56 29.9990000  0  5G15G19G13G 2G 6
  23854656.9094    -965757.68545   -681252.67661
  22070341.237     5697611.091 6   4444025.25121
  23766630.026     -316045.089 4        -0.18431
  20643156.073   -17448205.066 7 -13485781.68023
  21449708.058   -15540570.225 7 -12009011.42322
 91  4  2 23 56 44.9990000  0  5G15G19G13G 2G 6
  23849363.253     -993579.610 5   -702931.99521
  22075602.136     5725250.792 6   4465562.63721
  23754620.1284    -379165.46844    -49184.53261
  20641730.722   -17455697.591 7 -13491619.98923
  21443671.105   -15572293.872 7 -12033731.09722
 91  4  2 23 56 59.9990000  0  5G15G19G13G 2G 6
  23844084.9174   -1021313.50845   -724542.70461
  22080873.730     5752960.662 6   4487154.70121
  23742615.3314    -442255.72544    -98345.39261
  20640315.3394  -17463134.89148 -13497415.26263
  21437640.206   -15603988.060 7 -12058427.81022
 91  4  2 23 57 14.9990000  0  5G15G19G13G 2G 6
  23838823.894    -1048964.599 5   -746088.90621
  22086159.4564    5780735.16446   4508797.11161
  23730613.433     -505320.804 4   -147486.65221
  20638909.355   -17470522.566 8 -13503171.86923
  21431612.722   -15635658.010 7 -12083105.64422
 91  4  2 23 57 29.9990000  0  5G15G19G13G 2G 6
  23833576.4644   -1076528.44145   -767567.12461
  22091458.214     5808578.063 6   4530492.82221
  23718615.855     -568356.539 4   -196605.09321
  20637513.6444  -17477856.86548 -13508886.88163
  21425592.472   -15667299.728 7 -12107761.47422
 91  4  2 23 57 44.9990000  0  5G15G19G13G 2G 6
  23828348.1514   -1104006.85745   -788978.76861
  22096769.526     5836487.428 6   4552240.33521
  23706629.3704    -631364.51245   -245701.88961
  20636127.581   -17485139.805 8 -13514561.87323
  21419576.081   -15698914.984 7 -12132396.68422
 91  4  2 23 57 59.9990000  0  5G15G19G13G 2G 6
  23823139.2224   -1131393.23445   -810318.69661
  22102096.081     5864470.040 6   4574044.90921
  23694643.706     -694337.777 5   -294771.58921
  20634753.0654  -17492364.87148 -13520191.76363
  21413565.808   -15730496.958 7 -12157005.96222
 91  4  2 23 58 14.9990000  0  5G15G19G13G 2G 6
  23817942.308    -1158692.720 5   -831590.91221
  22107431.362     5892519.879 6   4595901.88421
  23682664.2144    -757281.68244
  20633387.7924  -17499538.02948 -13525781.20963
  21407561.894   -15762051.331 7 -12181593.72922
 91  4  2 23 58 29.9990000  0  5G15G19G13G 2G 6
  23812764.7304   -1185902.85745   -852793.51561
  22112780.651     5920639.292 6   4617813.06421
  23670693.7764    -820193.61145
  20632032.612   -17506657.104 8 -13531328.51323
  21401562.745   -15793575.548 7 -12206157.99622
 91  4  2 23 58 44.9990000  0  5G15G19G13G 2G 6
  23807602.2454   -1213024.52545   -873927.18761
  22118145.769     5948826.864 6   4639777.35821
  23658728.362     -883074.501 5
  20630688.7224  -17513723.51448 -13536834.78063
  21395569.7144  -15825070.80347 -12230699.69662
 91  4  2 23 58 59.9990000  0  5G15G19G13G 2G 6
  23802458.3784   -1240058.36745   -894992.42061
  22123524.183     5977081.671 6   4661794.04821
  23646768.308     -945924.869 5        -0.24731
  20629353.5344  -17520738.30947 -13542300.82863
  21389581.3394  -15856537.85047 -12255219.41862
 91  4  2 23 59 14.9990000  0  5G15G19G13G 2G 6
  23797333.565    -1266996.923 5   -915983.40321
  22128914.081     6005410.645 6   4683868.52021
  23634814.597    -1008737.458 5    -48944.80821
  20628029.9804  -17527694.42747 -13547721.15163
  21383599.612   -15887969.431 7 -12279711.50822
 91  4  2 23 59 29.9990000  0  5G15G19G13G 2G 6
  23792226.206    -1293841.320 5   -936901.00821
  22134322.136     6033812.317 6   4705999.64421
  23622868.964    -1071513.116 5    -97860.59221
  20626717.362   -17534593.432 7 -13553096.97523
  21377624.878   -15919366.764 7 -12304176.91222
 91  4  2 23 59 44.9990000  0  5G15G19G13G 2G 6
  23787133.331    -1320591.538 5   -957745.23121
  22139737.823     6062286.183 6   4728187.02621
  23610929.917    -1134251.912 5   -146747.69821
  20625414.683   -17541435.617 7 -13558428.52223
  21371656.972   -15950729.917 7 -12328615.67922
 91  4  2 23 59 59.9990000  0  5G15G19G13G 2G 6
  23782061.214    -1347247.386 5   -978515.92421
  22145170.8154    6090832.57945   4750430.91561
  23598996.7764   -1196953.43045   -195605.72661
  20624123.190   -17548221.046 7 -13563715.84623
  21365695.581   -15982058.652 7 -12353027.63422
 91  4  3  0  0 14.9990000  0  5G15G19G13G 2G 6
  23777003.7534   -1373814.79845   -999217.71461
  22150614.526     6119445.043 6   4772726.29221
  23587070.472    -1259623.705 5   -244439.38121
  20622842.3394  -17554956.13548 -13568963.94063
  21359738.323   -16013359.126 7 -12377417.56622
 91  4  3  0  0 29.9990000  0  5G15G19G13G 2G 6
  23771964.3394   -1400291.10145  -1019848.47861
  22156073.089     6148125.878 5   4795074.95521
  23575151.6054   -1322259.87045   -293246.53361
  20621569.761   -17561638.752 7 -13574171.15123
  21353788.815   -16044628.862 7 -12401783.54622
 91  4  3  0  0 44.9990000  0  5G15G19G13G 2G 6
  23766945.964    -1426674.069 5  -1040406.52521
  22161543.776     6176877.246 5   4817478.56621
  23563240.105    -1384859.519 5   -342025.21221
  20620308.792   -17568266.910 7 -13579335.92723
  21347845.042   -16075865.625 7 -12426123.83322
 91  4  3  0  0 59.9990000  0  5G15G19G13G 2G 6
  23761944.7144   -1452965.25045  -1060893.07461
  22167026.870     6205696.885 6   4839935.37121
  23551335.2844   -1447424.59145   -390776.94661
  20619057.2064  -17574842.79048 -13584459.95963
  21341905.011   -16107071.237 7 -12450439.84422
 91  4  3  0  1 14.9990000  0  5G15G19G13G 2G 6
  23756960.683    -1479157.134 5  -1081302.22021
  22172527.175     6234592.044 6   4862451.03021
  23539436.8704   -1509947.16345   -439495.52661
  20617817.003   -17581359.130 8 -13589537.60223
  21335973.745   -16138238.299 7 -12474725.81822
 91  4  3  0  1 29.9990000  0  5G15G19G13G 2G 6
  23751992.019    -1505252.979 5  -1101636.56821
  22178037.573     6263559.111 5   4885022.71921
  23527544.534    -1572430.644 5   -488183.67421
  20616588.628   -17587819.453 8 -13594571.59623
  21330051.105   -16169370.101 7 -12498984.31722
 91  4  3  0  1 44.9990000  0  5G15G19G13G 2G 6
  23747046.0194   -1531253.57245  -1121896.64961
  22183564.4014    6292597.15245   4907649.69861
  23515662.2764   -1634875.71845   -536841.88561
  20615369.362   -17594225.011 8 -13599562.91423
  21324132.151   -16200467.393 7 -12523215.92322
 91  4  3  0  1 59.9990000  0  5G15G19G13G 2G 6
  23742116.339    -1557161.982 5  -1142084.91721
  22189103.5034    6321702.64245   4930329.25161
  23503786.0264   -1697285.21145   -585472.38161
  20614160.112   -17600579.139 8 -13604514.15823
  21318220.894   -16231533.414 7 -12547423.16422
 91  4  3  0  2 14.9990000  0  5G15G19G13G 2G 6
  23737202.4874   -1582974.67745  -1162198.61461
  22194654.761     6350878.610 5   4953063.72121
  23491917.4954   -1759655.39145   -634072.25061
  20612961.808   -17606878.691 8 -13609422.87923
  21312316.792   -16262564.790 7 -12571603.40822
 91  4  3  0  2 29.9990000  0  5G15G19G13G 2G 6
  23732309.667    -1608689.170 5  -1182235.78321
  22200219.901     6380127.109 6   4975854.70421
  23480055.3084   -1821984.00145   -682639.72961
  20611773.550   -17613121.853 8 -13614287.65023
  21306417.933   -16293559.164 7 -12595754.82122
 91  4  3  0  2 44.9990000  0  5G15G19G13G 2G 6
  23727435.862    -1634305.569 5  -1202196.51921
  22205799.3704    6409447.67145   4998701.83661
  23468201.1514   -1884271.18845   -731174.91761
  20610595.6204  -17619309.03848 -13619108.80663
  21300526.753   -16324516.897 7 -12619877.68322
 91  4  3  0  2 59.9990000  0  5G15G19G13G 2G 6
  23722578.401    -1659827.467 5  -1222083.61821
  22211392.2534    6438836.40445   5021602.08761
  23456356.737    -1946520.314 4   -779680.43121
  20609428.323   -17625444.363 8 -13623889.55623
  21294641.761   -16355441.637 7 -12643974.83722
 91  4  3  0  3 14.9990000  0  5G15G19G13G 2G 6
  23717740.5974   -1685251.87045  -1241894.73761
  22216999.917     6468296.139 5   5044557.67321
  23444520.440    -2008728.284 5   -828153.87121
  20608271.237   -17631525.060 8 -13628627.73523
  21288763.589   -16386330.381 7 -12668043.94422
 91  4  3  0  3 29.9990000  0  5G15G19G13G 2G 6
  23712921.1514   -1710581.30645  -1261631.89461
  22222617.183     6497824.124 5   5067566.44521
  23432686.6754   -2070897.50845   -876597.15761
  20607124.245   -17637553.961 8 -13633325.54523
  21282892.706   -16417185.683 7 -12692086.98922
 91  4  3  0  3 44.9990000  0  5G15G19G13G 2G 6
  23708116.6514   -1735811.99445  -1281292.06161
  22228249.151     6527423.745 5   5090631.03821
  23420866.761    -2133024.185 5   -925007.29621
  20605987.534   -17643527.567 8 -13637980.28623
  21277028.378   -16448003.891 7 -12716101.13222
 91  4  3  0  3 59.9990000  0  5G15G19G13G 2G 6
  23703336.9874   -1760946.41545  -1300877.23261
  22233896.1984    6557091.76745   5113748.90361
  23409048.8314   -2195110.98645   -973386.32361
  20604860.792   -17649449.087 8 -13642594.43323
  21271170.183   -16478787.870 7 -12740088.60222
 91  4  3  0  4 14.9990000  0  5G15G19G13G 2G 6
  23698573.956    -1785979.652 5  -1320383.54121
  22239555.8084    6586832.88245   5136923.74661
  23397241.4174   -2257152.82845  -1021730.34061
  20603743.831   -17655314.105 8 -13647164.54923
  21265318.386   -16509532.728 7 -12764045.58522
 91  4  3  0  4 29.9990000  0  5G15G19G13G 2G 6
  23693826.292    -1810913.176 5  -1339812.19721
  22245227.7844    6616645.26445   5160154.10961
  23385444.6594   -2319151.04345  -1070040.30161
  20602637.9404  -17661124.27747 -13651691.92863
  21259475.831   -16540240.025 7 -12787973.30322
 91  4  3  0  4 44.9990000  0  5G15G19G13G 2G 6
  23689099.925    -1835748.574 5  -1359164.34021
  22250914.636     6646527.015 5   5183438.54621
  23373656.7304   -2381107.22645  -1118317.61161
  20601542.542   -17666881.687 8 -13656178.19723
  21253640.042   -16570911.486 7 -12811873.09622
 91  4  3  0  4 59.9990000  0  5G15G19G13G 2G 6
  23684393.284    -1860483.124 5  -1378437.91421
  22256615.167     6676480.802 5   5206779.11621
  23361873.9564   -2443018.52245  -1166559.88661
  20600458.019   -17672583.729 8 -13660621.32223
  21247810.847   -16601544.224 7 -12835742.71822
 91  4  3  0  5 14.9990000  0  5G15G19G13G 2G 6
  23679707.933    -1885115.517 5  -1397631.87621
  22262328.3394    6706507.37745   5230176.39361
  23350100.2064   -2504883.62045  -1214766.15961
  20599382.855   -17678229.626 8 -13665020.69723
  21241989.050   -16632137.076 7 -12859581.26222
 91  4  3  0  5 29.9990000  0  5G15G19G13G 2G 6
  23675039.2764   -1909653.31745  -1416752.15661
  22268055.347     6736598.853 5   5253624.24321
  23338335.3624   -2566709.79145  -1262942.15261
  20598318.1594  -17683827.01047 -13669382.26563
  21236172.862   -16662697.690 7 -12883394.67822
 91  4  3  0  5 44.9990000  0  5G15G19G13G 2G 6
  23670387.4644   -1934089.73745  -1435793.42261
  22273796.245     6766761.677 5   5277127.68221
  23326579.5424   -2628490.56845  -1311082.76361
  20597263.425   -17689369.787 8 -13673701.28723
  21230364.565   -16693219.483 7 -12907177.85322
 91  4  3  0  5 59.9990000  0  5G15G19G13G 2G 6
  23665757.206    -1958423.233 5  -1454754.49221
  22279548.597     6796997.230 5   5300687.80521
  23314830.6754   -2690224.16345  -1359186.57161
  20596219.8704  -17694856.68048 -13677976.76163
  21224564.823   -16723700.854 7 -12930929.51922
 91  4  3  0  6 14.9990000  0  5G15G19G13G 2G 6
  23661146.1834   -1982654.63945  -1473636.00861
  22285316.0424    6827304.10045   5324303.48861
  23303093.9334   -2751911.22545  -1407254.16161
  20595185.9014  -17700288.86547 -13682209.60563
  21218771.667   -16754142.736 7 -12954650.42122
 91  4  3  0  6 29.9990000  0  5G15G19G13G 2G 6
  23656553.948    -2006788.327 5  -1492441.40821
  22291097.058     6857677.326 5   5347970.87521
  23291361.550    -2813556.290 5  -1455288.99921
  20594161.425   -17705671.366 8 -13686403.73523
  21212985.183   -16784549.887 7 -12978344.25822
 91  4  3  0  6 44.9990000  0  5G15G19G13G 2G 6
  23651981.620    -2030817.688 5  -1511165.49021
  22296889.909     6888123.309 5   5371694.96721
  23279641.573    -2875152.303 5  -1503285.62921
  20593147.487   -17710997.674 8 -13690554.07823
  21207206.964   -16814915.575 7 -13002005.78422
 91  4  3  0  6 59.9990000  0  5G15G19G13G 2G 6
  23647427.0114   -2054745.29545  -1529810.28561
  22302696.612     6918639.268 5   5395473.58121
  23267926.519    -2936701.886 5  -1551246.12321
  20592144.511   -17716270.874 7 -13694663.04023
  21201435.019   -16845242.358 7 -13025636.99922
 91  4  3  0  7 14.9990000  0  5G15G19G13G 2G 6
  23642892.940    -2078568.890 5  -1548374.05021
  22308518.2844    6949227.02145   5419308.13261
  23256223.151    -2998202.951 5  -1599168.74121
  20591150.948   -17721489.193 8 -13698729.24124
  21195672.683   -16875528.284 7 -13049236.37422
 91  4  3  0  7 29.9990000  0  5G15G19G13G 2G 6
  23638378.7534   -2102288.77945  -1566857.01261
  22314351.7844    6979886.18345   5443198.33161
  23244528.8944   -3059655.53745  -1647053.60261
  20590168.269   -17726653.080 7 -13702753.02423
  21189916.917   -16905773.502 7 -13072804.02222
 91  4  3  0  7 44.9990000  0  5G15G19G13G 2G 6
  23633885.2454   -2125908.96545  -1585262.24061
  22320197.940     7010612.310 5   5467140.71521
  23232844.5194   -3121063.35945  -1694903.60561
  20589195.112   -17731766.727 7 -13706737.66123
  21184167.745   -16935982.084 7 -13096343.13222
 91  4  3  0  7 59.9990000  0  5G15G19G13G 2G 6
  23629409.7844   -2149422.51945  -1603584.38761
  22326060.6754    7041411.77145   5491140.22961
  23221169.1754   -3182419.81545  -1742713.56861
  20588232.831   -17736823.997 7 -13710678.36723
  21178428.144   -16966147.371 7 -13119848.50522
 91  4  3  0  8 14.9990000  0  5G15G19G13G 2G 6
  23624954.253    -2172836.209 5  -1621828.74321
  22331933.1594    7072277.62545   5515191.48161
  23209500.8314   -3243731.41445  -1790488.58961
  20587279.909   -17741831.956 7 -13714580.65023
  21172694.870   -16996276.119 7 -13143325.40422
 91  4  3  0  8 29.9990000  0  5G15G19G13G 2G 6
  23620519.026    -2196149.864 5  -1639995.15521
  22337819.4724    7103209.76045   5539294.39061
  23197842.011    -3304997.847 5  -1838228.43821
  20586336.269   -17746790.714 7 -13718444.59623
  21166967.620   -17026368.171 7 -13166773.71022
 91  4  3  0  8 44.9990000  0  5G15G19G13G 2G 6
  23616101.097    -2219360.530 5  -1658081.29421
  22343718.6444    7134210.67145   5563450.88861
  23186192.6514   -3366216.44245  -1885930.96661
  20585402.558   -17751697.958 8 -13722268.39723
  21161249.417   -17056420.887 7 -13190191.36522
 91  4  3  0  8 59.9990000  0  5G15G19G13G 2G 6
  23611704.4804   -2242466.40545  -1676085.77961
  22349631.0504    7165281.80245   5587662.09761
  23174554.198    -3427385.246 5  -1933594.71121
  20584477.901   -17756551.969 8 -13726050.71723
  21155538.120   -17086432.415 7 -13213576.92922
 91  4  3  0  9 14.9990000  0  5G15G19G13G 2G 6
  23607326.5034   -2265463.75145  -1694005.69061
  22355557.7064    7196426.44445   5611930.59261
  23162921.542    -3488500.361 5  -1981216.63621
  20583566.198   -17761349.563 8 -13729789.08123
  21149835.917   -17116399.096 7 -13236927.54722
 91  4  3  0  9 29.9990000  0  5G15G19G13G 2G 6
  23602969.6904   -2288360.76945  -1711847.43161
  22361497.5034    7227636.05145   5636249.70961
  23151301.2844   -3549569.83045  -2028802.98061
  20582661.933   -17766099.121 8 -13733490.00723
  21144140.144   -17146329.274 7 -13260249.71622
 91  4  3  0  9 44.9990000  0  5G15G19G13G 2G 6
  23598633.433    -2311150.908 5  -1729605.91021
  22367450.323     7258917.002 5   5660624.42621
  23139689.8784   -3610587.10845  -2076348.67761
  20581768.589   -17770794.586 8 -13737148.78623
  21138452.847   -17176216.404 7 -13283538.34522
 91  4  3  0  9 59.9990000  0  5G15G19G13G 2G 6
  23594315.878    -2333837.574 5  -1747283.74121
  22373415.5654    7290265.69345   5685051.91261
  23128086.1284   -3671555.26145  -2123856.05061
  20580884.370   -17775439.547 8 -13740768.21023
  21132773.706   -17206063.795 7 -13306796.01122
 91  4  3  0 10 14.9990000  0  5G15G19G13G 2G 6
  23590021.1594   -2356412.20245  -1764874.25861
  22379394.3624    7321690.39345   5709538.62761
  23116496.409    -3732465.338 5  -2171318.18821
  20580011.605   -17780025.656 8 -13744341.77723
  21127101.886   -17235862.871 7 -13330016.02122
 91  4  3  0 10 29.9990000  0  5G15G19G13G 2G 6
  23585744.026    -2378878.720 5  -1782380.54521
  22385390.0974    7353186.70745   5734081.14261
  23104915.573    -3793321.489 5  -2218738.31721
  20579148.956   -17784557.338 8 -13747872.93423
  21121440.519   -17265617.692 7 -13353201.55022
 91  4  3  0 10 44.9990000  0  5G15G19G13G 2G 6
  23581488.394    -2401242.724 5  -1799806.97821
  22391395.683     7384748.451 5   5758674.65721
  23093343.9804   -3854129.73745  -2266121.14361
  20578296.058   -17789040.730 7 -13751366.46223
  21115785.565   -17295334.146 7 -13376357.18122
 91  4  3  0 10 59.9990000  0  5G15G19G13G 2G 6
  23577253.394    -2423496.964 5  -1817147.83721
  22397414.2614    7416382.84245   5783324.77061
  23081782.9014   -3914882.22745  -2313460.50061
  20577453.487   -17793468.770 8 -13754816.86123
  21110138.894   -17325004.836 7 -13399477.15422
 91  4  3  0 11 14.9990000  0  5G15G19G13G 2G 6
  23573040.511    -2445642.230 5  -1834403.81421
  22403447.8394    7448088.45645   5808030.37961
  23070232.2144   -3975579.98645  -2360757.21861
  20576620.769   -17797842.756 7 -13758225.13923
  21104501.573   -17354630.692 7 -13422562.19022
 91  4  3  0 11 29.9990000  0  5G15G19G13G 2G 6
  23568846.167    -2467682.633 5  -1851578.05321
  22409495.276     7479860.885 5   5832788.06521
  23058693.1284   -4036226.85345  -2408014.26761
  20575798.519   -17802167.224 7 -13761594.83223
  21098872.519   -17384215.939 7 -13445615.58522
 91  4  3  0 11 44.9990000  0  5G15G19G13G 2G 6
  23564672.823    -2489615.522 5  -1868668.52721
  22415554.9094    7511702.41145   5857599.58361
  23047159.9724   -4096820.32345  -2455229.71761
  20574985.425   -17806439.900 7 -13764924.16923
  21093249.620   -17413758.107 7 -13468635.41223
 91  4  3  0 11 59.9990000  0  5G15G19G13G 2G 6
  23560519.8864   -2511442.42745  -1885676.41261
  22421628.5504    7543611.30745   5882463.59861
  23035639.8474   -4157361.52145  -2502404.44261
  20574181.980   -17810662.355 7 -13768214.37423
  21087636.003   -17443258.515 7 -13491622.69622
 91  4  3  0 12 14.9990000  0  5G15G19G13G 2G 6
  23556386.9724   -2533162.50945  -1902601.06961
  22427711.4954    7575588.23045   5907380.61661
  23024128.8704   -4217849.43045  -2549537.64761
  20573386.714   -17814834.186 7 -13771465.13123
  21082030.683   -17472716.356 7 -13514576.81822
 91  4  3  0 12 29.9990000  0  5G15G19G13G 2G 6
  23552275.1364   -2554771.55945  -1919439.19361
  22433811.1514    7607636.85645   5932353.50761
  23012631.831    -4278280.026 5  -2596626.16421
  20572604.761   -17818951.621 7 -13774673.50023
  21076433.3314  -17502127.59247 -13537494.61962
 91  4  3  0 12 44.9990000  0  5G15G19G13G 2G 6
  23548180.870    -2576270.933 5  -1936191.86321
  22439920.8084    7639755.64545   5957381.07461
  23001140.909    -4338654.583 5  -2643671.07521
  20571830.831   -17823016.183 7 -13777840.66823
  21070845.745   -17531493.498 7 -13560377.10122
 91  4  3  0 12 59.9990000  0  5G15G19G13G 2G 6
  23544109.823    -2597664.963 5  -1952862.45621
  22446049.167     7671940.013 5   5982459.74721
  22989662.0424   -4398977.21045  -2690675.47861
  20571066.636   -17827032.600 8 -13780970.32223
  21065265.800   -17560818.504 7 -13583227.70722
 91  4  3  0 13 14.9990000  0  5G15G19G13G 2G 6
  23540060.159    -2618948.854 5  -1969447.22721
  22452183.1514    7704194.02745   6007592.68661
  22978194.276    -4459243.294 5  -2737635.86621
  20570311.519   -17830996.732 7 -13784059.23223
  21059694.042   -17590098.100 7 -13606042.93722
 91  4  3  0 13 29.9990000  0  5G15G19G13G 2G 6
  23536031.183    -2640124.742 5  -1985947.81721
  22458332.7374    7736515.47245   6032778.16161
  22966734.440    -4519454.729 5  -2784553.63121
  20569567.151   -17834910.941 7 -13787109.24423
  21054129.511   -17619334.353 7 -13628824.38922
 91  4  3  0 13 44.9990000  0  5G15G19G13G 2G 6
  23532021.3704   -2661192.66545  -2002364.28861
  22464497.2224    7768903.64945   6058015.64461
  22955288.237    -4579611.530 5  -2831428.84821
  20568831.784   -17838775.736 7 -13790120.74923
  21048573.9404  -17648527.43747 -13651572.20562
 91  4  3  0 13 59.9990000  0  5G15G19G13G 2G 6
  23528032.4954   -2682153.58445  -2018697.38261
  22470671.5194    7801357.48145   6083304.29061
  22943851.2924   -4639714.23845  -2878261.91361
  20568105.394   -17842592.164 7 -13793094.56723
  21043027.144   -17677678.198 7 -13674287.04122
 91  4  3  0 14 14.9990000  0  5G15G19G13G 2G 6
  23524064.6984   -2703001.70345  -2034942.59161
  22476863.448     7833882.479 5   6108648.38921
  22932425.3084   -4699756.92245  -2925048.21261
  20567389.370   -17846354.722 7 -13796026.40823
  21037489.0974  -17706780.79047 -13696964.34862
 91  4  3  0 14 29.9990000  0  5G15G19G13G 2G 6
  23520117.6054   -2723740.49345  -2051102.58361
  22483066.5504    7866475.09445   6134045.17061
  22921010.690    -4759742.912 5  -2971790.32321
  20566682.972   -17850067.261 7 -13798919.27423
  21031959.636   -17735838.558 7 -13719606.72222
 91  4  3  0 14 44.9990000  0  5G15G19G13G 2G 6
  23516193.526    -2744368.234 5  -2067176.07021
  22489280.0894    7899136.53845   6159495.57961
  22909605.6124   -4819670.75245  -3018487.12661
  20565986.331   -17853728.583 7 -13801772.23023
  21026439.284   -17764850.148 7 -13742213.11222
 91  4  3  0 14 59.9990000  0  5G15G19G13G 2G 6
  23512289.753    -2764883.196 5  -2083161.67921
  22495508.5734    7931868.26245   6185000.76061
  22898213.3314   -4879538.36545  -3065137.01161
  20565299.987   -17857336.843 7 -13804583.83823
  21020927.2924  -17793813.63147 -13764782.02162
 91  4  3  0 15 14.9990000  0  5G15G19G13G 2G 6
  23508407.4564   -2785286.79745  -2099060.48561
  22501750.3474    7964668.46345   6210559.29561
  22886832.6834   -4939347.39645  -3111741.21561
  20564623.050   -17860893.852 7 -13807355.51123
  21015424.0114  -17822730.53947 -13787314.63762
 91  4  3  0 15 29.9990000  0  5G15G19G13G 2G 6
  23504545.5504   -2805580.37445  -2114873.59461
  22508004.206     7997535.402 5   6236169.84221
  22875461.456    -4999099.017 5  -3158300.72321
  20563955.230   -17864401.627 7 -13810088.81823
  21009930.870   -17851602.359 7 -13809812.11722
 91  4  3  0 15 44.9990000  0  5G15G19G13G 2G 6
  23500705.4644   -2825763.72745  -2130600.79061
  22514272.4644    8030468.67345   6261832.06661
  22864100.378    -5058792.886 5  -3204815.20621
  20563296.644   -17867860.489 7 -13812784.01123
  21004444.737   -17880429.063 7 -13832274.44222
 91  4  3  0 15 59.9990000  0  5G15G19G13G 2G 6
  23496884.6364   -2845837.69545  -2146242.75861
  22520550.737     8063467.321 5   6287545.22821
  22852752.495    -5118429.915 5  -3251285.40721
  20562647.683   -17871271.430 7 -13815441.86523
  20998967.9094  -17909211.43447 -13854702.22662
 91  4  3  0 16 14.9990000  0  5G15G19G13G 2G 6
  23493086.534    -2865799.725 5  -2161797.52121
  22526844.987     8096533.596 5   6313311.08221
  22841415.0194   -5178007.27945  -3297709.10161
  20562007.698   -17874631.959 7 -13818060.44123
  20993499.4954  -17937946.72447 -13877093.32462
 91  4  3  0 16 29.9990000  0  5G15G19G13G 2G 6
  23489308.4404   -2885647.08545  -2177262.89961
  22533150.4564    8129669.81345   6339131.44661
  22830090.8394   -5237521.99945  -3344084.00761
  20561378.769   -17877939.928 7 -13820638.05523
  20988040.5034  -17966632.39547 -13899445.75463
 91  4  3  0 16 44.9990000  0  5G15G19G13G 2G 6
  23485553.253    -2905383.439 5  -2192641.80521
  22539466.7764    8162871.94545   6365003.16861
  22818776.1284   -5296977.95445  -3390413.09661
  20560758.511   -17881199.434 7 -13823177.90623
  20982590.776   -17995272.352 7 -13921762.56222
 91  4  3  0 16 59.9990000  0  5G15G19G13G 2G 6
  23481819.065    -2925004.609 5  -2207930.95221
  22545798.1284    8196143.97745   6390929.36761
  22807471.722    -5356370.536 5  -3436692.82121
  20560148.800   -17884406.547 7 -13825676.93123
  20977150.3474  -18023862.18847 -13944040.32062
 91  4  3  0 17 14.9990000  0  5G15G19G13G 2G 6
  23478104.948    -2944512.974 5  -2223132.19921
  22552142.769     8229483.204 5   6416907.90921
  22796183.675    -5415702.202 5  -3482925.07521
  20559547.940   -17887563.837 7 -13828137.13623
  20971718.9014  -18052404.22347 -13966280.82662
 91  4  3  0 17 29.9990000  0  5G15G19G13G 2G 6
  23474415.878    -2963911.451 5  -2238247.82221
  22558500.9014    8262886.50545   6442936.39861
  22784904.003    -5474975.622 5  -3529111.94821
  20558955.894   -17890674.440 7 -13830560.96023
  20966296.3554  -18080901.36347 -13988486.35362
 91  4  3  0 17 44.9990000  0  5G15G19G13G 2G 6
  23470746.980    -2983194.049 5  -2253273.14721
  22564870.0584    8296359.45745   6469019.15561
  22773637.2374   -5534184.85145  -3575248.81761
  20558373.964   -17893732.903 7 -13832944.15523
  20960883.7144  -18109347.82947 -14010652.38963
 91  4  3  0 17 59.9990000  0  5G15G19G13G 2G 6
  23467096.5114   -3002369.11345  -2268214.68261
  22571250.839     8329893.313 5   6495149.36221
  22762379.183    -5593337.853 5  -3621341.84021
  20557800.253   -17896747.831 8 -13835293.42723
  20955478.3004  -18137751.87747 -14032785.37663
 91  4  3  0 18 14.9990000  0  5G15G19G13G 2G 6
  23463468.7224   -3021427.33845  -2283065.16261
  22577646.3234    8363496.98745   6521333.97761
  22751135.644    -5652425.655 6  -3667384.08421
  20557236.870   -17899710.284 8 -13837601.81223
  20950083.175   -18166104.393 7 -14054878.20323
 91  4  3  0 18 29.9990000  0  5G15G19G13G 2G 6
  23459865.4564   -3040374.09945  -2297828.80161
  22584052.6674    8397164.99045   6547568.72961
  22739901.4334   -5711453.11546  -3713379.28261
  20556681.315   -17902625.689 7 -13839873.53823
  20944696.6054  -18194410.33147 -14076934.73763
 91  4  3  0 18 44.9990000  0  5G15G19G13G 2G 6
  23456279.081    -3059208.821 5  -2312505.15021
  22590471.7924    8430897.57445   6573853.78661
  22728682.464    -5770419.399 6  -3759326.84721
  20556136.433   -17905493.984 7 -13842108.55423
  20939318.370   -18222669.200 7 -14098954.59423
 91  4  3  0 18 59.9990000  0  5G15G19G13G 2G 6
  23452716.917    -3077929.338 5  -2327092.50321
  22596905.2844    8464696.55945   6600190.59661
  22717472.3784   -5829322.42046  -3805225.09361
  20555599.276   -17908313.374 8 -13844305.46123
  20933949.964   -18250878.952 7 -14120936.17523
 91  4  3  0 19 14.9990000  0  5G15G19G13G 2G 6
  23449179.0344   -3096534.99245  -2341590.33261
  22603348.7844    8498562.03145   6626579.21661
  22706276.628    -5888161.809 6  -3851073.76121
  20555072.776   -17911083.616 8 -13846464.06923
  20928591.3084  -18279039.29347 -14142879.25563
 91  4  3  0 19 29.9990000  0  5G15G19G13G 2G 6
  23445659.3084   -3115026.10345  -2355998.92761
  22609805.269     8532493.476 5   6653019.25421
  22695091.331    -5946937.634 6  -3896872.90421
  20554553.987   -17913805.277 8 -13848584.82423
  20923241.659   -18307150.395 7 -14164783.96723
 91  4  3  0 19 44.9990000  0  5G15G19G13G 2G 6
  23442163.3864   -3133402.80845  -2370318.37961
  22616274.3784    8566490.51345   6679510.38161
  22683919.542    -6005649.622 6  -3942622.30521
  20554045.730   -17916478.738 8 -13850668.01923
  20917902.331   -18335212.192 7 -14186650.25922
 91  4  3  0 19 59.9990000  0  5G15G19G13G 2G 6
  23438684.948    -3151668.311 5  -2384551.16621
  22622754.5894    8600549.60445   6706049.87161
  22672756.815    -6064300.914 6  -3988324.41221
  20553544.683   -17919107.418 8 -13852716.32223
  20912571.636   -18363227.946 7 -14208480.67223
 91  4  3  0 20 14.9990000  0  5G15G19G13G 2G 6
  23435232.7924   -3169817.78645  -2398693.55861
  22629249.8554    8634675.07345   6732641.07961
  22661609.8784   -6122886.72246  -4033975.48561
  20553054.644   -17921686.967 8 -13854726.33923
  20907249.378   -18391192.924 7 -14230271.51823
 91  4  3  0 20 29.9990000  0  5G15G19G13G 2G 6
  23431801.1204   -3187854.03545  -2412747.71861
  22635755.425     8668863.829 5   6759281.58921
  22650472.4724   -6181409.87646  -4079577.75361
  20552572.112   -17924220.354 8 -13856700.38923
  20901937.3154  -18419110.03547 -14252025.07062
 91  4  3  0 20 44.9990000  0  5G15G19G13G 2G 6
  23428390.6834   -3205772.88045  -2426710.37861
  22642274.9174    8703119.75645   6785974.45461
  22639348.1834   -6239866.00446  -4125127.77061
  20552099.448   -17926703.984 8 -13858635.66423
  20896634.526   -18446975.220 7 -14273738.15523
 91  4  3  0 20 59.9990000  0  5G15G19G13G 2G 6
  23425001.597    -3223574.067 5  -2440581.39421
  22648805.5344    8737442.89545   6812719.68761
  22628236.480    -6298254.644 6  -4170625.22221
  20551636.378   -17929137.786 8 -13860532.11123
  20891341.980   -18474787.909 7 -14295410.33723
 91  4  3  0 21 14.9990000  0  5G15G19G13G 2G 6
  23421636.065    -3241264.564 5  -2454366.12221
  22655349.4404    8771826.05445   6839511.68961
  22617137.386    -6356582.502 6  -4216075.32021
  20551180.323   -17931528.903 8 -13862395.30023
  20886058.292   -18502554.998 7 -14317046.98923
 91  4  3  0 21 29.9990000  0  5G15G19G13G 2G 6
  23418289.6284   -3258843.04645  -2468063.58661
  22661902.847     8806270.104 5   6866351.13821
  22606049.050    -6414848.314 6  -4261477.04621
  20550734.683   -17933876.417 8 -13864224.50823
  20880783.487   -18530275.264 7 -14338647.15223
 91  4  3  0 21 44.9990000  0  5G15G19G13G 2G 6
  23414966.8154   -3276305.30945  -2481670.48061
  22668470.6514    8840779.15745   6893241.24161
  22594974.839    -6473047.569 6  -4306826.93721
  20550296.620   -17936176.228 8 -13866016.54923
  20875517.558   -18557944.315 7 -14360207.40723
 91  4  3  0 21 59.9990000  0  5G15G19G13G 2G 6
  23411668.4174   -3293652.27045  -2495187.52261
  22675049.261     8875351.879 5   6920180.95721
  22583911.972    -6531181.055 6  -4352125.56021
  20549868.159   -17938429.662 8 -13867772.44823
  20870262.042   -18585563.144 7 -14381728.52923
 91  4  3  0 22 14.9990000  0  5G15G19G13G 2G 6
  23408385.964    -3310884.513 5  -2508615.20421
  22681641.026     8909987.279 5   6947169.49721
  22572860.7764   -6589249.19645  -4397373.27461
  20549448.339   -17940637.646 8 -13869492.93323
  20865015.878   -18613132.355 7 -14403210.99023
 91  4  3  0 22 29.9990000  0  5G15G19G13G 2G 6
  23405130.878    -3328005.136 5  -2521955.87721
  22688242.292     8944681.950 5   6974204.24521
  22561822.737    -6647255.253 5  -4442572.60821
  20549036.058   -17942803.451 8 -13871180.54923
  20859777.995   -18640655.032 7 -14424657.18423
 91  4  3  0 22 44.9990000  0  5G15G19G13G 2G 6
  23401895.3864   -3345006.41745  -2535203.56361
  22694858.464     8979443.114 5   7001290.78621
  22550799.081    -6705191.479 6  -4487717.52121
  20548633.050   -17944919.929 8 -13872829.73123
  20854551.3234  -18668123.69947 -14446061.29963
 91  4  3  0 22 59.9990000  0  5G15G19G13G 2G 6
  23398681.9174   -3361890.12445  -2548359.63061
  22701485.761     9014268.961 5   7028427.74521
  22539785.300    -6763059.144 6  -4532809.02421
  20548238.448   -17946988.910 8 -13874441.90323
  20849333.5504  -18695539.79447 -14467424.44963
 91  4  3  0 23 14.9990000  0  5G15G19G13G 2G 6
  23395489.7454   -3378658.61345  -2561425.93961
  22708123.073     9049156.470 5   7055612.73721
  22528787.198    -6820860.827 6  -4577849.12321
  20547853.855   -17949013.257 8 -13876019.28923
  20844125.394   -18722905.914 7 -14488748.65623
 91  4  3  0 23 29.9990000  0  5G15G19G13G 2G 6
  23392321.003    -3395313.806 5  -2574403.93921
  22714772.823     9084103.633 5   7082844.21721
  22517799.4094   -6878598.21346  -4622839.09961
  20547476.800   -17950995.179 8 -13877563.62623
  20838927.269   -18750223.911 7 -14510035.36523
 91  4  3  0 23 44.9990000  0  5G15G19G13G 2G 6
  23389173.659    -3411850.201 5  -2587289.38121
  22721435.870     9119115.481 5   7110126.09721
  22506825.6054   -6936265.71746  -4667774.63061
  20547109.034   -17952929.502 8 -13879070.87023
  20833739.636   -18777488.343 7 -14531280.33523
 91  4  3  0 23 59.9990000  0  5G15G19G13G 2G 6
  23386050.589    -3428266.211 5  -2600081.00021
  22728112.526     9154193.714 5   7137459.71521
  22495865.800    -6993861.320 6  -4712654.14921
  20546749.440   -17954814.503 8 -13880539.68223
  20828561.4254  -18804697.22947 -14552482.02363
 91  4  3  0 24 14.9990000  0  5G15G19G13G 2G 6
  23382948.4644   -3444564.10845  -2612780.58761
  22734798.7694    9189335.15645   7164842.58461
  22484917.8474   -7051387.59346  -4757479.64161
  20546399.683   -17956653.150 8 -13881972.37323
  20823394.5344  -18831853.19947 -14573642.47963
 91  4  3  0 24 29.9990000  0  5G15G19G13G 2G 6
  23379870.831    -3460744.639 5  -2625388.73521
  22741499.683     9224538.994 5   7192274.07221
  22473983.362    -7108844.851 6  -4802251.34021
  20546059.112   -17958446.235 8 -13883369.56423
  20818236.2924  -18858956.79647 -14594762.12563
 91  4  3  0 24 44.9990000  0  5G15G19G13G 2G 6
  23376814.784    -3476807.517 5  -2637905.19121
  22748208.745     9259805.433 5   7219754.33821
  22463065.1834   -7166232.73846  -4846969.00061
  20545726.065   -17960193.608 8 -13884731.13423
  20813088.7454  -18886007.60847 -14615840.64163
 91  4  3  0 24 59.9990000  0  5G15G19G13G 2G 6
  23373778.526    -3492753.103 5  -2650330.25921
  22754933.526     9295133.741 5   7247282.80821
  22452156.3784   -7223551.45546  -4891632.74761
  20545402.394   -17961896.134 8 -13886057.75823
  20807951.3314  -18913006.00947 -14636878.32263
 91  4  3  0 25 14.9990000  0  5G15G19G13G 2G 6
  23370767.011    -3508581.817 5  -2662664.24621
  22761666.3004    9330523.07645   7274858.83061
  22441261.4254   -7280801.18246  -4936242.75261
  20545087.198   -17963554.591 8 -13887350.04623
  20802823.5734  -18939952.45347 -14657875.51163
 91  4  3  0 25 29.9990000  0  5G15G19G13G 2G 6
  23367777.136    -3524295.493 5  -2674908.59321
  22768414.112     9365971.395 5   7302480.81921
  22430379.7694   -7337984.06546  -4980800.65961
  20544779.339   -17965171.255 8 -13888609.76323
  20797705.6594  -18966848.68847 -14678833.58063
 91  4  3  0 25 44.9990000  0  5G15G19G13G 2G 6
  23364808.542    -3539889.676 5  -2687059.84021
  22775170.144     9401482.826 5   7330151.97121
  22419511.3314   -7395095.34046  -5025302.76861
  20544480.808   -17966741.559 8 -13889833.35423
  20792597.7534  -18993690.33447 -14699749.10763
 91  4  3  0 25 59.9990000  0  5G15G19G13G 2G 6
  23361863.8624   -3555366.12445  -2699119.33861
  22781937.323     9437054.971 5   7357870.44821
  22408657.2694   -7452136.70446  -5069750.42961
  20544189.737   -17968267.855 8 -13891022.65923
  20787499.0974  -19020479.28247 -14720623.57763
 91  4  3  0 26 14.9990000  0  5G15G19G13G 2G 6
  23358940.769    -3570720.684 5  -2711083.85421
  22788721.097     9472691.846 5   7385639.36521
  22397816.2924   -7509103.93646  -5114140.28161
  20543908.690   -17969746.316 8 -13892174.68223
  20782412.7614  -19047211.39447 -14741453.75163
 91  4  3  0 26 29.9990000  0  5G15G19G13G 2G 6
  23356043.8624   -3585955.68445  -2722955.21161
  22795512.440     9508391.025 5   7413456.83621
  22386988.839    -7565998.983 6  -5158473.93121
  20543636.386   -17971179.344 8 -13893291.30723
  20777336.2924  -19073888.67247 -14762241.20463
 91  4  3  0 26 44.9990000  0  5G15G19G13G 2G 6
  23353166.011    -3601071.532 5  -2734733.71821
  22802318.198     9544151.823 5   7441322.30621
  22376175.355    -7622822.048 6  -5202751.44121
  20543372.331   -17972567.549 8 -13894373.00223
  20772269.9254  -19100511.26747 -14782986.04563
 91  4  3  0 26 59.9990000  0  5G15G19G13G 2G 6
  23350312.620    -3616068.799 5  -2746419.82521
  22809137.550     9579973.109 5   7469234.91321
  22365377.558    -7679573.718 6  -5246973.35821
  20543116.011   -17973911.888 8 -13895420.51723
  20767214.3704  -19127080.02647 -14803688.93663
 91  4  3  0 27 14.9990000  0  5G15G19G13G 2G 6
  23347482.0734   -3630941.31745  -2758008.71061
  22815965.464     9615860.798 5   7497199.27221
  22354591.683    -7736247.665 6  -5291134.67921
  20542868.901   -17975206.390 8 -13896429.19723
  20762169.2614  -19153588.60447 -14824344.92963
 91  4  3  0 27 29.9990000  0  5G15G19G13G 2G 6
  23344673.4954   -3645697.62945  -2769507.06961
  22822804.425     9651806.339 5   7525208.71421
  22343819.894    -7792852.039 6  -5335241.81921
  20542631.034   -17976459.521 8 -13897405.63823
  20757134.5654  -19180045.42647 -14844960.59663
 91  4  3  0 27 44.9990000  0  5G15G19G13G 2G 6
  23341887.6834   -3660334.49845  -2780912.34061
  22829657.0734    9687812.29845   7553265.22061
  22333062.7374   -7849383.74346  -5379292.30461
  20542399.628   -17977668.763 8 -13898347.88323
  20752110.5974  -19206447.44647 -14865533.56263
 91  4  3  0 27 59.9990000  0  5G15G19G13G 2G 6
  23339125.4014   -3674849.13045  -2792222.35761
  22836520.2614    9723881.13845   7581370.72661
  22322320.8554   -7905839.69046  -5423283.77961
  20542179.136   -17978831.719 8 -13899254.06223
  20747096.8154  -19232791.84747 -14886061.62663
 91  4  3  0 28 14.9990000  0  5G15G19G13G 2G 6
  23336386.815    -3689244.118 5  -2803439.16221
  22843396.667     9760010.204 5   7609523.17221
  22311588.5034   -7962222.35946  -5467218.14361
  20541966.378   -17979950.949 8 -13900126.16923
  20742095.5034  -19259081.01247 -14906546.65563
 91  4  3  0 28 29.9990000  0  5G15G19G13G 2G 6
  23333671.1364   -3703518.64045  -2814562.09061
  22850281.144     9796199.955 5   7637722.90021
  22300873.0424   -8018530.74346  -5511094.63261
  20541762.878   -17981025.903 8 -13900963.77123
  20737102.4724  -19285314.04947 -14926987.94163
 91  4  3  0 28 44.9990000  0  5G15G19G13G 2G 6
  23330976.745    -3717672.466 5  -2825590.96921
  22857180.136     9832450.162 5   7665969.74621
  22290174.628    -8074764.905 6  -5554913.29021
  20541565.745   -17982056.721 8 -13901766.98323
  20732121.7454  -19311490.77747 -14947385.35763
 91  4  3  0 28 59.9990000  0  5G15G19G13G 2G 6
  23328307.644    -3731706.878 5  -2836526.79521
  22864089.495     9868759.480 5   7694262.64121
  22279485.839    -8130925.606 6  -5598674.70021
  20541377.003   -17983044.909 8 -13902536.97323
  20727150.3864  -19337612.29547 -14967739.74963
 91  4  3  0 29 14.9990000  0  5G15G19G13G 2G 6
  23325659.409    -3745616.127 5  -2847365.09121
  22871012.136     9905133.116 5   7722605.65421
  22268812.034    -8187007.043 6  -5642374.35621
  20541198.628   -17983985.099 8 -13903269.56823
  20722191.9254  -19363673.00347 -14988046.75563
 91  4  3  0 29 29.9990000  0  5G15G19G13G 2G 6
  23323035.394    -3759401.925 5  -2858107.19521
  22877945.792     9941569.411 5   7750997.50021
  22258158.4334   -8243010.88246  -5686013.52461
  20541030.011   -17984879.123 8 -13903966.18623
  20717244.0974  -19389674.40247 -15008307.54663
 91  4  3  0 29 44.9990000  0  5G15G19G13G 2G 6
  23320436.222    -3773065.375 5  -2868753.96421
  22884892.237     9978066.551 5   7779436.75521
  22247512.909    -8298938.042 6  -5729592.96421
  20540866.745   -17985728.434 8 -13904627.96723
  20712307.0344  -19415617.70847 -15028523.07363
 91  4  3  0 29 59.9990000  0  5G15G19G13G 2G 6
  23317859.8474   -3786604.69545  -2879304.00861
  22891847.198    10014625.990 5   7807924.55121
  22236888.011    -8354786.680 6  -5773111.21221
  20540713.206   -17986531.546 8 -13905253.74523
  20707380.5734  -19441501.10447 -15048691.90963
 91  4  3  0 30 14.9990000  0  5G15G19G13G 2G 6
  23315305.151    -3800023.797 5  -2889760.38121
  22898815.3704   10051243.83845   7836457.87961
  22226271.519    -8410560.374 6  -5816571.06521
  20540567.214   -17987292.486 8 -13905846.66223
  20702466.4174  -19467328.25547 -15068816.92163
 91  4  3  0 30 29.9990000  0  5G15G19G13G 2G 6
  23312773.8704   -3813322.70645  -2900123.09161
  22905794.8704   10087919.69745   7865036.41161
  22215673.605    -8466258.966 6  -5859972.39121
  20540432.800   -17988011.531 8 -13906406.93523
  20697562.1124  -19493099.11347 -15088898.07263
 91  4  3  0 30 44.9990000  0  5G15G19G13G 2G 6
  23310268.0894   -3826498.15845  -2910389.60861
  22912786.769    10124656.717 5   7893662.57221
  22205089.808    -8521878.815 6  -5903312.36721
  20540303.878   -17988685.415 8 -13906932.02023
  20692669.6124  -19518810.25647 -15108932.68863
 91  4  3  0 30 59.9990000  0  5G15G19G13G 2G 6
  23307786.417    -3839549.045 5  -2920559.06421
  22919787.128    10161455.466 5   7922336.84221
  22194521.823    -8577419.103 6  -5946590.33921
  20540185.737   -17989313.443 8 -13907421.36923
  20687787.9404  -19544460.68547 -15128920.00063
 91  4  3  0 31 14.9990000  0  5G15G19G13G 2G 6
  23305323.808    -3852474.393 5  -2930630.68921
  22926801.847    10198316.644 5   7951059.76221
  22183967.269    -8632878.243 6  -5989805.08421
  20540075.315   -17989894.916 8 -13907874.44623
  20682919.6124  -19570049.31147 -15148859.14863
 91  4  3  0 31 29.9990000  0  5G15G19G13G 2G 6
  23302888.8234   -3865276.06045  -2940605.95161
  22933830.206    10235238.198 5   7979829.74021
  22173426.5734   -8688258.27446  -6032958.18761
  20539972.136   -17990432.063 8 -13908292.98623
  20678061.1674  -19595577.93047 -15168751.54363
 91  4  3  0 31 44.9990000  0  5G15G19G13G 2G 6
  23300476.7844   -3877951.83545  -2950483.11561
  22940867.9334   10272221.90245   8008648.15061
  22162906.0424   -8743557.25646  -6076048.11761
  20539877.417   -17990922.898 8 -13908675.43223
  20673214.690   -19621044.319 7 -15188595.44123
 91  4  3  0 31 59.9990000  0  5G15G19G13G 2G 6
  23298087.2224   -3890503.38345  -2960263.46861
  22947917.2064   10309266.09345   8037513.68461
  22152397.1054   -8798776.11246  -6119075.63761
  20539792.612   -17991369.123 8 -13909023.12123
  20668380.1204  -19646449.85647 -15208391.92763
 91  4  3  0 32 14.9990000  0  5G15G19G13G 2G 6
  23295723.3314   -3902927.48345  -2969944.52961
  22954976.7614   10346373.24245   8066428.27161
  22141903.784    -8853911.829 6  -6162038.37021
  20539717.190   -17991768.032 8 -13909333.94323
  20663558.6904  -19671791.70747 -15228138.78463
 91  4  3  0 32 29.9990000  0  5G15G19G13G 2G 6
  23293383.480    -3915228.176 5  -2979529.40921
  22962050.097    10383539.330 5   8095388.78121
  22131428.1984   -8908968.01946  -6204939.13361
  20539648.761   -17992123.855 8 -13909611.18923
  20658746.9644  -19697073.43047 -15247838.78863
 91  4  3  0 32 44.9990000  0  5G15G19G13G 2G 6
  23291066.0974   -3927404.76145  -2989017.60061
  22969133.698    10420764.913 5   8124395.65521
  22120967.1284   -8963943.82146  -6247777.25161
  20539590.230   -17992435.917 8 -13909854.33423
  20653947.995   -19722294.202 7 -15267491.29723
 91  4  3  0 32 59.9990000  0  5G15G19G13G 2G 6
  23288772.667    -3939456.378 5  -2998408.40821
  22976230.839    10458050.232 5   8153449.08521
  22110520.362    -9018838.547 6  -6290552.20221
  20539538.917   -17992703.843 8 -13910063.09123
  20649160.1834  -19747453.31147 -15287095.76363
 91  4  3  0 33 14.9990000  0  5G15G19G13G 2G 6
  23286501.8154   -3951384.04845  -3007702.63661
  22983334.534    10495393.980 5   8182548.03321
  22100089.8624   -9073652.78846  -6333264.43761
  20539497.534   -17992928.768 8 -13910238.34023
  20644384.0194  -19772551.70147 -15306652.90963
 91  4  3  0 33 29.9990000  0  5G15G19G13G 2G 6
  23284256.6054   -3963190.32545  -3016902.27361
  22990453.0424   10532793.49345   8211690.44361
  22089673.769    -9128389.028 6  -6375915.87921
  20539461.972   -17993113.336 8 -13910382.14223
  20639618.8554  -19797591.68147 -15326164.54263
 91  4  3  0 33 44.9990000  0  5G15G19G13G 2G 6
  23282033.6904   -3974869.79745  -3026003.09561
  22997581.159    10570253.728 5   8240880.15521
  22079272.9334   -9183041.70146  -6418502.24261
  20539433.472   -17993252.401 8
  20634866.3394  -19822567.81547 -15345626.43063
 91  4  3  0 33 59.9990000  0  5G15G19G13G 2G 6
  23279833.690    -3986426.448 5  -3035008.22621
  23004719.769    10607770.397 5   8270113.85321
  22068887.948    -9237614.601 6  -6461026.41021
  20539417.870   -17993350.493 8
  20630124.9724  -19847484.16347 -15365041.73063
 91  4  3  0 34 14.9990000  0  5G15G19G13G 2G 6
  23277658.3554   -3997859.64445  -3043917.15361
  23011869.987    10645343.965 5   8299391.87421
  22058520.378    -9292106.777 6  -6503487.70321
  20539405.558   -17993407.086 8
  20625394.1674  -19872339.91947 -15384409.81463
 91  4  3  0 34 29.9990000  0  5G15G19G13G 2G 6
  23275506.8234   -4009164.52245  -3052726.09761
  23019031.284    10682979.117 5   8328717.89821
  22048164.886    -9346513.550 6  -6545882.42521
  20539403.597   -17993417.383 8
  20620678.6834  -19897130.03447 -15403726.75463
 91  4  3  0 34 44.9990000  0  5G15G19G13G 2G 6
  23273381.4014   -4020343.84945  -3061437.19661
  23026205.112    10720672.985 5   8358089.66121
  22037827.386    -9400837.056 6  -6588212.28521
  20539411.605   -17993384.098 8
  20615972.0654  -19921856.96847 -15422994.46163
 91  4  3  0 34 59.9990000  0  5G15G19G13G 2G 6
  23271277.6594   -4031394.43145  -3070047.98261
  23033392.511    10758428.186 5   8387509.21921
  22027506.1754   -9455074.21646  -6630474.85961
  20539424.526   -17993304.635 8
  20611278.9874  -19946517.73947 -15442210.61563
 91  4  3  0 35 14.9990000  0  5G15G19G13G 2G 6
  23269197.2764   -4042321.94045  -3078562.86461
  23040584.9724   10796238.82445   8416971.97161
  22017201.9874   -9509230.51046  -6672674.41261
  20539449.253   -17993184.886 8
  20606597.8084  -19971117.89847 -15461379.53563
 91  4  3  0 35 29.9990000  0  5G15G19G13G 2G 6
  23267139.9334   -4053127.38345  -3086982.64961
  23047791.2224   10834103.65544   8446476.94361
  22006909.6984   -9563306.95846  -6714811.76361
  20539478.433   -17993025.979 8
  20601928.2694  -19995658.29347 -15480501.89163
 91  4  3  0 35 44.9990000  0  5G15G19G13G 2G 6
  23265106.534    -4063809.906 5  -3095306.63421
  23055006.144    10872023.228 5   8476024.58721
  21996636.198    -9617302.085 6  -6756885.73521
  20539516.487   -17992827.109 8
  20597269.9334  -20020137.87947 -15499576.86263
 91  4  3  0 35 59.9990000  0  5G15G19G13G 2G 6
  23263098.980    -4074364.001 5  -3103530.56121
  23062233.3784   10910002.72045   8505618.91161
  21986376.776    -9671210.597 6  -6798892.22221
  20539564.222   -17992583.248 8 -13909968.92523
  20592623.5424  -20044551.15347 -15518600.16363
 91  4  3  0 36 14.9990000  0  5G15G19G13G 2G 6
  23261114.386    -4084794.648 5  -3111658.28021
  23069472.081    10948036.736 5   8535255.71821
  21976134.1514   -9725037.32146  -6840834.97761
  20539614.605   -17992299.556 8 -13909747.84823
  20587990.1594  -20068903.21347 -15537575.76263
 91  4  3  0 36 29.9990000  0  5G15G19G13G 2G 6
  23259150.659    -4095104.294 5  -3119691.70821
  23076721.151    10986122.773 4   8564933.06221
  21965905.394    -9778784.177 6  -6882715.50221
  20539678.034   -17991978.372 8 -13909497.55423
  20583367.3314  -20093195.94347 -15556505.13463
 91  4  3  0 36 44.9990000  0  5G15G19G13G 2G 6
  23257213.862    -4105289.393 5  -3127628.09421
  23083977.4404   11024263.84345   8594653.28161
  21955693.7454   -9832447.96846  -6924531.29461
  20539747.667   -17991617.074 8 -13909216.00523
  20578756.6904  -20117426.29347 -15575385.89363
 91  4  3  0 36 59.9990000  0  5G15G19G13G 2G 6
  23255301.3084   -4115347.00245  -3135465.13861
  23091250.3474   11062462.66844   8624418.51461
  21945497.730    -9886025.574 6  -6966279.94321
  20539823.550   -17991212.605 8 -13908900.82023
  20574157.4254  -20141591.02347 -15594215.52263
 91  4  3  0 37 14.9990000  0  5G15G19G13G 2G 6
  23253411.206    -4125279.207 5  -3143204.47121
  23098525.9644   11100716.99145   8654226.98661
  21935317.917    -9939518.622 6  -7007962.68921
  20539906.761   -17990766.950 8 -13908553.54123
  20569571.5424  -20165691.93247 -15612995.42063
 91  4  3  0 37 29.9990000  0  5G15G19G13G 2G 6
  23251542.8704   -4135087.38045  -3150847.13961
  23105818.1984   11139025.27544   8684077.50561
  21925154.636    -9992928.358 6  -7049580.52321
  20540001.901   -17990281.795 8 -13908175.48323
  20564997.1904  -20189730.32247 -15631726.60263
 91  4  3  0 37 44.9990000  0  5G15G19G13G 2G 6
  23249702.550    -4144768.111 5  -3158390.50921
  23113118.1904   11177390.62745   8713972.49361
  21915008.081   -10046250.942 6  -7091130.45421
  20540099.690   -17989753.745 8 -13907763.99924
  20560435.8314  -20213702.40147 -15650406.11263
 91  4  3  0 37 59.9990000  0  5G15G19G13G 2G 6
  23247883.9724   -4154320.28345  -3165833.71061
  23120430.573    11215813.643 4   8743912.41621
  21904877.761   -10099485.411 6  -7132611.72121
  20540208.956   -17989182.199 8 -13907318.61623
  20555886.0114  -20237607.31647 -15669033.28663
 91  4  3  0 38 14.9990000  0  5G15G19G13G 2G 6
  23246092.190    -4163742.565 5  -3173175.68621
  23127752.315    11254295.618 5   8773898.27821
  21894763.581   -10152630.296 6  -7174023.17921
  20540327.065   -17988566.020 8 -13906838.45524
  20551350.8554  -20261443.52147 -15687606.91963
 91  4  3  0 38 29.9990000  0  5G15G19G13G 2G 6
  23244323.3394   -4173031.17645  -3180413.51261
  23135084.8944   11292839.85445   8803932.66761
  21884669.378   -10205681.650 6  -7215361.75221
  20540452.105   -17987901.804 8 -13906320.86423
  20546828.8314  -20285207.31447 -15706124.12863
 91  4  3  0 38 44.9990000  0  5G15G19G13G 2G 6
  23242582.159    -4182192.727 5  -3187552.33221
  23142431.1124   11331439.66245   8834010.34261
  21874590.495   -10258645.898 6  -7256632.46821
  20540588.511   -17987196.271 8 -13905771.07723
  20542318.4174  -20308905.10847 -15724589.90663
 91  4  3  0 38 59.9990000  0  5G15G19G13G 2G 6
  23240859.323    -4191227.337 5  -3194592.23521
  23149786.0504   11370094.60145   8864130.98061
  21864527.800   -10311523.186 6  -7297835.40621
  20540730.675   -17986449.572 8 -13905189.21523
  20537822.0894  -20332536.78547 -15743004.16963
 91  4  3  0 39 14.9990000  0  5G15G19G13G 2G 6
  23239164.4804   -4200132.90645  -3201531.58061
  23157152.7144   11408806.47545   8894295.99361
  21854483.8624  -10364310.87946  -7338968.54361
  20540880.269   -17985659.626 8 -13904573.64924
  20533337.7304  -20356100.17247 -15761365.21763
 91  4  3  0 39 29.9990000  0  5G15G19G13G 2G 6
  23237497.4174   -4208912.90645  -3208373.10361
  23164533.355    11447571.639 4   8924502.54021
  21844454.0654  -10417012.26846  -7380034.41761
  20541037.292   -17984830.120 8 -13903927.26323
  20528866.0974  -20379598.48347 -15779675.55463
 91  4  3  0 39 44.9990000  0  5G15G19G13G 2G 6
  23235850.394    -4217562.649 5  -3215113.10021
  23171918.612    11486394.501 5   8954754.01321
  21834441.784   -10469622.690 6  -7421029.42421
  20541203.175   -17983956.820 8 -13903246.74623
  20524408.0654  -20403027.13247 -15797931.60963
 91  4  3  0 39 59.9990000  0  5G15G19G13G 2G 6
  23234227.417    -4226085.346 5  -3221754.12021
  23179317.448    11525271.689 5   8985047.85721
  21824448.026   -10522144.965 6  -7461955.73321
  20541376.628   -17983042.874 8 -13902534.55424
  20519962.6594  -20426388.97047 -15816135.60163
 91  4  3  0 40 14.9990000  0  5G15G19G13G 2G 6
  23232629.128    -4234478.601 5  -3228294.27521
  23186725.7764   11564205.26345   9015385.60861
  21814469.753   -10574576.794 6  -7502811.57021
  20541558.612   -17982086.381 8 -13901789.21424
  20515529.8234  -20449681.69347 -15834285.74063
 91  4  3  0 40 29.9990000  0  5G15G19G13G 2G 6
  23231056.9404   -4242743.20045  -3234734.15761
  23194144.8554   11603194.08945   9045766.42161
  21804509.534   -10626918.619 6  -7543597.27321
  20541749.175   -17981087.931 8 -13901011.17923
  20511110.5814  -20472905.60547 -15852382.25663
 91  4  3  0 40 44.9990000  0  5G15G19G13G 2G 6
  23229508.7454   -4250881.69845  -3241075.79961
  23201575.3394   11642235.63345   9076188.30961
  21794566.495   -10679172.675 6  -7584314.58321
  20541946.675   -17980050.287 8 -13900202.60123
  20506704.5264  -20496063.29547 -15870427.17163
 91  4  3  0 40 59.9990000  0  5G15G19G13G 2G 6
  23227984.5504   -4258889.18945  -3247315.34861
  23209015.7374   11681334.28145   9106654.70061
  21784639.378   -10731333.945 6  -7624959.59221
  20542152.573   -17978968.779 8 -13899359.84623
  20502310.7304  -20519149.85047 -15888416.65963
 91  4  3  0 41 14.9990000  0  5G15G19G13G 2G 6
  23226486.0814   -4266769.02445  -3253455.42861
  23216464.6834   11720486.16745   9137162.57261
  21774731.839   -10783406.042 6  -7665535.12121
  20542365.878   -17977847.201 8 -13898485.87023
  20497930.4174  -20542168.65547 -15906353.35563
 91  4  3  0 41 29.9990000  0  5G15G19G13G 2G 6
  23225012.2454   -4274517.54945  -3259493.19161
  23223925.581    11759694.895 5   9167714.74721
  21764839.0814  -10835384.80646  -7706037.91361
  20542587.136   -17976681.945 8 -13897577.85423
  20493563.8314  -20565115.80947 -15924234.21463
 91  4  3  0 41 44.9990000  0  5G15G19G13G 2G 6
  23223558.7694   -4282137.21645  -3265430.56061
  23231397.362    11798957.943 4   9198309.23321
  21754966.5264  -10887272.34846  -7746469.64961
  20542818.636   -17975475.418 8 -13896637.68323
  20489209.2454  -20587993.44647 -15942060.90463
 91  4  3  0 41 59.9990000  0  5G15G19G13G 2G 6
  23222134.511    -4289630.522 5  -3271269.44121
  23238876.3944   11838272.44344   9228943.82661
  21745107.9644  -10939071.03946  -7786832.13461
  20543054.534   -17974230.462 8 -13895667.56623
  20484869.2304  -20610804.10347 -15959835.40663
 91  4  3  0 42 14.9990000  0  5G15G19G13G 2G 6
  23220734.1754   -4296995.64345  -3277008.45961
  23246371.3234   11877640.05344   9259619.78361
  21735269.378   -10990778.871 6  -7827123.81121
  20543298.792   -17972945.349 8 -13894666.15523
  20480542.1364  -20633545.62647 -15977556.03263
 91  4  3  0 42 29.9990000  0  5G15G19G13G 2G 6
  23219356.2224   -4304228.95145  -3282644.75761
  23253873.6444   11917064.16944   9290339.77361
  21725447.2844  -11042392.05446  -7867341.75661
  20543552.6444  -17971616.74848 -13893630.85763
  20476227.8864  -20656214.30347 -15995219.90263
 91  4  3  0 42 44.9990000  0  5G15G19G13G 2G 6
  23218005.667    -4311332.556 5  -3288179.99921
  23261385.112    11956542.260 4   9321101.84521
  21715642.3154  -11093912.54746  -7907487.46061
  20543811.9724  -17970246.78248 -13892563.32263
  20471927.2454  -20678812.24147 -16012828.63963
 91  4  3  0 42 59.9990000  0  5G15G19G13G 2G 6
  23216676.9484   -4318308.23645  -3293615.54861
  23268907.2924   11996071.94044   9351904.08461
  21705856.612   -11145342.194 6  -7947562.37321
  20544080.5424  -17968837.58948 -13891465.22263
  20467640.2694  -20701341.20947 -16030383.64263
 91  4  3  0 43 14.9990000  0  5G15G19G13G 2G 6
  23215374.823    -4325155.014 5  -3298950.65721
  23276440.815    12035654.366 4   9382747.43921
  21696087.1204  -11196679.58346  -7987565.40661
  20544355.9954  -17967388.36348 -13890335.93163
  20463367.3004  -20723799.80947 -16047883.81163
 91  4  3  0 43 29.9990000  0  5G15G19G13G 2G 6
  23214094.3864   -4331878.16845  -3304189.44361
  23283979.4174   12075284.19744   9413627.74561
  21686334.0974  -11247929.75246  -8027500.46461
  20544638.1514  -17965904.37448 -13889179.55063
  20459105.6124  -20746193.21047 -16065333.17663
 91  4  3  0 43 44.9990000  0  5G15G19G13G 2G 6
  23212839.1904   -4338469.50945  -3309325.52861
  23291533.605    12114969.228 4   9444551.04721
  21676599.8784  -11299084.36646  -8067361.06961
  20544929.003   -17964377.548 8 -13887989.78923
  20454858.4334  -20768512.96247 -16082725.15363
 91  4  3  0 43 59.9990000  0  5G15G19G13G 2G 6
  23211608.198    -4344931.648 5  -3314360.90821
  23299097.5814   12154706.42644   9475515.00661
  21666883.6124  -11350145.93746  -8107149.17861
  20545227.519   -17962810.810 8 -13886768.93323
  20450623.7454  -20790761.76347 -16100061.84663
 91  4  3  0 44 14.9990000  0  5G15G19G13G 2G 6
  23210405.7534   -4351266.13045  -3319296.82961
  23306665.6834   12194493.95844   9506518.16961
  21657183.573   -11401115.984 6  -8146865.96721
  20545532.2304  -17961205.79248 -13885518.24363
  20446404.0194  -20812941.07447 -16117344.38763
 91  4  3  0 44 29.9990000  0  5G15G19G13G 2G 6
  23209225.417    -4357470.897 5  -3324131.68121
  23314248.2694   12234333.59244   9537561.95761
  21647503.659   -11451992.250 6  -8186509.68121
  20545845.769   -17959560.654 8 -13884236.29924
  20442195.7924  -20835048.54347 -16134570.95063
 91  4  3  0 44 44.9990000  0  5G15G19G13G 2G 6
  23208067.753    -4363549.979 5  -3328868.58821
  23321837.573    12274221.186 4   9568643.10021
  21637837.870   -11502778.322 6  -8226083.10421
  20546164.683   -17957879.664 8 -13882926.41623
  20438002.6364  -20857088.16347 -16151744.64263
 91  4  3  0 44 59.9990000  0  5G15G19G13G 2G 6
  23206936.612    -4369502.823 5  -3333507.12221
  23329437.1364   12314157.26344   9599762.02261
  21628190.9014  -11553473.56046  -8265585.76161
  20546491.792   -17956162.206 8 -13881588.11324
  20433821.5424  -20879058.97847 -16168864.72063
 91  4  3  0 45 14.9990000  0  5G15G19G13G 2G 6
  23205826.433    -4375325.287 5  -3338044.08621
  23337047.2144   12354145.67544   9630921.73161
  21618560.839   -11604073.511 6  -8305014.16121
  20546827.019   -17954404.187 8 -13880218.20623
  20429654.6054  -20900956.67847 -16185927.83163
 91  4  3  0 45 29.9990000  0  5G15G19G13G 2G 6
  23204742.675    -4381022.260 5  -3342483.22621
  23344668.9094   12394181.07944   9662118.05461
  21608950.394   -11654582.703 6  -8344371.84621
  20547168.565   -17952610.589 8 -13878820.57723
  20425500.3394  -20922786.12147 -16202937.75063
 91  4  3  0 45 44.9990000  0  5G15G19G13G 2G 6
  23203682.8554   -4386588.24645  -3346820.32761
  23352295.0504   12434268.57844   9693354.95961
  21599356.3944  -11704995.90646  -8383654.73761
  20547516.909   -17950776.493 8 -13877391.39223
  20421360.5504  -20944541.69547 -16219890.11663
 91  4  3  0 45 59.9990000  0  5G15G19G13G 2G 6
  23202650.347    -4392024.190 5  -3351056.08921
  23359933.0584   12474407.25944   9724631.75361
  21589781.1364  -11755313.59146  -8422863.18961
  20547873.308   -17948902.724 8 -13875931.29223
  20417234.2454  -20966224.18247 -16236785.52963
 91  4  3  0 46 14.9990000  0  5G15G19G13G 2G 6
  23201641.8314   -4397329.98045  -3355190.43461
  23367578.6904   12514596.88344   9755948.24761
  21580223.9484  -11805535.59846  -8461997.09861
  20548237.011   -17946989.310 8 -13874440.29823
  20413121.9404  -20987833.15947 -16253623.65863
 91  4  3  0 46 29.9990000  0  5G15G19G13G 2G 6
  23200654.3704   -4402502.80645  -3359221.16861
  23375239.3004   12554840.03744   9787306.46961
  21570685.683   -11855658.897 6  -8501054.08321
  20548609.964   -17945033.568 8 -13872916.32523
  20409025.1284  -21009365.89747 -16270402.38063
 91  4  3  0 46 44.9990000  0  5G15G19G13G 2G 6
  23199696.2614   -4407544.53445  -3363149.75361
  23382906.7534   12595134.50143   9818704.65261
  21561167.5264  -11905685.18546  -8540035.48461
  20548989.862   -17943037.726 8 -13871361.10423
  20404941.6754  -21030823.98547 -16287122.93663
 91  4  3  0 46 59.9990000  0  5G15G19G13G 2G 6
  23198760.9254   -4412454.13145  -3366975.38361
  23390585.417    12635481.248 3   9850143.57521
  21551664.6124  -11955613.06546  -8578940.20361
  20549376.839   -17941000.626 8 -13869773.73423
  20400872.0584  -21052206.10647 -16303784.29263
 91  4  3  0 47 14.9980000  0  5G15G19G13G 2G 6
  23197855.2254   -4417235.85545  -3370701.37661
  23398270.764    12675872.691 3   9881617.33021
  21542183.115   -12005443.610 6  -8617769.07621
  20549772.014   -17938927.314 8 -13868158.14923
  20396816.6934  -21073515.33747 -16320388.84963
 91  4  3  0 47 29.9980000  0  5G15G19G13G 2G 6
  23196964.7174   -4421888.19345  -3374326.53761
  23405966.1704   12716316.40243   9913131.80661
  21532717.709   -12055181.002 6  -8656525.36721
  20550174.240   -17936815.249 8 -13866512.36323
  20392776.9434  -21094752.01147 -16336936.87463
 91  4  3  0 47 44.9980000  0  5G15G19G13G 2G 6
  23196105.8974   -4426413.88845  -3377853.02561
  23413671.592    12756805.890 3   9944681.96221
  21523270.326   -12104824.889 6  -8695208.78321
  20550581.482   -17934667.950 8 -13864839.12524
  20388748.2324  -21115917.92147 -16353429.75763
 91  4  3  0 47 59.9980000  0  5G15G19G13G 2G 6
  23195270.9204   -4430807.36045  -3381276.47761
  23421388.5224   12797347.02943   9976272.36961
  21513842.3814  -12154369.52946  -8733814.88161
  20550998.459   -17932479.608 8 -13863133.90124
  20384735.4124  -21137006.96547 -16369862.74863
 91  4  3  0 48 14.9980000  0  5G15G19G13G 2G 6
  23194458.1704   -4435064.17645  -3384593.44461
  23429112.9984   12837943.77943  10007906.10261
  21504434.2324  -12203810.55046  -8772340.22261
  20551424.037   -17930246.146 8 -13861393.52524
  20380737.0374  -21158014.70747 -16386232.38563
 91  4  3  0 48 29.9980000  0  5G15G19G13G 2G 6
  23193673.3344   -4439186.45845  -3387805.58261
  23436845.717    12878593.540 4  10039581.13121
  21495044.5844  -12253149.74246  -8810786.22861
  20551857.381   -17927969.994 8 -13859619.88423
  20376755.4824  -21178943.41747 -16402540.44163
 91  4  3  0 48 44.9980000  0  5G15G19G13G 2G 6
  23192913.6314   -4443172.96545  -3390911.91661
  23444592.975    12919297.470 4  10071298.38721
  21485675.0144  -12302385.69546  -8849151.78861
  20552298.420   -17925649.998 8 -13857812.07624
  20372787.3894  -21199791.54947 -16418785.70763
 91  4  3  0 48 59.9980000  0  5G15G19G13G 2G 6
  23192180.5764   -4447026.26945  -3393914.46261
  23452350.045    12960052.654 3  10103055.58521
  21476326.0374  -12351521.08046  -8887438.98161
  20552747.506   -17923288.897 8 -13855972.24224
  20368835.1624  -21220561.50847 -16434970.05763
 91  4  3  0 49 14.9980000  0  5G15G19G13G 2G 6
  23191472.6074   -4450751.42545  -3396817.15961
  23460113.0224   13000853.82844  10134848.62161
  21466994.2174  -12400560.47846  -8925651.38361
  20553204.303   -17920891.898 8 -13854104.43723
  20364896.8814  -21241258.07647 -16451097.22363
 91  4  3  0 49 29.9980000  0  5G15G19G13G 2G 6
  23190787.9364   -4454341.29645  -3399614.42561
  23467890.4284   13041708.30543  10166683.17761
  21457681.7404  -12449496.24446  -8963783.03661
  20553668.201   -17918451.617 8 -13852202.90123
  20360973.7404  -21261873.67847 -16467161.29763
 91  4  3  0 49 44.9980000  0  5G15G19G13G 2G 6
  23190130.3034   -4457799.94245  -3402309.44861
  23475671.7564   13082611.59243  10198555.76461
  21448387.6624  -12498332.28446  -9001836.97161
  20554139.529   -17915972.395 8 -13850271.01924
  20357065.068   -21282412.357 7 -16483165.44023
 91  4  3  0 49 59.9980000  0  5G15G19G13G 2G 6
  23189501.2794   -4461124.21045  -3404899.75361
  23483464.998    13123566.805 3  10230468.80421
  21439114.4434  -12547065.15346  -9039810.52161
  20554618.779   -17913450.975 8 -13848306.26423
  20353173.3034  -21302870.59647 -16499106.89563
 91  4  3  0 50 14.9980000  0  5G15G19G13G 2G 6
  23188893.3734   -4464316.12045  -3407386.92861
  23491266.178    13164571.671 4  10262420.56421
  21429860.662   -12595696.764 6  -9077705.16821
  20555107.029   -17910889.434 8 -13846310.24623
  20349294.459   -21323250.236 7 -16514987.10723
 91  4  3  0 50 29.9980000  0  5G15G19G13G 2G 6
  23188309.1314   -4467379.54545  -3409773.99661
  23499084.4594   13205621.89243  10294407.63161
  21420623.881   -12644230.993 6  -9115523.93321
  20555601.006   -17908292.140 8 -13844286.36023
  20345430.2094  -21343555.24947 -16530809.16563
 91  4  3  0 50 44.9980000  0  5G15G19G13G 2G 6
  23187752.2954   -4470308.54745  -3412056.29361
  23506900.0374   13246723.27244  10326434.57061
  21411407.6784  -12692661.72446  -9153262.04861
  20556103.264   -17905653.304 8 -13842230.10523
  20341582.881   -21363779.363 7 -16546568.18723
 91  4  3  0 50 59.9980000  0  5G15G19G13G 2G 6
  23187219.342    -4473106.118 5  -3414236.19621
  23514730.678    13287872.785 4  10358499.03321
  21402211.9824  -12740991.47846  -9190921.48561
  20556613.826   -17902975.834 8 -13840143.74123
  20337748.1864  -21383925.46847 -16562266.42463
 91  4  3  0 51 14.9980000  0  5G15G19G13G 2G 6
  23186714.678    -4475768.922 5  -3416311.08021
  23522570.647    13329073.142 4  10390603.13621
  21393033.8034  -12789216.75846  -9228499.50961
  20557130.256   -17900256.601 8 -13838024.84623
  20333929.0454  -21403989.90847 -16577901.02263
 91  4  3  0 51 29.9980000  0  5G15G19G13G 2G 6
  23186229.7874   -4478296.39745  -3418280.51161
  23530421.4124   13370324.51244  10422746.93861
  21383876.8654  -12837337.15746  -9265995.80561
  20557656.045   -17897495.293 8 -13835873.15823
  20330127.4674  -21423972.18347 -16593471.59563
 91  4  3  0 51 44.9980000  0  5G15G19G13G 2G 6
  23185778.600    -4480691.833 5  -3420147.03621
  23538281.889    13411623.839 3  10454928.13821
  21374739.5764  -12885355.47046  -9303412.56261
  20558188.490   -17894695.132 8 -13833691.19823
  20326341.0614  -21443875.16147 -16608980.38363
 91  4  3  0 51 59.9980000  0  5G15G19G13G 2G 6
  23185344.404    -4482953.612 5  -3421909.42621
  23546151.217    13452972.454 3  10487147.73521
  21365621.764   -12933270.072 6  -9340748.49421
  20558730.248   -17891854.498 8 -13831477.69823
  20322567.6544  -21463697.05747 -16624425.98463
 91  4  3  0 52 14.9980000  0  5G15G19G13G 2G 6
  23184937.3574   -4485078.43745  -3423565.09861
  23554029.8184   13494373.29044  10519408.00861
  21356524.748   -12981077.171 6  -9378000.66621
  20559279.006   -17888970.294 8 -13829230.25123
  20318811.7794  -21483434.44747 -16639805.74063
 91  4  3  0 52 29.9980000  0  5G15G19G13G 2G 6
  23184563.1704   -4487073.02145  -3425119.28761
  23561914.5454   13535819.50144  10551703.66861
  21347445.053   -13028783.550 6  -9415174.35921
  20559833.318   -17886049.302 8 -13826954.13823
  20315072.2094  -21503093.87347 -16655124.74563
 91  4  3  0 52 44.9980000  0  5G15G19G13G 2G 6
  23184208.537    -4488932.974 5  -3426568.55321
  23569810.686    13577315.275 3  10584037.93821
  21338387.4124  -13076384.29046  -9452265.72361
  20560397.428   -17883086.886 8 -13824645.74323
  20311345.990   -21522670.550 7 -16670379.27423
 91  4  3  0 52 59.9980000  0  5G15G19G13G 2G 6
  23183881.561    -4490658.411 5  -3427913.01021
  23577713.6394   13618860.11643  10616410.43361
  21329349.7724  -13123879.48546  -9489274.85461
  20560968.592   -17880083.592 8 -13822305.50123
  20307635.7014  -21542164.54847 -16685569.37463
 91  4  3  0 53 14.9980000  0  5G15G19G13G 2G 6
  23183577.5764   -4492253.41145  -3429155.83861
  23585630.834    13660449.768 3  10648817.84021
  21320330.7564  -13171273.05846  -9526204.79861
  20561546.943   -17877043.537 8 -13819936.61524
  20303941.451   -21561579.692 7 -16700698.03523
 91  4  3  0 53 29.9980000  0  5G15G19G13G 2G 6
  23183298.1474   -4493717.08745  -3430296.33461
  23593554.857    13702085.097 3  10681260.85621
  21311330.295   -13218563.948 6  -9563054.72921
  20562133.553   -17873965.836 8 -13817538.38923
  20300261.600   -21580914.894 7 -16715764.40223
 91  4  3  0 53 44.9980000  0  5G15G19G13G 2G 6
  23183044.459    -4495045.201 5  -3431331.17321
  23601488.725    13743770.175 3  10713742.62921
  21302353.1314  -13265747.63746  -9599821.11761
  20562727.170   -17870846.432 8 -13815107.67123
  20296598.365   -21600165.651 7 -16730764.96723
 91  4  3  0 53 59.9980000  0  5G15G19G13G 2G 6
  23182816.615    -4496238.130 5  -3432260.68321
  23609430.3574   13785504.30743  10746262.64661
  21293394.209   -13312824.177 6  -9636504.02421
  20563329.365   -17867685.777 8 -13812644.81024
  20292951.389   -21619332.151 7 -16745699.87623
 91  4  3  0 54 14.9980000  0  5G15G19G13G 2G 6
  23182613.779    -4497294.829 5  -3433084.04221
  23617380.2724   13827288.44843  10778821.57461
  21284456.639   -13359792.337 6  -9673102.48221
  20563938.318   -17864482.800 8 -13810148.96923
  20289321.123   -21638413.079 7 -16760568.10723
 91  4  3  0 54 29.9980000  0  5G15G19G13G 2G 6
  23182443.9754   -4498216.06945  -3433801.84661
  23625339.842    13869121.415 3  10811418.60621
  21275538.475   -13406652.630 6  -9709616.87921
  20564555.092   -17861238.460 8 -13807620.90223
  20285705.131   -21657409.155 7 -16775370.22323
 91  4  3  0 54 44.9980000  0  5G15G19G13G 2G 6
  23182289.2954   -4499009.18945  -3434419.82461
  23633308.6864   13910995.74343  10844047.84361
  21266640.412   -13453412.240 6  -9746052.83021
  20565179.670   -17857960.243 8 -13805066.43324
  20282105.725   -21676327.417 7 -16790111.70523
 91  4  3  0 54 59.9980000  0  5G15G19G13G 2G 6
  23182163.5064   -4499671.24745  -3434935.67461
  23641283.264    13952914.187 3  10876711.44721
  21257761.975   -13500068.210 6  -9782408.02021
  20565810.131   -17854645.277 8 -13802483.33123
  20278521.686   -21695164.827 7 -16804790.18123
 91  4  3  0 55 14.9980000  0  5G15G19G13G 2G 6
  23182063.178    -4500199.257 5  -3435347.07021
  23649272.178    13994879.273 3  10909411.38921
  21248904.295   -13546617.125 6  -9818679.78921
  20566449.2644  -17851290.82648 -13799869.46163
  20274951.779   -21713918.180 7 -16819403.16023
 91  4  3  0 55 29.9980000  0  5G15G19G13G 2G 6
  23181987.920    -4500591.736 5  -3435652.84921
  23657267.764    14036892.611 3  10942148.96721
  21240066.811   -13593057.120 6  -9854866.68921
  20567094.6074  -17847895.16348 -13797223.48363
  20271400.045   -21732585.695 7 -16833949.24923
 91  4  3  0 55 44.9980000  0  5G15G19G13G 2G 6
  23181940.162    -4500847.714 5  -3435852.26521
  23665274.201    14078954.751 3  10974924.53421
  21231250.623   -13639387.150 6  -9890967.89621
  20567748.1864  -17844457.46248 -13794544.74863
  20267864.193   -21751166.139 7 -16848427.49423
 91  4  3  0 55 59.9980000  0  5G15G19G13G 2G 6
  23181918.9044   -4500967.38045
  23673284.6234   14121065.19943  11007737.74561
  21222455.264   -13685607.576 6  -9926983.70221
  20568410.037   -17840978.108 8 -13791833.55223
  20264344.6934  -21769659.83547 -16862838.14163
 91  4  3  0 56 14.9980000  0  5G15G19G13G 2G 6
  23181919.4984   -4500947.79745
  23681307.5534   14163227.05743  11040591.03261
  21213682.006   -13731714.828 6  -9962911.32821
  20569081.4204  -17837453.95848 -13789087.45163
  20260842.740   -21788063.190 7 -16877178.39623
 91  4  3  0 56 29.9980000  0  5G15G19G13G 2G 6
  23181948.6394   -4500792.60845
  23689338.2874   14205436.54043  11073481.41961
  21204927.076   -13777712.395 6  -9998753.48221
  20569760.022   -17833888.673 8 -13786309.29623
  20257358.225   -21806379.578 7 -16891450.88123
 91  4  3  0 56 44.9980000  0  5G15G19G13G 2G 6
  23182005.8034   -4500504.25845
  23697380.225    14247690.932 3  11106406.81021
  21196194.881   -13823602.463 6 -10034511.86721
  20570444.8974  -17830284.80748 -13783501.07963
  20253887.678   -21824611.329 7 -16905657.41723
 91  4  3  0 56 59.9980000  0  5G15G19G13G 2G 6
  23182086.7954   -4500081.44745  -3435254.95561
  23705429.584    14289991.178 3  11139367.91021
  21187483.022   -13869383.460 6 -10070185.27021
  20571138.795   -17826641.206 8 -13780661.89623
  20250435.5924  -21842756.86147 -16919796.76863
 91  4  3  0 57 14.9980000  0  5G15G19G13G 2G 6
  23182194.318    -4499520.075 5  -3434817.47621
  23713487.8184   14332341.06343  11172367.70561
  21178792.943   -13915051.177 6 -10105770.39421
  20571840.318   -17822953.795 8 -13777788.57723
  20246998.897   -21860812.129 7 -16933865.78023
 91  4  3  0 57 29.9980000  0  5G15G19G13G 2G 6
  23182323.7644   -4498824.09245  -3434275.11661
  23721556.404    14374736.472 3  11205402.96921
  21170123.561   -13960609.504 6 -10141270.28621
  20572549.576   -17819226.720 8 -13774884.35024
  20243579.772   -21878780.804 7 -16947867.32423
 91  4  3  0 57 44.9980000  0  5G15G19G13G 2G 6
  23182483.0224   -4497989.99945  -3433625.13761
  23729633.272    14417180.795 3  11238476.33621
  21161475.459   -14006054.768 6 -10176682.07721
  20573267.779   -17815456.452 8 -13771946.46823
  20240177.514   -21896659.003 7 -16961798.36923
 91  4  3  0 57 59.9980000  0  5G15G19G13G 2G 6
  23182665.357    -4497019.022 5  -3432868.49021
  23737721.3034   14459672.84143  11271586.89761
  21152848.123   -14051387.552 6 -10212006.21821
  20573993.5684  -17811644.20848 -13768975.87964
  20236792.279   -21914447.684 7 -16975659.65223
 91  4  3  0 58 14.9980000  0  5G15G19G13G 2G 6
  23182878.2644   -4495910.86645  -3432004.94361
  23745813.9204   14502212.83643  11304734.85161
  21144243.248   -14096607.441 6 -10247242.39121
  20574726.232   -17807789.606 8 -13765972.28224
  20233424.0064  -21932146.18647 -16989450.66763
 91  4  3  0 58 29.9980000  0  5G15G19G13G 2G 6
  23183118.459    -4494665.886 5  -3431034.81921
  23753920.748    14544799.815 3  11337919.38521
  21135660.553   -14141714.713 6 -10282390.80721
  20575467.318   -17803893.304 8 -13762936.18823
  20230073.326   -21949754.730 7 -17003171.58523
 91  4  3  0 58 44.9980000  0  5G15G19G13G 2G 6
  23183379.404    -4493280.790 5  -3429955.46421
  23762032.9984   14587436.89543  11371142.94061
  21127098.475   -14186705.932 6 -10317448.79721
  20576217.256   -17799952.288 8 -13759865.25223
  20226741.0614  -21967270.09247 -17016819.89463
 91  4  3  0 58 59.9980000  0  5G15G19G13G 2G 6
  23183667.311    -4491764.106 5  -3428773.61121
  23770154.998    14630115.562 3  11404398.91121
  21118557.076   -14231589.072 6 -10352422.55721
  20576973.725   -17795974.922 8 -13756765.99224
  20223424.389   -21984700.342 7 -17030401.87923
 91  4  3  0 59 14.9980000  0  5G15G19G13G 2G 6
  23183985.8734   -4490110.83445  -3427485.30661
  23778284.912    14672840.474 3  11437690.92621
  21110037.943   -14276359.277 6 -10387308.32721
  20577738.5454  -17791956.22848 -13753634.53363
  20220124.3894  -22002040.34147 -17043913.53663
 91  4  3  0 59 29.9980000  0  5G15G19G13G 2G 6
  23184322.3654   -4488318.57745  -3426088.71461
  23786425.928    14715613.661 3  11471020.53021
  21101540.654   -14321014.038 6 -10422104.13521
  20578511.6544  -17787894.01948 -13750469.16363
  20216842.2724  -22019287.65747 -17057352.97563
 91  4  3  0 59 44.9980000  0  5G15G19G13G 2G 6
  23184690.6934   -4486388.07245  -3424584.38461
  23794572.889    14758434.476 3  11504387.28121
  21093064.115   -14365553.458 7 -10456810.07621
  20579293.506   -17783788.646 8 -13747270.15924
  20213577.584   -22036442.330 7 -17070720.22723
 91  4  3  0 59 59.9980000  0  5G15G19G13G 2G 6
  23185085.8654   -4484321.28745  -3422973.87161
  23802729.795    14801300.593 3  11537789.33521
  21084611.076   -14409979.454 7 -10491427.62521
  20580082.326   -17779642.398 8 -13744039.30223
  20210329.381   -22053506.371 7 -17084016.85523
 91  4  3  1  0 14.9980000  0  5G15G19G13G 2G 6
  23185502.8184   -4482113.58545  -3421253.55361
  23810898.5844   14844216.42343  11571230.11261
  21076179.514   -14454287.250 7 -10525953.07021
  20580880.279   -17775450.630 7 -13740772.96723
  20207101.600   -22070475.103 7 -17097239.21923
 91  4  3  1  0 29.9980000  0  5G15G19G13G 2G 6
  23185948.0294   -4479769.31545  -3419426.80961
  23819072.9124   14887177.77743  11604706.35861
  21067768.662   -14498480.789 6 -10560389.49121
  20581685.725   -17771217.677 8 -13737474.54924
  20203890.498   -22087352.000 7 -17110390.02523
 91  4  3  1  0 44.9980000  0  5G15G19G13G 2G 6
  23186421.5924   -4477288.25745  -3417493.49461
  23827257.084    14930184.764 3  11638218.17021
  21059380.7794  -14542559.61046 -10594736.51961
  20582499.131   -17766942.984 8 -13734143.60723
  20200694.811   -22104136.723 7 -17123469.00523
 91  4  3  1  0 59.9980000  0  5G15G19G13G 2G 6
  23186923.186    -4474672.781 5  -3415455.42421
  23835448.7014   14973234.41143  11671763.22361
  21051013.772   -14586526.092 6 -10628996.00921
  20583319.522   -17762629.239 7 -13730782.23423
  20197518.2874  -22120831.66947 -17136478.02663
 91  4  3  1  1 14.9980000  0  5G15G19G13G 2G 6
  23187445.193    -4471920.962 5  -3413311.12121
  23843647.0764   15016328.56643  11705342.96561
  21042670.287   -14630377.886 7 -10663166.12421
  20584147.592   -17758274.448 8 -13727388.87623
  20194359.732   -22137434.630 7 -17149415.37323
 91  4  3  1  1 29.9980000  0  5G15G19G13G 2G 6
  23187994.795    -4469031.967 5  -3411059.90521
  23851860.717    15059467.924 3  11738957.94321
  21034346.467   -14674114.048 6 -10697246.15321
  20584985.131   -17753878.055 8 -13723963.10123
  20191217.475   -22153944.572 7 -17162280.23723
 91  4  3  1  1 44.9980000  0  5G15G19G13G 2G 6
  23188570.9364   -4466003.09945  -3408699.72761
  23860078.506    15102655.130 3  11772610.17921
  21026047.029   -14717731.537 6 -10731233.69921
  20585829.732   -17749437.395 8 -13720502.83123
  20188094.0684  -22170358.46947 -17175070.25763
 91  4  3  1  1 59.9980000  0  5G15G19G13G 2G 6
  23189171.3574   -4462836.88145  -3406232.49961
  23868306.475    15145887.473 3  11806297.57921
  21017768.397   -14761232.468 6 -10765130.41921
  20586683.498   -17744954.969 8 -13717010.01823
  20184988.1474  -22186678.57647 -17187787.19463
 91  4  3  1  2 14.9980000  0  5G15G19G13G 2G 6
  23189797.4364   -4459534.96945  -3403659.53861
  23876541.1394   15189162.90843  11840018.57161
  21009512.4754  -14804618.37747 -10798937.52261
  20587543.600   -17740432.376 8 -13713485.90323
  20181900.365   -22202906.346 7 -17200432.18723
 91  4  3  1  2 29.9980000  0  5G15G19G13G 2G 6
  23190457.7644   -4456095.63745  -3400979.51861
  23884785.842    15232482.848 3  11873774.24721
  21001278.318   -14847887.999 6 -10832654.00121
  20588412.264   -17735868.165 8 -13709929.36023
  20178829.4364  -22219040.03047 -17213003.86263
 91  4  3  1  2 44.9980000  0  4G15G13G 2G 6
  23191137.303    -4452517.605 5  -3398191.40721
  20993066.4434  -14891039.07947 -10866278.12161
  20589288.779   -17731260.698 8 -13706339.11423
  20175778.725   -22235077.579 7 -17225500.62723
 91  4  3  1  2 59.9980000  0  4G15G13G 2G 6
  23191840.022    -4448801.859 5  -3395295.97521
  20984878.865   -14934072.555 7 -10899810.60021
  20590173.686   -17726611.102 8 -13702716.03523
  20172744.842   -22251020.000 7 -17237923.27123
 91  4  3  1  3 14.9980000  0  4G15G13G 2G 6
  23192578.6544   -4444944.90845  -3392290.53261
  20976712.412   -14976984.478 7 -10933248.35221
  20591066.920   -17721915.970 8 -13699057.47624
  20169729.545   -22266863.506 7 -17250268.83423
 91  4  3  1  3 29.9980000  0  4G15G13G 2G 6
  23193334.3814   -4440946.61945  -3389174.94961
  20968569.186   -15019774.711 7 -10966591.29421
  20591969.443   -17717175.181 8 -13695363.33923
  20166733.607   -22282607.739 7 -17262537.04423
 91  4  3  1  3 44.9980000  0  4G15G13G 2G 6
  23194127.834    -4436811.977 5  -3385953.13021
  20960448.834   -15062448.178 7 -10999843.24221
  20592878.803   -17712393.854 8 -13691637.61723
  20163756.201   -22298257.531 7 -17274731.66323
 91  4  3  1  3 59.9980000  0  4G15G13G 2G 6
  23194938.9044   -4432537.07545  -3382622.00661
  20952350.7014  -15105000.52347 -11033000.81861
  20593797.147   -17707567.694 8 -13687876.95723
  20160796.397   -22313808.404 7 -17286849.20423
 91  4  3  1  4 14.9980000  0  4G15G13G 2G 6
  23195776.795    -4428118.017 5  -3379178.55721
  20944277.5684  -15147427.68347 -11066060.83761
  20594725.568   -17702693.008 8 -13684078.48523
  20157856.037   -22329256.411 7 -17298886.58823
 91  4  3  1  4 29.9980000  0  4G15G13G 2G 6
  23196646.6544   -4423563.03545  -3375629.18861
  20936225.7564  -15189737.61347 -11099029.52061
  20595660.990   -17697777.917 8 -13680248.53123
  20154934.154   -22344609.588 7 -17310850.07723
 91  4  3  1  4 44.9980000  0  4G15G13G 2G 6
  23197542.2094   -4418868.75145  -3371971.29461
  20928197.3264  -15231926.79247 -11131904.10661
  20596602.772   -17692819.127 8 -13676384.52423
  20152032.232   -22359864.154 7 -17322736.73823
 91  4  3  1  4 59.9980000  0  4G15G13G 2G 6
  23198462.201    -4414036.234 5  -3368205.66921
  20920191.3034  -15273996.18947 -11164685.35961
  20597555.022   -17687817.877 8 -13672487.43223
  20149147.889   -22375021.005 7 -17334547.25023
 91  4  3  1  5 14.9980000  0  4G15G13G 2G 6
  23199405.865    -4409063.431 5
  20912209.1314  -15315943.19847 -11197371.24761
  20598514.678   -17682772.031 8
  20146282.7564  -22390077.86447 -17346279.83863
 91  4  3  1  5 29.9980000  0  4G15G13G 2G 6
  23200379.6784   -4403951.47345
  20904250.6704  -15357768.72047 -11229962.46561
  20599483.678   -17677682.476 8
  20143436.732   -22405035.396 7 -17357935.03623
 91  4  3  1  5 44.9980000  0  4G15G13G 2G 6
  23201379.631    -4398701.953 5  -3356256.83521
  20896313.7404  -15399474.31647 -11262460.23861
  20600459.607   -17672551.132 8 -13660591.23523
  20140608.990   -22419895.183 7 -17369514.07023
 91  4  3  1  5 59.9980000  0  4G15G13G 2G 6
  23202404.4514   -4393314.52345  -3352058.80861
  20888401.2174  -15441059.39347 -11294864.09161
  20601445.279   -17667377.484 8 -13656559.80523
  20137799.936   -22434656.479 7 -17381016.35923
 91  4  3  1  6 14.9980000  0  4G15G13G 2G 6
  23203452.576    -4387789.011 5  -3347753.20121
  20880510.3734  -15482523.43747 -11327173.64461
  20602438.318   -17662161.330 8 -13652495.25523
  20135010.006   -22449318.800 7 -17392441.52123
 91  4  3  1  6 29.9980000  0  4G15G13G 2G 6
  23204528.701    -4382126.710 5  -3343340.99821
  20872642.1624  -15523867.50447 -11359389.70661
  20603439.475   -17656903.816 8 -13648398.47723
  20132237.717   -22463883.113 7 -17403790.31323
 91  4  3  1  6 44.9980000  0  4G15G13G 2G 6
  23205638.4984   -4376327.60345  -3338822.18961
  20864798.0064  -15565091.35547 -11391512.09461
  20604446.006   -17651605.115 8 -13644269.60323
  20129484.615   -22478349.219 7 -17415062.57923
 91  4  3  1  6 59.9980000  0  4G15G13G 2G 6
  23206764.076    -4370389.787 5  -3334195.30021
  20856976.1154  -15606192.60247 -11423538.94761
  20605463.201   -17646263.193 8 -13640107.05323
  20126751.076   -22492714.717 7 -17426256.45423
 91  4  3  1  7 14.9980000  0  4G15G13G 2G 6
  23207920.990    -4364314.777 5  -3329461.50021
  20849178.0844  -15647172.75847 -11455471.44061
  20606486.850   -17640879.528 8 -13635911.97823
  20124036.795   -22506981.014 7 -17437373.02423
 91  4  3  1  7 29.9980000  0  4G15G13G 2G 6
  23209103.303    -4358100.241 5  -3324618.98521
  20841403.3184  -15688029.33747 -11487307.65261
  20607520.873   -17635451.935 8 -13631682.67723
  20121341.201   -22521145.604 7 -17448410.34423
 91  4  3  1  7 44.9980000  0  4G15G13G 2G 6
  23210313.1394   -4351746.24245  -3319667.78661
  20833651.7484  -15728761.89847 -11519047.21561
  20608561.912   -17629980.337 8 -13627419.07923
  20118664.553   -22535208.198 7 -17459368.19523
 91  4  3  1  7 59.9980000  0  4G15G13G 2G 6
  23211544.3344   -4345254.75445  -3314609.46261
  20825924.5924  -15769372.47947 -11550691.73261
  20609611.076   -17624466.648 7 -13623122.68923
  20116008.615   -22549170.533 7 -17470247.91723
 91  4  3  1  8 14.9980000  0  4G15G13G 2G 6
  23212809.0844   -4338625.00845  -3309443.40261
  20818219.2644  -15809860.00547 -11582240.36761
  20610668.639   -17618910.224 7 -13618792.99223
  20113370.092   -22563031.589 7 -17481048.71623
 91  4  3  1  8 29.9980000  0  4G15G13G 2G 6
  23214099.7724   -4331855.90345  -3304168.74661
  20810538.545   -15850223.279 7 -11613692.18421
  20611733.053   -17613309.876 7 -13614429.07323
  20110752.287   -22576790.087 7 -17491769.60123
 91  4  3  1  8 44.9980000  0  4G15G13G 2G 6
  23215411.1314   -4324948.07045  -3298785.99661
  20802880.7484  -15890462.69347 -11645047.48461
  20612807.076   -17607665.962 7 -13610031.20323
  20108154.561   -22590446.133 7 -17502410.65423
 91  4  3  1  8 59.9980000  0  4G15G13G 2G 6
  23216751.576    -4317899.329 5  -3293293.45421
  20795248.2014  -15930575.46347 -11676304.10261
  20613890.568   -17601976.360 7 -13605597.73823
  20105574.373   -22603997.236 7 -17512969.93223
 91  4  3  1  9 14.9980000  0  4G15G13G 2G 6
  23218118.943    -4310713.334 5  -3287693.95321
  20787638.1004  -15970565.22147 -11707464.86361
  20614981.084   -17596244.933 7 -13601131.68223
  20103015.311   -22617446.954 7 -17523450.21023
 91  4  3  1  9 29.9980000  0  4G15G13G 2G 6
  23219511.0614   -4303390.07345  -3281987.48761
  20780051.178   -16010431.426 7 -11738529.35221
  20616079.100   -17590471.538 7 -13596632.92023
  20100475.623   -22630794.745 7 -17533851.06623
 91  4  3  1  9 44.9980000  0  4G15G13G 2G 6
  23220931.9204   -4295930.54845  -3276174.83061
  20772488.670   -16050175.155 7 -11769498.40721
  20617185.9824  -17584657.12447 -13592102.19863
  20097954.170   -22644041.452 7 -17544173.15223
 91  4  3  1  9 59.9980000  0  4G15G13G 2G 6
  23222379.8654   -4288331.30445  -3270253.31661
  20764948.256   -16089792.921 7 -11800369.31221
  20618300.686   -17578798.327 7 -13587536.89023
  20095454.264   -22657183.406 7 -17554413.61723
 91  4  3  1 10 14.9980000  0  4G15G13G 2G 6
  23223854.9514   -4280589.90745  -3264221.03761
  20757434.779   -16129282.103 7 -11831140.02221
  20619424.4594  -17572892.70147 -13582935.09463
  20092973.365   -22670218.107 7 -17564570.50323
 91  4  3  1 10 29.9980000  0  4G15G13G 2G 6
  23225352.7484   -4272711.09245  -3258081.67361
  20749944.647   -16168646.678 7 -11861813.63321
  20620557.4124  -17566944.70447 -13578300.28363
  20090512.717   -22683149.637 7 -17574647.00223
 91  4  3  1 10 44.9980000  0  4G15G13G 2G 6
  23226874.5064   -4264697.08045  -3251836.96061
  20742476.553   -16207888.732 7 -11892391.77621
  20621697.0844  -17560956.43548 -13573634.09063
  20088070.248   -22695979.981 7 -17584644.65223
 91  4  3  1 10 59.9980000  0  4G15G13G 2G 6
  23228429.4984   -4256545.14945  -3245484.76861
  20735031.748   -16247005.434 7 -11922872.24421
  20622843.5144  -17554925.37847 -13568934.55363
  20085650.029   -22708706.157 7 -17594561.12823
 91  4  3  1 11 14.9980000  0  4G15G13G 2G 6
  23230003.068    -4248259.233 5  -3239028.19121
  20727612.045   -16286000.385 7 -11953257.83921
  20623998.959   -17548855.278 8 -13564204.59023
  20083247.654   -22721331.840 7 -17604399.30223
 91  4  3  1 11 29.9980000  0  4G15G13G 2G 6
  23231608.482    -4239838.274 5  -3232466.38121
  20720214.764   -16324872.532 7 -11983547.74521
  20625161.115   -17542745.137 8 -13559443.42723
  20080863.693   -22733855.732 7 -17614158.15523
 91  4  3  1 11 44.9980000  0  4G15G13G 2G 6
  23233233.9674   -4231277.72545  -3225795.79461
  20712841.631   -16363616.962 7 -12013738.12921
  20626332.7014  -17536590.34348 -13554647.47163
  20078501.529   -22746272.990 7 -17623833.91823
 91  4  3  1 11 59.9980000  0  4G15G13G 2G 6
  23234892.318    -4222578.262 5  -3219016.97721
  20705493.061   -16402233.885 7 -12043829.16021
  20627511.967   -17530391.449 8 -13549817.15023
  20076157.506   -22758583.854 7 -17633426.78023
 91  4  3  1 12 14.9980000  0  4G15G13G 2G 6
  23236571.397    -4213742.802 5  -3212132.18721
  20698167.881   -16440726.068 7 -12073822.99121
  20628700.701   -17524151.388 8 -13544954.75123
  20073834.498   -22770791.167 7 -17642938.95423
 91  4  3  1 12 29.9980000  0  4G15G13G 2G 6
  23238277.717    -4204766.933 5  -3205137.98521
  20690867.389   -16479088.665 7 -12103715.84821
  20629896.443   -17517865.210 8 -13540056.41523
  20071532.982   -22782889.710 7 -17652366.37323
 91  4  3  1 12 44.9980000  0  4G15G13G 2G 6
  23240014.459    -4195653.604 5  -3198036.67921
  20683592.553   -16517324.447 7 -12133509.89021
  20631100.0924  -17511536.07248 -13535124.61063
  20069250.428   -22794882.355 7 -17661711.27423
 91  4  3  1 12 59.9980000  0  4G15G13G 2G 6
  23241774.8814   -4186403.64745  -3190828.88961
  20676339.842   -16555434.340 7 -12163205.83721
  20632312.693   -17505165.018 8 -13530160.14223
  20066988.342   -22806769.957 7 -17670974.32223
 91  4  3  1 13 14.9980000  0  4G15G13G 2G 6
  23243564.217    -4177013.814 5  -3183512.11621
  20669112.342   -16593414.833 6 -12192800.94821
  20633534.350   -17498748.493 8 -13525160.23923
  20064746.826   -22818548.797 7 -17680152.62223
 91  4  3  1 13 29.9980000  0  4G15G13G 2G 6
  23245376.154    -4167485.754 5  -3176087.64221
  20661909.686   -16631267.435 7 -12222296.40821
  20634763.029   -17492288.182 8 -13520126.21723
  20062525.186   -22830220.223 7 -17689247.21923
 91  4  3  1 13 44.9980000  0  4G15G13G 2G 6
  23247217.701    -4157818.555 5  -3168554.74321
  20654730.850   -16668990.895 6 -12251691.23921
  20636000.256   -17485783.091 8 -13515057.30323
  20060324.904   -22841782.966 7 -17698257.12923
 91  4  3  1 13 59.9980000  0  4G15G13G 2G 6
  23249081.5144   -4148009.72345  -3160911.49261
  20647577.279   -16706582.358 7 -12280983.21021
  20637247.467   -17479230.792 8 -13509951.60223
  20058146.076   -22853234.351 7 -17707180.27023
 91  4  3  1 14 14.9980000  0  4G15G13G 2G 6
  23250971.662    -4138063.560 5  -3153161.21521
  20640448.170   -16744045.671 6 -12310175.32921
  20638503.5374  -17472635.32548 -13504812.26663
  20055986.904   -22864578.274 7 -17716019.67423
 91  4  3  1 14 29.9980000  0  4G15G13G 2G 6
  23252891.076    -4127977.052 5  -3145301.58021
  20633343.514   -16781377.862 6 -12339265.27221
  20639766.4284  -17465993.62848 -13499636.91064
  20053850.475   -22875811.542 7 -17724772.85623
 91  4  3  1 14 44.9980000  0  4G15G13G 2G 6
  23254840.850    -4117751.976 5  -3137333.96721
  20626264.732   -16818580.675 6 -12368254.40521
  20641039.193   -17459307.794 8 -13494427.16024
  20051732.553   -22886935.694 7 -17733441.00823
 91  4  3  1 14 59.9980000  0  4G15G13G 2G 6
  23256809.537    -4107392.235 5  -3129261.42521
  20619208.2324  -16855657.44947 -12397145.32961
  20642319.631   -17452581.536 8 -13489185.90523
  20049636.631   -22897954.205 7 -17742026.84223
 91  4  3  1 15 14.9980000  0  4G15G13G 2G 6
  23258808.529    -4096891.217 5  -3121078.79321
  20612178.553   -16892601.285 7 -12425932.66121
  20643607.998   -17445807.917 8 -13483907.74923
  20047561.256   -22908860.015 7 -17750524.86323
 91  4  3  1 15 29.9980000  0  4G15G13G 2G 6
  23260833.170    -4086249.688 5  -3112786.67421
  20605173.904   -16929412.684 7 -12454616.79621
  20644905.772   -17438987.496 8 -13478593.12123
  20045506.654   -22919653.577 7 -17758935.41623
 91  4  3  1 15 44.9980000  0  4G15G13G 2G 6
  23262885.850    -4075471.492 5  -3104388.06421
  20598193.029   -16966095.277 7 -12483200.56121
  20646212.772   -17432124.058 8 -13473244.97823
  20043473.678   -22930338.492 7 -17767261.31123
 91  4  3  1 15 59.9980000  0  4G15G13G 2G 6
  23264960.8184   -4064551.84445  -3095879.23561
  20591237.6864  -17002644.03947 -12511680.04461
  20647526.967   -17425212.762 8 -13467859.53823
  20041462.443   -22940909.595 7 -17775498.52023
 91  4  3  1 16 14.9980000  0  4G15G13G 2G 6
  23267069.6934   -4053490.49545  -3087259.97761
  20584308.498   -17039058.644 7 -12540054.98821
  20648850.295   -17418253.548 8 -13462436.76623
  20039471.795   -22951366.515 7 -17783646.75023
 91  4  3  1 16 29.9980000  0  4G15G13G 2G 6
  23269197.7874   -4042291.25745  -3078533.28561
  20577404.7954  -17075342.60547 -12568328.13461
  20650184.1934  -17411250.12548 -13456979.54663
  20037502.803   -22961712.751 7 -17791708.73223
 91  4  3  1 16 44.9980000  0  4G15G13G 2G 6
  23271352.8344   -4030956.37045  -3069700.89761
  20570523.436   -17111497.561 7 -12596500.75921
  20651525.443   -17404204.234 8 -13451489.22723
  20035554.834   -22971950.030 7 -17799685.81323
 91  4  3  1 16 59.9980000  0  4G15G13G 2G 6
  23273537.8974   -4019480.50145  -3060758.64761
  20563669.2484  -17147518.34247 -12624568.83061
  20652874.404   -17397110.846 7 -13445961.90323
  20033629.131   -22982072.903 7 -17807573.74923
 91  4  3  1 17 14.9980000  0  4G15G13G 2G 6
  23275748.592    -4007869.640 5  -3051711.21421
  20556839.7484  -17183410.63447 -12652536.78561
  20654231.600   -17389975.870 7 -13440402.16923
  20031724.209   -22992087.010 7 -17815376.92923
 91  4  3  1 17 29.9980000  0  4G15G13G 2G 6
  23277985.147    -3996121.374 5  -3042556.69521
  20550035.107   -17219171.734 7 -12680402.50721
  20655597.920   -17382796.492 8 -13434807.84523
  20029839.022   -23001989.603 7 -17823093.21523
 91  4  3  1 17 44.9980000  0  4G15G13G 2G 6
  23280246.811    -3984231.700 5  -3033292.00721
  20543253.9434  -17254797.35847 -12708162.66961
  20656974.3034  -17375568.66048 -13429175.75063
  20027977.154   -23011776.255 7 -17830719.15923
 91  4  3  1 17 59.9980000  0  4G15G13G 2G 6
  23282535.4434   -3972201.82845  -3023918.07761
  20536500.5924  -17290288.33647 -12735817.90861
  20658359.0684  -17368293.41048 -13423506.71563
  20026136.826   -23021447.772 7 -17838255.38723
 91  4  3  1 18 14.9980000  0  4G15G13G 2G 6
  23284849.522    -3960036.208 5  -3014438.35621
  20529772.3034  -17325648.87147 -12763371.50761
  20659750.5924  -17360975.00047 -13417804.05263
  20024317.787   -23031008.262 7 -17845705.10222
 91  4  3  1 18 29.9980000  0  4G15G13G 2G 6
  23287190.498    -3947731.972 5  -3004850.63121
  20523068.9984  -17360876.10947 -12790821.24061
  20661151.982   -17353610.893 8 -13412065.77523
  20022519.897   -23040454.876 7 -17853066.07923
 91  4  3  1 18 44.9980000  0  4G15G13G 2G 6
  23289561.975    -3935288.818 5  -2995154.66521
  20516390.0684  -17395969.39047 -12818166.58261
  20662562.2404  -17346200.62948 -13406291.53863
  20020743.764   -23049786.812 7 -17860337.69923
 91  4  3  1 18 59.9980000  0  4G15G13G 2G 6
  23291954.0684   -3922705.93845  -2985349.81361
  20509738.475   -17430927.342 7 -12845406.47121
  20663981.6004  -17338742.91947 -13400480.32763
  20018989.436   -23059002.874 7 -17867519.02823
 91  4  3  1 19 14.9980000  0  4G15G13G 2G 6
  23294375.4984   -3909987.15645  -2975439.07261
  20503110.4754  -17465754.00547 -12872544.06761
  20665409.2874  -17331241.70947 -13394635.22263
  20017256.076   -23068106.613 7 -17874612.83323
 91  4  3  1 19 29.9980000  0  4G15G13G 2G 6
  23296823.631    -3897128.062 5  -2965418.98721
  20496508.9284  -17500444.79047 -12899575.78461
  20666845.6314  -17323692.90548 -13388753.02863
  20015546.865   -23077093.658 7 -17881615.70723
 91  4  3  1 19 44.9980000  0  4G15G13G 2G 6
  23299295.162    -3884129.854 5  -2955290.49921
  20489933.0374  -17535000.44447 -12926502.20261
  20668291.2564  -17316097.16147 -13382834.25763
  20013859.428   -23085964.524 7 -17888528.04923
 91  4  3  1 19 59.9980000  0  4G15G13G 2G 6
  23301796.3504   -3870991.53845  -2945052.83061
  20483383.8654  -17569419.57947 -12953322.24761
  20669746.4284  -17308453.26347 -13376877.96663
  20012193.014   -23094717.732 7 -17895348.71123
 91  4  3  1 20 14.9980000  0  4G15G13G 2G 6
  23304322.365    -3857720.260 5  -2934711.57321
  20476858.3894  -17603709.23347 -12980041.40261
  20671207.5374  -17300768.38847 -13370889.74563
  20010548.701   -23103360.327 7 -17902083.18023
 91  4  3  1 20 29.9980000  0  4G15G13G 2G 6
  23306872.5844   -3844305.69145  -2924258.65761
  20470360.3114  -17637858.86647 -13006651.44261
  20672680.5684  -17293032.05347 -13364861.41963
  20008927.404   -23111881.764 7 -17908723.24323
 91  4  3  1 20 44.9980000  0  4G15G13G 2G 6
  23309451.9514   -3830757.84745  -2913701.88461
  20463885.7014  -17671878.27147 -13033160.00861
  20674160.2874  -17285254.34747 -13358800.86463
  20007326.107   -23120291.644 7 -17915276.38123
 91  4  3  1 20 59.9980000  0  4G15G13G 2G 6
  23312057.561    -3817069.904 6  -2903035.93821
  20457438.6154  -17705760.04547 -13059561.32861
  20675649.4204  -17277427.93047 -13352702.35663
  20005749.357   -23128582.682 7 -17921736.91023
 91  4  3  1 21 14.9980000  0  4G15G13G 2G 6
  23314692.287    -3803235.093 6  -2892255.55521
  20451018.0224  -17739497.25147 -13085849.99461
  20677148.3574  -17269546.16147 -13346560.70963
  20004195.514   -23136747.852 7 -17928099.36223
 91  4  3  1 21 29.9980000  0  4G15G13G 2G 6
  23317350.8424   -3789257.85946  -2881364.20361
  20444625.1544  -17773094.32347 -13112029.47361
  20678658.7014  -17261613.31047 -13340379.26063
  20002663.639   -23144791.256 7 -17934366.93323
 91  4  3  1 21 44.9980000  0  4G15G13G 2G 6
  23320036.006    -3775141.157 6  -2870364.15921
  20438258.0144  -17806554.27947 -13138102.10461
  20680177.592   -17253632.472 7 -13334160.40923
  20001156.873   -23152715.700 7 -17940541.80823
 91  4  3  1 21 59.9980000  0  4G15G13G 2G 6
  23322751.037    -3760885.085 6  -2859255.51521
  20431916.4364  -17839876.98947 -13164067.79661
  20681704.8264  -17245603.54847 -13327904.10163
  19999671.506   -23160521.056 7 -17946623.89123
 91  4  3  1 22 14.9980000  0  4G15G13G 2G 6
  23325488.7794   -3746494.95746  -2848042.42561
  20425601.6624  -17873067.05247 -13189930.12161
  20683241.5534  -17237531.48847 -13321614.17963
  19998207.318   -23168212.032 7 -17952616.83923
 91  4  3  1 22 29.9980000  0  4G15G13G 2G 6
  23328251.2324   -3731965.82046  -2836721.00161
  20419311.6004  -17906118.94747 -13215684.78261
  20684787.1784  -17229411.14247 -13315286.62963
  19996766.443   -23175783.237 7 -17958516.46023
 91  4  3  1 22 44.9980000  0  4G15G13G 2G 6
  23331040.678    -3717304.237 6  -2825296.37521
  20413046.3114  -17939039.41347 -13241337.02661
  20686340.2174  -17221249.06147 -13308926.56263
  19995347.459   -23183240.983 7 -17964327.68023
 91  4  3  1 22 59.9980000  0  4G15G13G 2G 6
  23333855.443    -3702507.603 6  -2813766.52721
  20406808.4674  -17971825.44947 -13266884.52561
  20687901.7174  -17213042.53547 -13302531.86263
  19993950.951   -23190582.494 7 -17970048.32423
 91  4  3  1 23 14.9980000  0  4G15G13G 2G 6
  23336700.0064   -3687575.79746  -2802131.35161
  20400593.5224  -18004476.77247 -13292327.05061
  20689471.9984  -17204791.30047 -13296102.31863
  19992575.545   -23197807.207 7 -17975677.95423
 91  4  3  1 23 29.9980000  0  4G15G13G 2G 6
  23339564.8814   -3672505.29146  -2790388.10261
  20394406.4674  -18036989.95647 -13317661.93861
  20691051.3814  -17196491.67347 -13289635.07163
  19991223.779   -23204911.385 7 -17981213.66023
 91  4  3  1 23 44.9980000  0  4G15G13G 2G 6
  23342462.232    -3657294.210 6  -2778535.28621
  20388246.8114  -18069362.54947 -13342887.27761
  20692640.0844  -17188141.63747 -13283128.54763
  19989895.482   -23211892.671 7 -17986653.60423
 91  4  3  1 23 59.9980000  0  4G15G13G 2G 6
  23345379.912    -3641950.255 6  -2766578.96121
  20382111.6864  -18101602.11847 -13368008.95461
  20694237.7174  -17179748.92447 -13276588.76363
  19988588.412   -23218758.635 7 -17992003.69323
 91  4  3  1 24 14.9980000  0  4G15G13G 2G 6
  23348327.7014   -3626470.27946  -2754516.61761
  20376001.9044  -18133705.27147 -13393024.34161
  20695843.0144  -17171310.40747 -13270013.28463
  19987304.678   -23225505.736 7 -17997261.15923
 91  4  3  1 24 29.9980000  0  4G15G13G 2G 6
  23351298.0294   -3610854.53346  -2742348.47761
  20369918.9984  -18165671.85347 -13417933.30461
  20697458.4514  -17162825.93247 -13263401.99663
  19986043.623   -23232133.734 7 -18002425.81823
 91  4  3  1 24 44.9980000  0  4G15G13G 2G 6
  23354296.7014   -3595099.72446  -2730072.00261
  20363863.5064  -18197498.36247 -13442733.12361
  20699081.3114  -17154292.01147 -13256752.18163
  19984806.397   -23238639.033 7 -18007494.87023
 91  4  3  1 24 59.9980000  0  4G15G13G 2G 6
  23357322.334    -3579206.580 6  -2717687.71321
  20357832.9204  -18229185.28447 -13467424.16261
  20700714.2794  -17145709.19947 -13250064.26863
  19983591.834   -23245021.966 7 -18012468.57023
 91  4  3  1 25 14.9980000  0  4G15G13G 2G 6
  23360370.779    -3563176.409 5  -2705196.65621
  20351829.3974  -18260733.75847 -13492007.33261
  20702356.5374  -17137078.64547 -13243339.15463
  19982398.795   -23251283.638 7 -18017347.77623
 91  4  3  1 25 29.9980000  0  4G15G13G 2G 6
  23363446.482    -3547007.968 5  -2692597.86121
  20345853.1234  -18292142.09547 -13516481.30061
  20704008.428   -17128398.744 7 -13236575.58523
  19981232.7094  -23257422.29647 -18022131.13863
 91  4  3  1 25 44.9980000  0  4G15G13G 2G 6
  23366550.498    -3530700.163 5  -2679890.46621
  20339902.9674  -18323408.98247 -13540845.04661
  20705670.6544  -17119668.50747 -13229772.79163
  19980086.834   -23263436.676 7 -18026817.65523
 91  4  3  1 25 59.9980000  0  4G15G13G 2G 6
  23369678.7484   -3514257.87545  -2667078.25561
  20333979.3654  -18354539.28647 -13565102.36562
  20707340.4204  -17110892.74447 -13222934.52563
  19978965.201   -23269331.229 7 -18031410.79623
 91  4  3  1 26 14.9980000  0  4G15G13G 2G 6
  23372834.459    -3497676.855 5  -2654157.97121
  20328081.8504  -18385528.44747 -13589249.70662
  20709019.2724  -17102066.98447 -13216057.30263
  19977868.100   -23275101.441 7 -18035907.05523
 91  4  3  1 26 29.9980000  0  4G15G13G 2G 6
  23376015.365    -3480961.526 5  -2641133.02421
  20322211.0534  -18416380.81647 -13613290.45462
  20710707.5454  -17093195.41347 -13209144.37963
  19976791.600   -23280751.433 7 -18040309.62923
 91  4  3  1 26 44.9980000  0  4G15G13G 2G 6
  23379223.381    -3464110.743 5  -2628002.51521
  20316366.4124  -18447094.90347 -13637223.45161
  20712405.0844  -17084276.87047 -13202194.85563
  19975739.5614  -23286279.80747 -18044617.44663
 91  4  3  1 26 59.9980000  0  4G15G13G 2G 6
  23382455.647    -3447126.259 5  -2614767.84321
  20310547.654   -18477671.923 7 -13661049.64421
  20714110.4284  -17075312.87047 -13195209.91163
  19974711.3114  -23291687.81247 -18048831.46663
 91  4  3  1 27 14.9980000  0  4G15G13G 2G 6
  23385712.7564   -3430002.71445  -2601424.79261
  20304755.490   -18508106.234 7 -13684764.64122
  20715825.803   -17066297.817 7 -13188185.18123
  19973705.772   -23296969.727 7 -18052947.23123
 91  4  3  1 27 29.9980000  0  4G15G13G 2G 6
  23388997.084    -3412742.759 5  -2587975.46521
  20298991.2794  -18538400.26047 -13708370.31362
  20717551.1934  -17057234.21447 -13181122.62563
  19972723.787   -23302127.724 7 -18056966.43523
 91  4  3  1 27 44.9980000  0  4G15G13G 2G 6
  23392306.725    -3395349.930 5  -2574422.58321
  20293251.9904  -18568557.59047 -13731869.47862
  20719284.2874  -17048125.62147 -13174025.01363
  19971765.232   -23307165.266 7 -18060891.77722
 91  4  3  1 27 59.9980000  0  4G15G13G 2G 6
  23395641.873    -3377822.455 5  -2560764.78621
  20287540.4594  -18598576.11347 -13755260.47861
  20721026.6394  -17038970.00447 -13166890.76163
  19970830.803   -23312080.162 7 -18064721.55422
 91  4  3  1 28 14.9980000  0  4G15G13G 2G 6
  23399004.3814   -3360161.66145  -2547003.12061
  20281853.943   -18628456.884 7 -13778544.14221
  20722777.2954  -17029768.64347 -13159720.86063
  19969918.240   -23316873.467 7 -18068456.58423
 91  4  3  1 28 29.9980000  0  4G15G13G 2G 6
  23402388.1394   -3342368.46445  -2533138.27061
  20276193.3734  -18658200.75047 -13801721.11962
  20724536.8734  -17020521.96947 -13152515.65263
  19969028.826   -23321545.750 7 -18072097.30922
 91  4  3  1 28 44.9980000  0  4G15G13G 2G 6
  23405800.5534   -3324438.75145  -2519167.05161
  20270561.701   -18687803.191 7 -13824787.90422
  20726305.475   -17011225.937 7 -13145271.98223
  19968163.037   -23326092.530 7 -18075640.23922
 91  4  3  1 28 59.9980000  0  4G15G13G 2G 6
  23409239.193    -3306374.375 5  -2505090.90921
  20264954.201   -18717265.898 7 -13847745.80222
  20728083.9754  -17001882.34947 -13137991.25663
  19967321.920   -23330515.323 7 -18079086.55622
 91  4  3  1 29 14.9980000  0  4G15G13G 2G 6
  23412701.350    -3288176.866 5  -2490911.01021
  20259373.373   -18746589.949 7 -13870595.66122
  20729871.2724  -16992492.19047 -13130674.24363
  19966503.725   -23334815.129 7 -18082437.03723
 91  4  3  1 29 29.9980000  0  4G15G13G 2G 6
  23416189.3034   -3269838.30145  -2476621.19961
  20253821.061   -18775767.399 7 -13893331.28421
  20731668.3114  -16983047.45047 -13123314.69663
  19965709.795   -23338983.881 7 -18085685.40023
 91  4  3  1 29 44.9980000  0  4G15G13G 2G 6
  23419706.8974   -3251362.37945  -2462224.35861
  20248296.373   -18804801.546 7 -13915955.23722
  20733475.4364  -16973551.65547 -13115915.36863
  19964941.389   -23343024.761 7 -18088834.12323
 91  4  3  1 29 59.9980000  0  4G15G13G 2G 6
  23423248.834    -3232752.473 5  -2447723.12221
  20242798.9514  -18833695.49047 -13938469.94561
  20735290.8574  -16964008.26547 -13108478.94863
  19964196.154   -23346940.958 7 -18091885.69223
 91  4  3  1 30 14.9980000  0  4G15G13G 2G 6
  23426817.3424   -3214006.67445  -2433116.00061
  20237326.779   -18862447.223 7 -13960873.84021
  20737116.7324  -16954415.09847 -13101003.74563
  19963474.662   -23350730.238 7 -18094838.36222
 91  4  3  1 30 29.9980000  0  4G15G13G 2G 6
  23430409.881    -3195127.033 5  -2418404.58221
  20231881.092   -18891058.506 7 -13983168.28822
  20738951.0374  -16944773.93947 -13093491.14763
  19962778.139   -23354394.318 7 -18097693.47523
 91  4  3  1 30 44.9980000  0  4G15G13G 2G 6
  23434025.7324   -3176114.87845  -2403589.87161
  20226463.975   -18919530.639 7 -14005354.31322
  20740794.9904  -16935085.86347 -13085941.98963
  19962105.014   -23357934.167 7 -18100451.78723
 91  4  3  1 30 59.9980000  0  4G15G13G 2G 6
  23437668.748    -3156967.569 5  -2388669.89521
  20221073.2644  -18947860.51147 -14027429.48462
  20742647.7254  -16925348.09447 -13078354.11163
  19961454.818   -23361346.749 7 -18103110.92723
 91  4  3  1 31 14.9980000  0  4G15G13G 2G 6
  23441338.795    -3137685.508 5  -2373644.89021
  20215708.920   -18976048.188 7 -14049393.85421
  20744511.0844  -16915560.94747 -13070727.75563
  19960829.545   -23364632.187 7 -18105670.99522
 91  4  3  1 31 29.9980000  0  4G15G13G 2G 6
  23445031.8424   -3118264.85345  -2358511.90661
  20210372.756   -19004089.338 7 -14071244.04722
  20746383.1474  -16905719.99347 -13063059.47563
  19960229.2014  -23367785.86647 -18108128.39862
 91  4  3  1 31 44.9980000  0  4G15G13G 2G 6
  23448754.8424   -3098715.63545  -2343278.74161
  20205061.772   -19031993.959 7 -14092987.85422
  20748264.4124  -16895835.26147 -13055357.07963
  19959652.1474  -23370817.66847 -18110490.83062
 91  4  3  1 31 59.9980000  0  4G15G13G 2G 6
  23452499.6544   -3079034.71545  -2327942.94861
  20199779.6704  -19059758.88347 -14114622.80661
  20750153.9364  -16885903.58047 -13047618.10163
  19959099.037   -23373724.247 7 -18112755.68123
 91  4  3  1 32 14.9980000  0  4G15G13G 2G 6
  23456269.9754   -3059218.52245  -2312501.73961
  20194522.787   -19087380.246 7 -14136145.89222
  20752053.3974  -16875921.28347 -13039839.68563
  19958571.256   -23376501.797 7 -18114919.99422
 91  4  3  1 32 29.9980000  0  4G15G13G 2G 6
  23460067.3504   -3039267.34045  -2296955.35961
  20189293.490   -19114857.923 7 -14157557.01921
  20753963.4674  -16865888.17348 -13032021.67263
  19958066.779   -23379150.033 7 -18116983.53923
 91  4  3  1 32 44.9980000  0  4G15G13G 2G 6
  23463887.4204   -3019180.63945  -2281303.37461
  20184091.998   -19142191.334 7 -14178855.72522
  20755882.0764  -16855803.83048 -13024163.73463
  19957587.7254  -23381668.25047 -18118945.77363
 91  4  3  1 32 59.9980000  0  4G15G13G 2G 6
  23467737.123    -2998961.863 5  -2265548.46821
  20178918.232   -19169383.381 7 -14200044.28422
  20757809.7874  -16845671.37647 -13016268.31263
  19957133.014   -23384059.514 7 -18120809.08423
 91  4  3  1 33 14.9980000  0  4G15G13G 2G 6
  23471610.3344   -2978609.42245  -2249689.41161
  20173770.904   -19196432.429 7 -14221121.41422
  20759747.7174  -16835489.03947 -13008334.01763
  19956701.9434  -23386322.01647 -18122572.06262
 91  4  3  1 33 29.9980000  0  4G15G13G 2G 6
  23475509.936    -2958122.830 5  -2233725.81921
  20168650.201   -19223337.903 7 -14242086.66222
  20761695.3424  -16825256.16747 -13000360.34363
  19956296.287   -23388454.855 7 -18124233.99923
 91  4  3  1 33 44.9980000  0  4G15G13G 2G 6
  23479432.303    -2937500.854 5  -2217656.72921
  20163558.178   -19250098.297 7 -14262938.86822
  20763651.9044  -16814971.36247 -12992346.20363
  19955915.147   -23390456.352 7 -18125793.59422
 91  4  3  1 33 59.9980000  0  4G15G13G 2G 6
  23483382.904    -2916742.706 5  -2201481.53421
  20158493.545   -19276712.269 7 -14283676.97422
  20765619.2174  -16804633.39147 -12984290.63863
  19955560.451   -23392325.176 7 -18127249.81022
 91  4  3  1 34 14.9980000  0  4G15G13G 2G 6
  23487357.4754   -2895853.50945  -2185204.22761
  20153456.357   -19303184.973 7 -14304305.00321
  20767595.4364  -16794247.30747 -12976197.58063
  19955229.295   -23394066.289 7 -18128606.50723
 91  4  3  1 34 29.9980000  0  4G15G13G 2G 6
  23491357.2014   -2874830.48645  -2168822.63561
  20148446.115   -19329513.452 7 -14324820.65221
  20769581.5144  -16783810.27147 -12968064.82063
  19954921.475   -23395676.650 7 -18129861.32222
 91  4  3  1 34 44.9980000  0  4G15G13G 2G 6
  23495382.107    -2853675.794 5  -2152338.44721
  20143463.186   -19355699.576 7 -14345225.37021
  20771577.6864  -16773324.12547 -12959893.79163
  19954640.0844  -23397158.02047 -18131015.62762
 91  4  3  1 34 59.9980000  0  4G15G13G 2G 6
  23499434.9514   -2832386.61045  -2135749.46361
  20138507.561   -19381740.096 7 -14365516.63222
  20773582.7324  -16762785.78347 -12951682.09263
  19954382.615   -23398507.080 7 -18132066.83022
 91  4  3  1 35 14.9980000  0  4G15G13G 2G 6
  23503511.506    -2810962.054 5  -2119054.98821
  20133580.990   -19407634.026 7 -14385693.66722
  20775597.6934  -16752194.17447 -12943428.88563
  19954152.3034  -23399722.86247 -18133014.18262
 91  4  3  1 35 29.9980000  0  4G15G13G 2G 6
  23507613.592    -2789408.886 5  -2102260.30621
  20128679.365   -19433387.741 7 -14405761.44722
  20777622.7794  -16741555.67647 -12935139.14063
  19953944.295   -23400811.439 7 -18133862.41322
 91  4  3  1 35 44.9980000  0  4G15G13G 2G 6
  23511738.9514   -2767727.80145  -2085365.94161
  20123805.404   -19459001.888 7 -14425720.47322
  20779656.0924  -16730870.80947 -12926813.26463
  19953761.1314  -23401773.29647 -18134611.90262
 91  4  3  1 35 59.9980000  0  4G15G13G 2G 6
  23515890.639    -2745912.687 5  -2068367.13321
  20118958.881   -19484470.262 7 -14445565.90722
  20781698.6074  -16720133.38347 -12918446.42963
  19953605.397   -23402602.198 7 -18135257.78922
 91  4  3  1 36 14.9980000  0  4G15G13G 2G 6
  23520068.0924   -2723962.32945  -2051262.95361
  20114140.818   -19509790.939 7 -14465296.25922
  20783752.2954  -16709341.67347 -12910037.29763
  19953470.873   -23403296.152 7 -18135798.52022
 91  4  3  1 36 29.9980000  0  4G15G13G 2G 6
  23524269.2094   -2701880.46245  -2034056.29661
  20109349.162   -19534967.816 7 -14484914.55121
  20785815.6074  -16698499.50047 -12901588.84463
  19953363.154   -23403858.778 7 -18136236.91722
 91  4  3  1 36 44.9980000  0  4G15G13G 2G 6
  23528497.5374   -2679664.87945  -2016745.44361
  20104586.232   -19559998.098 7 -14504418.61622
  20787888.6314  -16687604.22747 -12893099.01563
  19953283.561   -23404287.381 7 -18136570.87822
 91  4  3  1 36 59.9980000  0  4G15G13G 2G 6
  23532749.7724   -2657319.94245  -1999333.79461
  20099850.647   -19584886.222 7 -14523811.90321
  20789972.0144  -16676660.23047 -12884571.21963
  19953226.2014  -23404586.08947 -18136803.62862
 91  4  3  1 37 14.9980000  0  4G15G13G 2G 6
  23537026.0614   -2634846.45945  -1981821.97661
  20095140.693   -19609632.352 7 -14543094.55822
  20792063.9044  -16665667.93747 -12876005.79363
  19953194.2724  -23404755.42747
 91  4  3  1 37 29.9980000  0  4G15G13G 2G 6
  23541327.5294   -2612241.03045  -1964207.34361
  20090459.873   -19634233.248 7 -14562264.03822
  20794165.0764  -16654623.85147 -12867400.00863
  19953186.8424  -23404791.61447
 91  4  3  1 37 44.9980000  0  4G15G13G 2G 6
  23545653.9594   -2589504.12245  -1946490.25561
  20085805.537   -19658689.124 7 -14581320.51522
  20796276.4594  -16643528.23047 -12858754.06063
  19953206.8504  -23404694.76047
 91  4  3  1 37 59.9980000  0  4G15G13G 2G 6
  23550005.897    -2566635.984 5  -1928670.92521
  20081179.061   -19682999.882 7 -14600263.91222
  20798397.6234  -16632381.01147 -12850067.90663
  19953248.553   -23404464.804 7
 91  4  3  1 38 14.9980000  0  4G15G13G 2G 6
  23554382.272    -2543638.059 5  -1910750.45721
  20076580.475   -19707166.746 7 -14619095.18622
  20800529.2094  -16621183.33147 -12841342.43663
  19953318.592   -23404102.806 7
 91  4  3  1 38 29.9980000  0  4G15G13G 2G 6
  23558783.764    -2520508.107 5  -1892727.10521
  20072009.795   -19731187.314 7 -14637812.45822
  20802669.9674  -16609932.96147 -12832575.90363
  19953413.373   -23403606.204 7 -18136040.01722
 91  4  3  1 38 44.9980000  0  4G15G13G 2G 6
  23563211.217    -2497246.395 5  -1874601.08021
  20067465.670   -19755061.567 7 -14656415.72622
  20804820.1004  -16598629.85247 -12823768.28363
  19953534.8184  -23402974.85447 -18135548.04362
 91  4  3  1 38 59.9980000  0  4G15G13G 2G 6
  23567661.4904   -2473851.86645  -1856371.56861
  20062951.912   -19778788.212 7 -14674903.96722
  20806980.8894  -16587272.52047 -12814918.40463
  19953680.654   -23402207.389 7 -18134950.01222
 91  4  3  1 39 14.9980000  0  4G15G13G 2G 6
  23572137.951    -2450329.672 5  -1838042.57521
  20058463.623   -19802372.158 7 -14693281.02022
  20809151.9984  -16575866.09447 -12806030.27363
  19953851.522   -23401308.593 7 -18134249.63722
 91  4  3  1 39 29.9980000  0  4G15G13G 2G 6
  23576639.772    -2426680.825 5  -1819614.88821
  20054001.904   -19825814.199 7 -14711547.50022
  20811331.9594  -16564411.23947 -12797104.40863
  19954046.365   -23400279.097 7 -18133447.42022
 91  4  3  1 39 44.9980000  0  3G13G 2G 6
  20049569.842   -19849108.766 7 -14729699.06022
  20813522.2014  -16552902.49647 -12788136.54863
  19954268.5534  -23399113.31047 -18132539.00362
 91  4  3  1 39 59.9980000  0  3G13G 2G 6
  20045164.014   -19872255.462 7 -14747735.40022
  20815721.7094  -16541339.65947 -12779126.53763
  19954517.5684  -23397810.70647 -18131523.98162
 91  4  3  1 40 14.9980000  0  3G13G 2G 6
  20040787.272   -19895259.858 7 -14765660.85822
  20817932.2874  -16529727.99747 -12770078.48263
  19954788.4514  -23396376.60947 -18130406.49662
